[[{"header":{"parameterUnit":"m.s-1","parameterCategory":1,"la1":30.6,"la2":28.766,"lo1":-90.7593,"lo2":-88.6598,"dy":0.0162,"dx":0.0183,"nx":116,"ny":114,"refTime":"2024-04-20T00:00:00:Z","depth":0,"parameterNumber":2,"parameterNumberName":"U-component_of_WINDS"},"data":[0.0,0.0,0.0,0.0,0.0,0.0,0.0,0.0,0.0,0.0,0.0,0.0,0.0,0.0,0.0,0.0,0.0,0.0,0.0,0.0,0.0,0.0,0.0,0.0,0.0,0.0,0.0,0.0,0.0,0.0,0.0,0.0,0.0,0.0,0.0,0.0,0.0,0.0,0.0,0.0,0.0,0.0,0.0,0.0,0.0,0.0,0.0,0.0,0.0,0.0,0.0,0.0,0.0,0.0,0.0,0.0,0.0,0.0,0.0,0.0,0.0,0.0,0.0,0.0,0.0,0.0,0.0,0.0,0.0,0.0,0.0,0.0,0.0,0.0,0.0,0.0,0.0,0.0,0.0,0.0,0.0,0.0,0.0,0.0,0.0,0.0,0.0,0.0,0.0,0.0,0.0,0.0,0.0,0.0,0.0,0.0,0.0,0.0,0.0,0.0,0.0,0.0,0.0,0.0,0.0,0.0,0.0,0.0,0.0,0.0,0.0,0.0,0.0,0.0,0.0,0.0,0.0,0.0,0.0,0.0,0.0,0.0,0.0,0.0,0.0,0.0,0.0,0.0,0.0,0.0,0.0,0.0,0.0,0.0,0.0,0.0,0.0,0.0,0.0,0.0,0.0,0.0,0.0,0.0,0.0,0.0,0.0,0.0,0.0,0.0,0.0,0.0,0.0,0.0,0.0,0.0,0.0,0.0,0.0,0.0,0.0,0.0,0.0,0.0,0.0,0.0,0.0,0.0,0.0,0.0,0.0,0.0,0.0,0.0,0.0,0.0,0.0,0.0,0.0,0.0,0.0,0.0,0.0,0.0,0.0,0.0,0.0,0.0,0.0,0.0,0.0,0.0,0.0,0.0,0.0,0.0,0.0,0.0,0.0,0.0,0.0,0.0,0.0,0.0,0.0,0.0,0.0,0.0,0.0,0.0,0.0,0.0,0.0,0.0,0.0,0.0,0.0,0.0,0.0,0.0,0.0,0.0,0.0,0.0,0.0,0.0,0.0,0.0,0.0,0.0,0.0,0.0,0.0,0.0,0.0,0.0,0.0,0.0,0.0,0.0,0.0,0.0,0.0,0.0,0.0,0.0,0.0,0.0,0.0,0.0,0.0,0.0,0.0,0.0,0.0,0.0,0.0,0.0,0.0,0.0,0.0,0.0,0.0,0.0,0.0,0.0,0.0,0.0,0.0,0.0,0.0,0.0,0.0,0.0,0.0,0.0,0.0,0.0,0.0,0.0,0.0,0.0,0.0,0.0,0.0,0.0,0.0,0.0,0.0,0.0,0.0,0.0,0.0,0.0,0.0,0.0,0.0,0.0,0.0,0.0,0.0,0.0,0.0,0.0,0.0,0.0,0.0,0.0,0.0,0.0,0.0,0.0,0.0,0.0,0.0,0.0,0.0,0.0,0.0,0.0,0.0,0.0,0.0,0.0,0.0,0.0,0.0,0.0,0.0,0.0,0.0,0.0,0.0,0.0,0.0,0.0,0.0,0.0,0.0,0.0,0.0,0.0,0.0,0.0,0.0,0.0,0.0,0.0,0.0,0.0,0.0,0.0,0.0,0.0,0.0,0.0,0.0,0.0,0.0,0.0,0.0,0.0,0.0,0.0,0.0,0.0,0.0,0.0,0.0,0.0,0.0,0.0,0.0,0.0,0.0,0.0,0.0,0.0,0.0,0.0,0.0,0.0,0.0,0.0,0.0,0.0,0.0,0.0,0.0,0.0,0.0,0.0,0.0,0.0,0.0,0.0,0.0,0.0,0.0,0.0,0.0,0.0,0.0,0.0,0.0,0.0,0.0,0.0,0.0,0.0,0.0,0.0,0.0,0.0,0.0,0.0,0.0,0.0,0.0,0.0,0.0,0.0,0.0,0.0,0.0,0.0,0.0,0.0,0.0,0.0,0.0,0.0,0.0,0.0,0.0,0.0,0.0,0.0,0.0,0.0,0.0,0.0,0.0,0.0,0.0,0.0,0.0,0.0,0.0,0.0,0.0,0.0,0.0,0.0,0.0,0.0,0.0,0.0,0.0,0.0,0.0,0.0,0.0,0.0,0.0,0.0,0.0,0.0,0.0,0.0,0.0,0.0,0.0,0.0,0.0,0.0,0.0,0.0,0.0,0.0,0.0,0.0,0.0,0.0,0.0,0.0,0.0,0.0,0.0,0.0,0.0,0.0,0.0,0.0,0.0,0.0,0.0,0.0,0.0,0.0,0.0,0.0,0.0,0.0,0.0,0.0,0.0,0.0,0.0,0.0,0.0,0.0,0.0,0.0,0.0,0.0,0.0,0.0,0.0,0.0,0.0,0.0,0.0,0.0,0.0,0.0,0.0,0.0,0.0,0.0,0.0,0.0,0.0,0.0,0.0,0.0,0.0,0.0,0.0,0.0,0.0,0.0,0.0,0.0,0.0,0.0,0.0,0.0,0.0,0.0,0.0,0.0,0.0,0.0,0.0,0.0,0.0,0.0,0.0,0.0,0.0,0.0,0.0,0.0,0.0,0.0,0.0,0.0,0.0,0.0,0.0,0.0,0.0,0.0,0.0,0.0,0.0,0.0,0.0,0.0,0.0,0.0,0.0,0.0,0.0,0.0,0.0,0.0,0.0,0.0,0.0,0.0,0.0,0.0,0.0,0.0,0.0,0.0,0.0,0.0,0.0,0.0,0.0,0.0,0.0,0.0,0.0,0.0,0.0,0.0,0.0,0.0,0.0,0.0,0.0,0.0,0.0,0.0,0.0,0.0,0.0,0.0,0.0,0.0,0.0,0.0,0.0,0.0,0.0,0.0,0.0,0.0,0.0,0.0,0.0,0.0,0.0,0.0,0.0,0.0,0.0,0.0,0.0,0.0,0.0,0.0,0.0,0.0,0.0,0.0,0.0,0.0,0.0,0.0,0.0,0.0,0.0,0.0,0.0,0.0,0.0,0.0,0.0,0.0,0.0,0.0,0.0,0.0,0.0,0.0,0.0,0.0,0.0,0.0,0.0,0.0,0.0,0.0,0.0,0.0,0.0,0.0,0.0,0.0,0.0,0.0,0.0,0.0,0.0,0.0,0.0,0.0,0.0,0.0,0.0,0.0,0.0,0.0,0.0,0.0,0.0,0.0,0.0,0.0,0.0,0.0,0.0,0.0,0.0,0.0,0.0,0.0,0.0,0.0,0.0,0.0,0.0,0.0,0.0,0.0,0.0,0.0,0.0,0.0,0.0,0.0,0.0,0.0,0.0,0.0,0.0,0.0,0.0,0.0,0.0,0.0,0.0,0.0,0.0,0.0,0.0,0.0,0.0,0.0,0.0,0.0,0.0,0.0,0.0,0.0,0.0,0.0,0.0,0.0,0.0,0.0,0.0,0.0,0.0,0.0,0.0,0.0,0.0,0.0,0.0,0.0,0.0,0.0,0.0,0.0,0.0,0.0,0.0,0.0,0.0,0.0,0.0,0.0,0.0,0.0,0.0,0.0,0.0,0.0,0.0,0.0,0.0,0.0,0.0,0.0,0.0,0.0,0.0,0.0,0.0,0.0,0.0,0.0,0.0,0.0,0.0,0.0,0.0,0.0,0.0,0.0,0.0,0.0,0.0,0.0,0.0,0.0,0.0,0.0,0.0,0.0,0.0,0.0,0.0,0.0,0.0,0.0,0.0,0.0,0.0,0.0,0.0,0.0,0.0,0.0,0.0,0.0,0.0,0.0,0.0,0.0,0.0,0.0,0.0,0.0,0.0,0.0,0.0,0.0,0.0,0.0,0.0,0.0,0.0,0.0,0.0,0.0,0.0,0.0,0.0,0.0,0.0,0.0,0.0,0.0,0.0,0.0,0.0,0.0,0.0,0.0,0.0,0.0,0.0,0.0,0.0,0.0,0.0,0.0,0.0,0.0,0.0,0.0,0.0,0.0,0.0,0.0,0.0,0.0,0.0,0.0,0.0,0.0,0.0,0.0,0.0,0.0,0.0,0.0,0.0,0.0,0.0,0.0,0.0,0.0,0.0,0.0,0.0,0.0,0.0,0.0,0.0,0.0,0.0,0.0,0.0,0.0,0.0,0.0,0.0,0.0,0.0,0.0,0.0,0.0,0.0,0.0,0.0,0.0,0.0,0.0,0.0,0.0,0.0,0.0,0.0,0.0,0.0,0.0,0.0,0.0,0.0,0.0,0.0,0.0,0.0,0.0,0.0,0.0,0.0,0.0,0.0,0.0,0.0,0.0,0.0,0.0,0.0,0.0,0.0,0.0,0.0,0.0,0.0,0.0,0.0,0.0,0.0,0.0,0.0,0.0,0.0,0.0,0.0,0.0,0.0,0.0,0.0,0.0,0.0,0.0,0.0,0.0,0.0,0.0,0.0,0.0,0.0,0.0,0.0,0.0,0.0,0.0,0.0,0.0,0.0,0.0,0.0,0.0,0.0,0.0,0.0,0.0,0.0,0.0,0.0,0.0,0.0,0.0,0.0,0.0,0.0,0.0,0.0,0.0,0.0,0.0,0.0,0.0,0.0,0.0,0.0,0.0,0.0,0.0,0.0,0.0,0.0,0.0,0.0,0.0,0.0,0.0,0.0,0.0,0.0,0.0,0.0,0.0,0.0,0.0,0.0,0.0,0.0,0.0,0.0,0.0,0.0,0.0,0.0,0.0,0.0,0.0,0.0,0.0,0.0,0.0,0.0,0.0,0.0,0.0,0.0,0.0,0.0,0.0,0.0,0.0,0.0,0.0,0.0,0.0,0.0,0.0,0.0,0.0,0.0,0.0,0.0,0.0,0.0,0.0,0.0,0.0,0.0,0.0,0.0,0.0,0.0,0.0,0.0,0.0,0.0,0.0,0.0,0.0,0.0,0.0,0.0,0.0,0.0,0.0,0.0,0.0,0.0,0.0,0.0,0.0,0.0,0.0,0.0,0.0,0.0,0.0,0.0,0.0,0.0,0.0,0.0,0.0,0.0,0.0,0.0,0.0,0.0,0.0,0.0,0.0,0.0,0.0,0.0,0.0,0.0,0.0,0.0,0.0,0.0,0.0,0.0,0.0,0.0,0.0,0.0,0.0,0.0,0.0,0.0,0.0,0.0,0.0,0.0,0.0,0.0,0.0,0.0,0.0,0.0,0.0,0.0,0.0,0.0,0.0,0.0,0.0,0.0,0.0,0.0,0.0,0.0,0.0,0.0,0.0,0.0,0.0,0.0,0.0,0.0,0.0,0.0,0.0,0.0,0.0,0.0,0.0,0.0,0.0,0.0,0.0,0.0,0.0,0.0,0.0,0.0,0.0,0.0,0.0,0.0,0.0,0.0,0.0,0.0,0.0,0.0,0.0,0.0,0.0,0.0,0.0,0.0,0.0,0.0,0.0,0.0,0.0,0.0,0.0,0.0,0.0,0.0,0.0,0.0,0.0,0.0,0.0,0.0,0.0,0.0,0.0,0.0,0.0,0.0,0.0,0.0,0.0,0.0,0.0,0.0,0.0,0.0,0.0,0.0,0.0,0.0,0.0,0.0,0.0,0.0,0.0,0.0,0.0,0.0,0.0,0.0,0.0,0.0,0.0,0.0,0.0,0.0,0.0,0.0,0.0,0.0,0.0,0.0,0.0,0.0,0.0,0.0,0.0,0.0,0.0,0.0,0.0,0.0,0.0,0.0,0.0,0.0,0.0,0.0,0.0,0.0,0.0,0.0,0.0,0.0,0.0,0.0,0.0,0.0,0.0,0.0,0.0,0.0,0.0,0.0,0.0,0.0,0.0,0.0,0.0,0.0,0.0,0.0,0.0,0.0,0.0,0.0,0.0,0.0,0.0,0.0,0.0,0.0,0.0,0.0,0.0,0.0,0.0,0.0,0.0,0.0,0.0,0.0,0.0,0.0,0.0,0.0,0.0,0.0,0.0,0.0,0.0,0.0,0.0,0.0,0.0,0.0,0.0,0.0,0.0,0.0,0.0,0.0,0.0,0.0,0.0,0.0,0.0,0.0,0.0,0.0,0.0,0.0,0.0,0.0,0.0,0.0,0.0,0.0,0.0,0.0,0.0,0.0,0.0,0.0,0.0,0.0,0.0,0.0,0.0,0.0,0.0,0.0,0.0,0.0,0.0,0.0,0.0,0.0,0.0,0.0,0.0,0.0,0.0,0.3353,0.3279,0.0,0.0,0.0,0.0,0.0,0.0,0.0,0.0,0.0,0.0,0.0,0.0,0.0,0.0,0.0,0.0,0.0,0.0,0.0,0.0,0.0,0.0,0.0,0.5521,0.5175,0.5119,0.4654,0.4223,0.3865,0.0,0.0,0.0,0.0,0.0,0.2785,0.2727,0.2834,0.3127,0.2823,0.2892,0.333,0.3482,0.3734,0.4102,0.0,0.0,0.0,0.0,0.0,0.0,0.0,0.0,0.0,0.0,0.0,0.0,0.0,0.0,0.0,0.0,0.0,0.0,0.0,0.0,0.0,0.0,0.0,0.0,0.0,0.0,0.0,0.0,0.0,0.0,0.0,0.0,0.0,0.0,0.0,0.0,0.0,0.0,0.0,0.0,0.0,0.0,0.0,0.0,0.0,0.0,0.0,0.0,0.0,0.0,0.0,0.0,0.0,0.0,0.0,0.0,0.0,0.0,0.0,0.0,0.0,0.0,0.0,0.0,0.0,0.0,0.0,0.0,0.0,0.0,0.4102,0.3956,0.0,0.0,0.0,0.0,0.0,0.0,0.0,0.0,0.0,0.0,0.0,0.0,0.0,0.0,0.0,0.0,0.0,0.0,0.0,0.0,0.0,0.528,0.6402,0.5853,0.5537,0.5856,0.5413,0.4839,0.4178,0.4059,0.3793,0.329,0.3156,0.3118,0.3175,0.3151,0.3417,0.4012,0.3911,0.3992,0.4222,0.5073,0.5383,0.5227,0.0,0.0,0.0,0.0,0.0,0.0,0.0,0.0,0.0,0.0,0.0,0.0,0.0,0.0,0.0,0.0,0.0,0.0,0.0,0.0,0.0,0.0,0.0,0.0,0.0,0.0,0.0,0.0,0.0,0.0,0.0,0.0,0.0,0.0,0.0,0.0,0.0,0.0,0.0,0.0,0.0,0.0,0.0,0.0,0.0,0.0,0.0,0.0,0.0,0.0,0.0,0.0,0.0,0.0,0.0,0.0,0.0,0.0,0.0,0.0,0.0,0.0,0.0,0.0,0.5855,0.5874,0.5985,0.6252,0.6177,0.5753,0.4895,0.4768,0.516,0.4781,0.0,0.0,0.0,0.0,0.0,0.0,0.0,0.0,0.0,0.0,0.0,0.0,0.0,0.0,0.0,0.0,0.0,0.0,0.0,0.5679,0.6191,0.5745,0.5508,0.5784,0.5438,0.5052,0.471,0.4516,0.4161,0.3565,0.3526,0.3637,0.3864,0.3751,0.4077,0.4847,0.5443,0.5493,0.5083,0.6612,0.7137,0.6773,0.6417,0.0,0.0,0.0,0.0,0.0,0.0,0.0,0.0,0.0,0.0,0.0,0.0,0.0,0.0,0.0,0.0,0.0,0.0,0.0,0.0,0.0,0.0,0.0,0.0,0.0,0.0,0.0,0.0,0.0,0.0,0.0,0.0,0.0,0.0,0.0,0.0,0.0,0.0,0.0,0.0,0.0,0.0,0.0,0.5373,0.5181,0.0,0.0,0.0,0.0,0.0,0.0,0.0,0.0,0.0,0.0,0.0,0.0,0.0,0.6152,0.6213,0.6609,0.6581,0.6079,0.6459,0.6363,0.5832,0.5921,0.6057,0.6185,0.5911,0.0,0.6237,0.575,0.0,0.0,0.0,0.0,0.0,0.0,0.0,0.0,0.0,0.0,0.0,0.0,0.0,0.0,0.0,0.0,0.0,0.0,0.0,0.0,0.0,0.699,0.6881,0.6923,0.6764,0.625,0.5263,0.5222,0.4901,0.4134,0.4248,0.4419,0.461,0.4828,0.5184,0.5725,0.6234,0.6397,0.623,0.7307,0.786,0.7945,0.8176,0.7958,0.7389,0.6905,0.0,0.0,0.0,0.0,0.0,0.0,0.0,0.0,0.0,0.0,0.0,0.0,0.0,0.0,0.0,0.0,0.0,0.0,0.0,0.0,0.0,0.0,0.0,0.0,0.0,0.0,0.0,0.0,0.0,0.0,0.0,0.0,0.0,0.0,0.0,0.0,0.0,0.0,0.0,0.6546,0.6901,0.6182,0.672,0.6879,0.0,0.0,0.0,0.0,0.0,0.0,0.0,0.0,0.0,0.6548,0.6852,0.6929,0.6726,0.7086,0.7189,0.7068,0.7128,0.6997,0.6701,0.6894,0.6839,0.6635,0.6663,0.689,0.7184,0.6502,0.6248,0.6269,0.0,0.0,0.0,0.0,0.6073,0.6374,0.0,0.0,0.0,0.0,0.0,0.0,0.0,0.0,0.0,0.0,0.0,0.0,0.7884,0.7904,0.7824,0.7736,0.7632,0.7016,0.5683,0.5725,0.5468,0.474,0.4944,0.5214,0.5509,0.6056,0.636,0.6386,0.7021,0.7315,0.7272,0.807,0.8566,0.8863,0.9677,0.947,0.8458,0.8189,0.7825,0.0,0.0,0.0,0.0,0.0,0.0,0.0,0.0,0.0,0.0,0.0,0.0,0.0,0.0,0.0,0.0,0.0,0.0,0.0,0.0,0.0,0.0,0.0,0.0,0.0,0.0,0.0,0.0,0.0,0.0,0.0,0.0,0.0,0.0,0.0,0.0,0.0,0.0,0.7762,0.8314,0.7349,0.8109,0.8316,0.0,0.0,0.0,0.0,0.0,0.0,0.78,0.7667,0.7508,0.735,0.7554,0.7518,0.7214,0.7419,0.7637,0.7865,0.7533,0.7413,0.7492,0.7577,0.7383,0.6973,0.7195,0.7455,0.7664,0.7034,0.6716,0.6651,0.6654,0.6736,0.6852,0.6763,0.6705,0.6798,0.0,0.0,0.0,0.0,0.0,0.0,0.0,0.0,0.0,0.0,0.0,0.7769,0.789,0.7671,0.7532,0.7515,0.7177,0.6649,0.5923,0.5827,0.5646,0.5282,0.5455,0.589,0.6605,0.7379,0.7391,0.659,0.807,0.8494,0.7968,0.9281,0.9734,0.9495,1.0372,1.0468,0.997,0.9779,0.9661,0.9569,0.0,0.0,0.0,0.0,0.0,0.0,0.0,0.0,0.0,0.0,0.0,0.0,0.0,0.0,0.0,0.0,0.0,0.0,0.0,0.0,0.0,0.0,0.0,0.0,0.0,0.0,0.0,0.0,0.0,0.0,0.0,0.0,0.0,0.0,0.0,0.0,0.0,0.0,0.0,0.8757,0.8867,0.0,0.0,0.0,0.0,0.8715,0.863,0.8654,0.8828,0.8533,0.8347,0.8315,0.7965,0.7791,0.7753,0.7599,0.7659,0.8,0.7596,0.7487,0.7671,0.7306,0.7143,0.718,0.7399,0.7492,0.7512,0.7273,0.7469,0.7901,0.7713,0.7702,0.7817,0.7683,0.7931,0.8374,0.0,0.0,0.0,0.0,0.0,0.5349,0.5421,0.6001,0.6485,0.6592,0.7375,0.8037,0.832,0.8459,0.8402,0.8099,0.7872,0.7296,0.6287,0.6608,0.6682,0.6344,0.6978,0.7488,0.7791,0.7736,0.7769,0.789,0.8306,0.8706,0.9108,0.9721,1.0063,1.024,1.0718,1.0999,1.1119,1.0727,1.0309,0.9814,0.9363,0.8666,0.0,0.0,0.0,0.0,0.0,0.0,0.0,0.0,0.0,0.0,0.0,0.0,0.0,0.0,0.0,0.0,0.0,0.0,0.0,0.0,0.0,0.0,0.0,0.0,0.0,0.0,0.0,0.0,0.0,0.0,0.0,0.0,0.0,0.0,0.0,0.0,0.0,0.9841,1.0314,0.0,0.9945,1.0208,1.0247,0.9868,0.9863,0.9739,0.9379,0.8973,0.8851,0.898,0.8716,0.8505,0.8395,0.8315,0.8318,0.8392,0.7967,0.7837,0.793,0.7507,0.7257,0.7215,0.7291,0.7463,0.7685,0.7597,0.7779,0.807,0.814,0.8274,0.8398,0.8369,0.8467,0.8677,0.0,0.0,0.0,0.0,0.0,0.5596,0.5566,0.6199,0.6734,0.6922,0.7768,0.8513,0.8888,0.894,0.8818,0.8481,0.7963,0.7356,0.6615,0.7,0.7278,0.7302,0.8112,0.8586,0.8608,0.8204,0.8274,0.8841,0.8857,0.9243,0.9944,1.0142,1.0394,1.0718,1.0935,1.1198,1.1461,1.1462,1.1111,1.0481,1.0074,0.9433,0.8709,0.0,0.0,0.0,0.0,0.0,0.0,0.0,0.0,0.0,0.0,0.0,0.0,0.0,0.0,0.0,0.0,0.0,0.0,0.0,0.0,0.0,0.0,0.0,0.0,0.0,0.0,0.0,0.0,0.0,0.0,0.0,0.0,0.0,0.0,0.0,1.1472,1.1057,1.1433,1.1575,1.1166,1.1252,1.1194,1.0836,1.0605,1.0324,0.9942,0.9548,0.9344,0.9404,0.921,0.9034,0.88,0.8723,0.8695,0.8747,0.8392,0.8296,0.8388,0.7934,0.7644,0.7492,0.7504,0.7685,0.8016,0.8069,0.8277,0.851,0.8505,0.8734,0.903,0.8926,0.8872,0.8939,0.0,0.0,0.0,0.0,0.0,0.5808,0.5896,0.6649,0.7296,0.7549,0.8473,0.921,0.9515,0.8976,0.8594,0.8585,0.7373,0.6708,0.6925,0.7,0.7377,0.815,0.876,0.9059,0.9021,0.8865,0.8958,0.9295,0.9768,1.0141,1.0411,1.0603,1.0762,1.0899,1.1045,1.1073,1.1069,1.1985,1.2122,1.1658,1.0872,1.0766,1.0948,0.0,0.0,0.0,0.0,0.0,0.0,0.0,0.0,0.0,0.0,0.0,0.0,0.0,0.0,0.0,0.0,0.0,0.0,0.0,0.0,0.0,0.0,0.0,0.0,0.0,0.0,0.0,0.0,0.0,0.0,0.0,0.0,0.0,1.2494,1.2375,1.2379,1.241,1.2186,1.1998,1.1937,1.1508,1.1347,1.1582,1.0835,1.0433,1.0617,1.0249,0.9896,0.9665,0.9515,0.9301,0.9019,0.8814,0.8824,0.901,0.8811,0.8811,0.8979,0.859,0.8299,0.8101,0.8112,0.8225,0.846,0.8646,0.8956,0.9304,0.8861,0.9135,0.9654,0.9402,0.9297,0.9296,0.0,0.0,0.0,0.4832,0.5216,0.5631,0.5996,0.6831,0.7375,0.7257,0.8447,0.9007,0.8231,0.855,0.8591,0.8004,0.739,0.7206,0.7611,0.7738,0.8389,0.9705,0.9158,0.8987,0.9349,0.8985,0.8909,0.9161,0.9765,1.0204,1.0474,1.0573,1.078,1.104,1.0926,1.1113,1.1511,1.1632,1.1979,1.2394,1.2033,1.1474,1.084,0.0,0.0,0.0,0.0,0.0,0.0,0.0,0.0,0.0,0.0,0.0,0.0,0.0,0.0,0.0,0.0,0.0,0.0,0.0,0.0,0.0,0.0,0.0,0.0,0.0,0.0,0.0,0.0,0.0,0.0,0.0,1.296,1.3344,1.2976,1.3126,1.3199,1.2935,1.2902,1.2828,1.2633,1.2414,1.2174,1.1852,1.163,1.141,1.1112,1.0741,1.0536,1.0619,1.0232,0.9961,0.9733,0.9466,0.9366,0.9429,0.8773,0.8648,0.8986,0.8436,0.8216,0.8339,0.8453,0.8748,0.9157,0.9352,0.9677,0.9975,0.9371,0.9357,0.9632,0.9716,1.0099,1.0561,0.0,0.0,0.0,0.5224,0.5529,0.5981,0.67,0.7036,0.7334,0.7721,0.8408,0.8626,0.8048,0.8173,0.8114,0.7611,0.7349,0.7305,0.7546,0.8453,0.9446,1.048,0.9977,0.9805,1.0126,0.941,0.9297,0.9772,1.0217,1.0484,1.0591,1.088,1.1089,1.118,1.0973,1.112,1.1479,1.1519,1.1788,1.2224,1.2626,1.24,1.1784,1.1567,1.1384,1.12,1.075,1.0742,1.0918,1.0329,0.0,0.0,0.0,0.0,0.0,0.0,0.0,0.0,0.0,0.0,0.0,0.0,0.0,0.0,0.0,0.0,0.0,0.0,0.0,0.0,0.0,0.0,0.0,0.0,1.3929,1.3965,1.3768,1.3706,1.3697,1.37,1.3471,1.3306,1.3307,1.2911,1.2548,1.2252,1.1916,1.1628,1.149,1.1152,1.0972,1.1019,1.0742,1.0424,1.012,0.9876,0.9662,0.9479,0.9082,0.8973,0.9123,0.876,0.8684,0.8787,0.8828,0.9017,0.9368,0.949,0.9721,0.9987,0.0,0.0,0.0,0.0,1.0547,1.0764,0.0,0.0,0.0,0.5768,0.5968,0.6449,0.755,0.7271,0.7347,0.8495,0.8383,0.8243,0.8323,0.7834,0.7466,0.7343,0.7279,0.7308,0.7466,0.9169,1.038,1.0796,1.0835,1.0895,1.102,1.0009,0.9833,1.0597,1.0695,1.0711,1.0649,1.119,1.1395,1.1308,1.1151,1.1113,1.125,1.1549,1.162,1.1654,1.2763,1.3192,1.3091,1.2465,1.228,1.2371,1.2276,1.1969,1.1573,1.1395,0.0,0.0,0.0,0.0,0.0,0.0,0.0,0.0,0.0,0.0,0.0,0.0,0.0,0.0,0.0,0.0,0.0,0.0,0.0,0.0,0.0,0.0,0.0,0.0,1.5129,1.4757,1.4676,1.421,1.4044,1.4477,1.4005,1.37,1.3926,1.3216,1.275,1.2729,1.1983,1.1606,1.182,1.157,0.0,0.0,0.0,1.0809,1.0424,1.0144,0.9794,0.9474,0.9527,0.9517,0.939,0.9321,0.9339,0.9386,0.916,0.921,0.9476,0.9434,0.9554,0.9771,1.0169,1.0595,1.0975,1.1217,1.0933,1.057,0.0,0.0,0.4954,0.5276,0.5368,0.579,0.6984,0.7497,0.7876,0.8171,0.858,0.8429,0.7404,0.7415,0.7345,0.6949,0.7286,0.8157,0.967,0.9934,1.0477,1.1464,1.0453,1.0244,1.1052,1.0293,0.9911,0.9966,0.9885,0.9972,1.0228,1.0388,1.084,1.146,1.1423,1.1415,1.1448,1.1497,1.1668,1.1955,1.2499,1.279,1.2932,1.3313,1.346,1.3387,1.2698,1.2609,1.2728,1.1887,1.1597,1.1474,1.0888,0.0,0.0,0.0,0.0,0.0,0.0,0.0,0.0,0.0,0.0,0.0,0.0,0.0,0.0,0.0,0.0,0.0,0.0,0.0,0.0,1.49,1.5092,1.5254,1.517,1.5025,1.4833,1.4675,1.4548,1.4414,1.4302,1.3814,1.3377,1.3052,1.2832,1.2675,1.2499,1.2287,1.2159,1.2122,1.1563,1.1198,1.1111,1.0384,1.0151,1.0403,0.9707,0.0,1.0092,0.9535,0.9488,0.9855,0.9601,0.9846,1.0429,1.021,1.0336,1.064,1.059,1.0611,1.0785,1.1504,1.1781,1.1854,0.0,0.4544,0.4786,0.5183,0.531,0.5857,0.736,0.7654,0.7894,0.8438,0.8475,0.8075,0.7058,0.7011,0.6976,0.6813,0.7253,0.8527,1.0852,1.0126,1.0108,1.1256,1.053,1.0207,1.043,0.9981,0.981,0.9901,0.9866,1.0094,1.0554,1.0968,1.1438,1.1938,1.1847,1.1767,1.1704,1.1549,1.154,1.1664,1.2401,1.2679,1.2745,1.3582,1.3892,1.3836,1.3408,1.3226,1.31,1.2381,1.2055,1.1843,1.1119,1.1062,1.1149,0.0,0.0,0.0,0.0,0.0,0.0,0.0,0.0,0.0,0.0,0.0,0.0,0.0,0.0,1.4887,1.5181,0.0,1.5849,1.5941,1.5901,1.5748,1.5474,1.552,1.5416,1.5109,1.4848,1.465,1.4566,1.4026,1.3561,1.3264,1.3052,1.2833,1.2705,1.2491,1.2406,1.2406,1.1929,1.1542,1.1284,1.0757,1.0537,1.0687,1.0192,1.0156,1.0475,1.0167,1.0124,1.0351,1.0228,1.0368,1.0674,1.0396,1.0408,1.0611,1.063,1.0846,1.118,1.1712,1.1875,1.1903,0.0,0.0,0.4684,0.5217,0.5377,0.601,0.7709,0.7655,0.7729,0.8603,0.8213,0.7652,0.7025,0.6792,0.6831,0.718,0.7648,0.8954,0.0,1.0343,0.9993,1.0847,1.0745,1.0469,1.004,0.9818,0.9879,1.0239,1.0146,1.0427,1.1057,1.1644,1.2093,1.2413,1.224,1.2084,1.1945,1.1686,1.1466,1.1383,1.2397,1.2722,1.2669,1.3681,1.3956,1.3871,1.3799,1.3491,1.307,1.2645,1.2353,1.1998,1.1141,1.1163,1.147,1.1261,1.1634,0.0,0.0,0.0,0.0,0.0,0.0,0.0,0.0,0.0,1.4507,1.4901,1.5443,1.6002,1.6679,1.6688,1.6697,1.6985,1.6623,1.6124,1.5667,1.5787,1.5784,1.5308,1.5004,1.4859,1.4859,1.423,1.373,1.3568,1.3137,1.2875,1.2833,1.2662,1.2577,1.2577,1.2314,1.1972,1.1585,1.1174,1.0977,1.0941,1.0743,1.0754,1.0941,1.0856,1.0816,1.0814,1.0814,1.0771,1.0674,1.0534,1.0479,1.0418,1.0696,1.1155,1.1676,1.1837,1.1671,1.1531,0.0,0.0,0.0,0.5183,0.5272,0.5657,0.6933,0.7334,0.7618,0.7976,0.7883,0.7646,0.7212,0.7047,0.7417,0.857,0.9155,1.0019,1.1338,1.1206,1.1013,1.0899,1.0878,1.0862,1.0876,1.0606,1.0669,1.1064,1.0426,1.0476,1.1177,1.1251,1.1722,1.249,1.2401,1.2294,1.2144,1.1945,1.1778,1.1714,1.2489,1.2816,1.2956,1.3843,1.3836,1.3351,1.3108,1.2957,1.2776,1.2304,1.2101,1.187,1.1064,1.1332,1.1791,1.1062,0.0,1.2789,1.2871,1.3588,1.4626,1.5931,1.5348,1.4662,0.0,0.0,1.5471,1.5644,1.6345,1.6754,1.62,1.6534,1.6774,1.6452,1.6275,1.6078,1.566,1.587,1.5746,1.487,1.5098,1.5311,1.5311,1.4734,1.4237,1.4039,1.3737,1.3519,1.3307,1.3307,1.3307,1.3307,1.2833,1.2619,1.2528,1.1685,1.1441,1.1762,1.109,1.1112,1.1756,1.1334,1.1203,1.1241,1.1241,1.1025,1.0727,1.1042,1.1038,1.0852,1.1117,1.1526,1.194,1.1775,1.1537,1.1399,0.0,0.0,0.0,0.5177,0.5466,0.5862,0.6646,0.7273,0.7714,0.7833,0.7682,0.7496,0.7344,0.7305,0.7735,0.8805,0.9024,0.0,1.1358,1.0628,1.0474,1.1232,1.069,1.0342,1.0241,1.0406,1.0633,1.0965,1.0731,1.1175,1.2247,1.1887,1.2229,1.3113,1.2669,1.2473,1.2473,1.2156,1.1986,1.1974,1.2441,1.2742,1.2942,1.3252,1.3299,1.3216,1.3496,1.3278,0.0,0.0,1.2446,1.2087,1.1294,1.1644,1.22,1.1435,1.2387,0.0,1.4701,1.5225,0.0,0.0,1.6347,1.6025,1.63,1.6292,1.6303,1.6441,1.6796,1.6916,1.6527,1.6785,1.6913,0.0,1.6674,1.6509,1.5858,1.6014,1.5887,1.518,1.5159,1.5045,1.4517,1.4242,1.3954,1.3649,1.3662,1.3603,1.3597,1.3483,1.3519,1.3808,1.3191,1.2858,1.281,1.2298,1.2121,1.2306,1.2048,1.206,1.2312,1.2022,1.1826,1.172,1.1527,1.1376,1.1249,1.1418,1.1231,1.0935,1.1191,1.1227,1.1258,1.1653,1.1828,1.1881,0.0,0.0,0.0,0.5232,0.5619,0.5977,0.6426,0.7061,0.7508,0.7566,0.7501,0.7449,0.7412,0.7677,0.8099,0.871,0.9037,0.0,0.0,1.035,1.024,1.1041,1.0523,1.0123,0.9892,1.0344,1.073,1.1051,1.1158,1.1755,1.2775,1.2535,1.2798,1.3448,1.3059,1.2866,1.2833,1.2705,1.262,1.2594,1.2919,1.3168,1.3331,1.3219,1.312,1.3137,1.3392,1.32,0.0,0.0,1.262,1.2447,1.1757,1.2054,1.2599,1.2254,1.3307,1.4896,1.62,0.0,0.0,1.7145,1.7181,1.6991,1.6749,1.6788,1.6835,1.6804,1.7021,1.7111,1.6796,1.6866,1.6888,1.6701,1.6756,1.6589,1.5803,1.5976,1.5929,1.5209,1.511,1.4782,1.3887,1.3913,1.3921,1.3743,1.3837,1.3931,1.3977,1.3857,1.3899,1.4265,1.3736,1.3383,1.3217,1.3022,1.2862,1.2807,1.2704,1.271,1.2779,1.2632,1.2462,1.2142,1.2056,1.192,1.171,1.192,1.1746,1.1321,1.1505,1.148,1.1341,1.1922,1.2026,1.1875,0.0,0.0,0.0,0.0,0.5557,0.5756,0.6147,0.6509,0.6807,0.6998,0.7362,0.7541,0.7421,0.8222,0.8665,0.8436,0.9724,1.0428,1.0146,1.0899,1.0951,1.0082,1.0511,1.066,1.039,1.0843,1.1266,1.166,1.1737,1.1927,1.2245,1.2927,1.321,1.3127,1.3648,1.3615,1.322,1.3801,1.3931,1.3791,1.4251,1.444,1.4413,1.4149,1.3662,1.2995,1.2177,0.0,0.0,1.2024,1.2343,1.2918,1.2481,1.2562,0.0,1.3611,1.4567,1.5607,0.0,0.0,1.6959,1.8074,1.7781,1.7118,1.6772,1.6999,1.7095,1.6461,1.7047,1.7448,1.6724,1.6625,1.6545,1.6353,1.6261,1.5983,1.5316,1.5785,1.5747,1.4582,1.488,1.484,0.0,1.426,1.4643,1.486,1.4724,1.4685,1.465,1.465,1.465,1.4692,1.4643,1.4475,1.4075,1.3809,1.3539,1.3266,1.2752,1.2785,1.3279,1.3144,1.2909,1.2585,1.2934,1.2662,1.2026,1.2747,1.2784,1.237,1.229,1.2595,1.3008,1.2742,1.1986,1.1087,0.0,0.0,0.0,0.0,0.0,0.5635,0.5728,0.6357,0.6782,0.6621,0.7418,0.0,0.0,0.0,0.0,0.0,0.9239,0.9844,1.0397,1.0749,1.1143,1.1652,1.1747,1.1849,1.1983,1.2194,1.2318,1.2358,1.2556,1.2983,1.3581,1.3471,1.3923,1.4801,1.4219,1.4252,1.4702,1.4467,1.4354,1.4326,1.4372,1.4231,1.4007,1.3649,1.3588,1.3631,0.0,0.0,0.0,1.2468,1.2541,1.2645,1.2514,1.2829,1.3567,1.5106,1.576,1.6261,0.0,0.0,1.7912,1.826,1.8295,1.8162,1.7833,1.757,1.7395,1.7432,1.7319,1.7183,1.703,1.672,1.6474,1.6484,1.6275,1.5928,1.5572,1.5739,1.5666,1.5179,1.5041,0.0,0.0,0.0,0.0,1.4399,1.4676,1.486,1.4943,1.4783,1.4824,1.5166,1.4464,1.4189,1.444,1.4011,1.3755,1.375,1.3207,1.3147,1.347,1.3284,1.3149,1.3119,1.3198,1.2958,1.2487,1.2681,1.2583,1.2338,1.2278,1.2407,1.2632,1.2498,1.2284,1.2141,0.0,0.0,0.0,0.0,0.0,0.0,0.0,0.0,0.0,0.0,0.0,0.0,0.0,0.0,0.0,0.0,0.0,0.9536,1.0024,0.0,1.092,1.152,1.1726,1.1952,1.2216,1.2418,1.2502,1.2476,1.2721,1.3179,1.3786,1.3697,1.4119,1.493,1.447,1.4516,1.4963,1.4893,1.4861,1.4905,1.5012,1.4912,1.4678,1.4498,1.4589,0.0,0.0,0.0,0.0,1.3065,1.3007,1.3094,1.306,1.3696,1.4653,1.5608,1.6277,1.6896,1.7759,1.8267,1.8574,1.848,1.8457,1.8357,1.7843,1.7367,1.7086,1.7225,1.7132,1.702,1.7,1.6704,1.6576,1.6775,1.6587,1.6283,1.5909,1.6079,1.6088,1.5662,1.5614,1.569,0.0,0.0,0.0,1.4824,1.514,1.5409,1.5567,1.5235,1.5184,1.5461,1.4798,1.4504,1.4645,1.4277,1.4063,1.395,1.3754,1.3627,1.3685,1.3574,1.3507,1.35,1.351,1.3289,1.2952,1.3063,1.3031,1.2864,1.266,1.2716,1.2914,1.2746,1.2733,1.2814,0.0,0.0,0.0,0.0,0.0,0.0,0.0,0.0,0.0,0.0,0.0,0.0,0.0,0.0,0.0,0.0,0.0,0.0,0.0,0.0,0.0,0.987,1.0605,1.1099,1.125,1.1656,1.1952,1.2148,1.2358,1.2627,1.2974,1.3611,1.3838,1.3731,1.4424,1.4523,1.4206,1.513,1.5496,1.5517,1.6135,1.6342,1.631,1.6515,0.0,0.0,0.0,0.0,0.0,1.3788,1.3723,1.4257,1.4148,1.5085,1.6126,1.5364,1.6216,1.7483,1.7618,1.8281,1.8881,1.8754,1.8295,1.7712,1.6921,1.6522,1.6271,1.6032,1.6505,1.6918,0.0,0.0,1.6756,1.7098,1.7156,1.69,1.6207,1.6739,1.6861,0.0,0.0,0.0,0.0,0.0,0.0,1.6198,1.6156,1.6203,1.6394,1.5982,1.5673,1.5591,1.5608,1.5329,1.4738,1.4738,1.4451,1.3937,1.4243,1.4235,1.3901,1.4043,1.3974,1.3787,1.3871,1.3746,1.3457,1.3902,1.4027,1.3858,1.3478,1.3573,1.3886,1.3477,1.324,1.3094,0.0,0.0,0.0,0.0,0.0,0.0,0.0,0.0,0.0,0.0,0.0,0.0,0.0,0.0,0.0,0.0,0.0,0.0,0.0,0.0,0.0,0.0,0.0,0.0,0.0,0.0,0.0,0.0,0.0,1.3319,1.3649,1.3967,1.4388,1.487,1.5278,1.5649,1.6,1.5955,1.6043,1.6225,0.0,1.6111,1.6044,0.0,0.0,0.0,0.0,0.0,0.0,0.0,0.0,0.0,0.0,1.6314,1.7085,1.696,1.7429,1.8103,1.8578,1.8892,1.8985,1.8776,1.8499,1.8066,1.7269,1.6343,1.5948,1.6948,1.6252,1.5833,0.0,0.0,0.0,1.6517,1.6342,0.0,1.6112,1.6785,0.0,1.6875,0.0,1.7621,1.7538,1.7843,0.0,1.7814,1.7191,1.673,1.6435,1.6154,1.5886,1.5591,1.5497,1.5281,1.4909,1.4909,1.482,1.4568,1.4494,1.4661,1.498,1.4463,1.444,1.4735,1.4391,1.4071,1.3776,1.3743,1.3784,1.3879,1.3507,1.3734,1.4255,1.3913,1.3821,1.3828,0.0,0.0,0.0,0.0,0.0,0.0,0.0,0.0,0.0,0.0,0.0,0.0,0.0,0.0,0.0,0.0,0.0,0.0,0.0,0.0,0.0,0.0,0.0,0.0,0.0,0.0,0.0,0.0,0.0,0.0,0.0,1.3861,1.4244,1.4822,1.5069,1.5432,1.5854,1.5651,0.0,0.0,0.0,0.0,0.0,0.0,0.0,0.0,0.0,0.0,0.0,0.0,0.0,1.6244,1.672,1.7282,1.7828,1.8166,0.0,1.8538,1.9182,1.9293,1.9153,1.8792,1.8259,1.7616,1.6736,1.5906,1.5511,1.6206,1.5735,0.0,1.6309,1.6009,0.0,0.0,0.0,0.0,1.6475,1.7081,1.7468,0.0,1.7798,0.0,1.8432,1.8579,1.865,1.8797,1.7894,1.7335,1.7294,1.6689,1.6294,1.6182,1.5919,1.5623,1.5221,1.5138,1.5122,1.5239,1.5046,1.5111,1.5421,1.4995,1.4862,1.5058,1.4765,1.4564,1.4413,1.4184,1.417,1.4312,1.4055,1.4235,1.4599,1.4537,1.4552,1.4643,0.0,0.0,0.0,0.0,0.0,0.0,0.0,0.0,0.0,0.0,0.714,0.0,0.0,0.0,0.0,0.0,0.0,0.0,0.0,0.0,0.0,0.0,0.0,0.0,0.0,0.0,0.0,0.0,0.0,0.0,0.0,0.0,0.0,0.0,0.0,0.0,0.0,0.0,0.0,0.0,0.0,0.0,0.0,0.0,0.0,0.0,0.0,0.0,0.0,0.0,1.7401,1.6823,1.7569,1.7997,1.8317,1.8811,1.8714,1.8627,1.9349,1.9403,1.9115,1.8632,1.7843,1.6923,1.5842,1.5355,1.5077,1.4885,0.0,1.5318,1.5318,1.5503,1.5821,1.6318,0.0,1.6806,1.6911,1.7404,1.7747,1.7641,1.8192,1.8761,1.9259,1.9334,1.9341,1.9341,1.8385,1.7983,1.8313,1.7343,1.6863,1.6942,1.6528,1.6088,1.5652,1.5478,1.5566,1.5913,1.5757,1.5696,1.5728,1.554,1.5397,1.5209,1.5026,1.5035,1.5126,1.4821,1.4806,1.4878,1.4775,1.4842,1.5021,1.5158,1.5365,1.5557,0.0,0.0,0.0,0.0,0.0,0.0,0.0,0.0,0.0,0.0,0.6425,0.7063,0.0,0.0,0.0,0.0,0.0,0.0,0.0,0.0,0.0,0.0,0.0,0.0,0.0,0.0,0.0,0.0,0.0,0.0,0.0,0.0,0.0,0.0,0.0,0.0,0.0,0.0,0.0,0.0,0.0,0.0,0.0,0.0,0.0,0.0,0.0,0.0,0.0,0.0,1.719,1.7763,1.8281,1.8404,1.8352,1.8297,1.799,1.7835,1.8511,1.8572,1.8271,1.7702,1.7615,1.7226,1.5519,1.494,0.0,0.0,1.4674,1.4385,1.6114,1.5619,1.5166,1.5747,1.6007,1.6229,1.6412,1.7223,1.7903,0.0,1.8919,1.9373,1.9321,1.9471,0.0,0.0,1.8922,1.8411,1.808,1.7554,1.7227,1.7147,1.6619,1.6334,1.6396,1.6387,1.6386,1.6463,1.6591,1.6736,1.6891,1.6187,1.6086,1.6362,1.5622,1.5319,1.5311,1.4988,1.4835,1.482,1.4797,1.5157,1.5673,1.5654,1.6008,1.6486,0.0,0.0,0.0,0.0,0.0,0.0,0.0,0.4486,0.4926,0.4983,0.5582,0.627,0.6955,0.6543,0.6466,0.0,0.0,0.0,0.0,0.0,0.0,0.0,0.0,0.0,0.0,0.0,0.0,0.0,0.0,0.0,0.0,0.0,0.0,0.0,0.0,0.0,0.0,0.0,0.0,0.0,0.0,0.0,0.0,0.0,0.0,0.0,0.0,0.0,0.0,0.0,1.7255,1.7577,1.8343,1.8408,1.8263,1.8533,1.8068,1.7641,1.8511,1.8364,1.7834,1.7417,1.719,1.6732,1.545,0.0,0.0,0.0,1.4796,1.4481,1.5334,1.4975,0.0,1.511,1.5053,1.5155,1.576,1.6245,0.0,1.7153,1.8055,1.874,0.0,1.927,1.9478,1.9597,1.9051,1.8652,1.8523,1.794,1.7538,1.7355,1.697,1.6757,1.6768,1.6632,1.6705,1.69,1.714,1.7199,1.7192,1.7086,1.7073,1.7078,1.6308,1.6085,1.6248,1.5655,1.5473,1.5549,1.5549,1.5968,1.6617,1.6507,1.7093,1.7859,0.0,0.0,0.0,0.0,0.0,0.0,0.0,0.3938,0.4387,0.4455,0.48,0.5391,0.6377,0.6303,0.6386,0.0,0.0,0.0,0.0,0.0,0.0,0.0,0.0,0.0,0.0,0.0,0.0,1.2365,0.0,0.0,0.0,0.0,0.0,0.0,0.0,0.0,0.0,0.0,0.0,0.0,0.0,0.0,0.0,0.0,0.0,0.0,0.0,0.0,0.0,0.0,1.6835,1.6632,1.7566,1.7785,1.7796,1.8286,1.7844,1.739,1.8275,1.8065,1.7551,1.7219,1.6798,1.6278,1.5512,1.5272,0.0,0.0,1.4869,1.471,1.4587,0.0,1.4465,0.0,1.4458,1.4556,1.5269,1.5458,1.5766,0.0,1.7351,0.0,1.8845,1.9206,0.0,1.9518,1.889,1.8594,1.8873,1.828,1.7849,1.7701,1.7469,1.7313,1.7141,1.6971,1.7092,1.7442,1.7532,1.7617,1.7645,1.7796,1.783,1.7692,1.6952,1.6757,1.6945,1.6488,1.6338,1.6446,1.6606,1.7162,1.78,1.7583,1.8219,1.9116,0.0,0.0,0.0,0.0,0.0,0.0,0.0,0.2978,0.3347,0.3671,0.4161,0.4804,0.5697,0.5826,0.6099,0.0,0.0,0.0,0.0,0.0,0.0,0.0,0.0,0.0,0.0,0.0,0.0,1.2228,1.2425,0.0,0.0,0.0,0.0,0.0,0.0,1.3467,0.0,0.0,0.0,0.0,0.0,0.0,0.0,0.0,0.0,0.0,0.0,0.0,0.0,0.0,0.0,1.4809,1.5362,1.6066,1.6665,1.6364,0.0,0.0,1.6927,1.7164,1.7224,1.6699,1.6611,1.6457,1.5657,0.0,1.5154,1.496,1.4518,1.4384,1.5008,1.4917,0.0,0.0,0.0,1.5272,1.53,1.5683,1.6439,1.7761,0.0,0.0,1.9173,1.9599,1.9706,1.9341,1.8446,1.8048,1.8416,1.8398,1.833,1.8332,1.8045,1.7932,1.7894,1.7883,1.7981,1.8192,1.8033,1.8329,1.8975,1.7924,1.7854,1.8439,1.7471,1.6846,1.6625,1.7349,1.7424,1.7178,1.7989,1.8676,1.9202,1.8983,1.9282,1.9824,0.0,0.0,0.0,0.0,0.0,0.0,0.2349,0.2473,0.2734,0.3223,0.3618,0.4186,0.5052,0.551,0.5992,0.6634,0.0,0.0,0.0,0.0,0.0,0.0,0.0,0.0,0.0,0.0,1.1338,1.1836,1.2282,0.0,0.0,0.0,0.0,0.0,0.0,1.3412,1.3581,0.0,0.0,0.0,0.0,0.0,0.0,0.0,0.0,0.0,0.0,0.0,0.0,0.0,0.0,0.0,1.4118,1.4747,0.0,0.0,1.5957,1.6041,1.6196,1.6261,1.6267,1.6175,1.6036,1.5817,1.5501,0.0,1.5367,1.5379,1.5148,1.5014,1.5222,1.5104,1.5017,0.0,0.0,0.0,1.5273,1.5338,1.5684,1.655,1.747,0.0,0.0,0.0,1.9121,1.8962,1.8691,1.8554,1.8563,1.8011,1.7973,1.8561,1.8256,1.8173,1.835,1.811,1.8096,1.8296,1.8471,1.8666,1.8824,1.8461,1.8545,1.89,1.8036,1.7932,1.8378,1.8471,1.8424,1.8313,1.8653,1.9015,1.9319,1.9106,1.9649,2.0469,0.0,0.0,0.0,0.0,0.0,0.1503,0.207,0.2137,0.2367,0.3015,0.3315,0.3791,0.4608,0.5184,0.5717,0.628,0.6311,0.0,0.0,0.0,0.0,0.0,0.0,0.0,0.0,0.0,1.0949,1.16,1.1904,1.231,0.0,0.0,1.2938,1.3107,0.0,0.0,0.0,0.0,0.0,0.0,0.0,0.0,0.0,0.0,0.0,0.0,0.0,0.0,0.0,0.0,0.0,0.0,0.0,0.0,0.0,0.0,1.5365,1.5534,1.5823,1.578,1.5722,1.602,1.6,1.582,0.0,0.0,1.5724,1.5659,1.5614,1.5536,1.5335,1.53,1.5314,0.0,0.0,1.4502,1.5439,1.5475,1.5682,0.0,0.0,1.7944,1.8277,1.841,1.8562,1.8953,1.8599,1.8545,1.8962,1.7899,1.7662,1.8493,1.8223,1.8177,1.8422,1.812,1.8144,1.8448,1.868,1.883,1.8959,1.8844,1.8991,1.934,1.8508,1.8639,1.9445,1.9358,1.9287,1.9268,1.9636,1.9823,1.9823,1.9841,2.0371,2.1051,0.0,0.0,0.0,0.0,0.0,0.0,0.1713,0.1918,0.226,0.2998,0.3284,0.3674,0.4415,0.4799,0.5205,0.5674,0.6375,0.0,0.0,0.0,0.0,0.0,0.0,0.0,0.0,0.0,1.0389,1.1601,1.1211,1.1651,1.2889,1.2436,1.2526,1.3089,0.0,0.0,0.0,0.0,0.0,0.0,0.0,0.0,0.0,0.0,0.0,0.0,0.0,0.0,0.0,0.0,0.0,0.0,0.0,0.0,0.0,0.0,1.4433,1.5053,1.5711,1.5806,1.5835,1.6444,1.6777,1.6828,0.0,0.0,1.6139,1.5613,1.5647,1.5703,1.5357,1.557,1.5645,1.5174,0.0,0.0,1.5949,1.6395,1.7084,0.0,0.0,1.8166,1.8835,1.8258,1.8297,1.9502,1.793,1.7702,1.9502,1.8276,1.7688,1.8081,1.8046,1.8018,1.8018,1.8008,1.8279,1.8808,1.8583,1.8951,1.9748,1.89,1.8975,1.9737,1.888,1.8731,1.915,1.9755,1.9909,1.992,2.1174,2.1424,2.1129,2.1583,2.1645,2.1502,0.0,0.0,0.0,0.0,0.0,0.0,0.0,0.1508,0.1725,0.2461,0.257,0.2906,0.3794,0.4278,0.4739,0.5248,0.5891,0.0,0.0,0.0,0.0,0.0,0.0,0.0,0.0,0.9419,1.006,1.0981,1.1226,1.1574,1.2009,1.2227,1.2413,1.2549,1.268,1.285,0.0,0.0,0.0,0.0,0.0,0.0,0.0,0.0,0.0,0.0,0.0,0.0,0.0,0.0,0.0,0.0,0.0,0.0,0.0,1.3797,1.4132,1.4403,1.4666,1.4265,1.3948,1.4697,1.4833,1.4742,1.4744,0.0,1.5521,1.4722,1.4886,1.506,1.4681,1.4853,1.5139,1.5474,1.5512,0.0,0.0,0.0,0.0,1.7273,1.7297,1.7284,0.0,1.7587,1.7694,1.7935,1.8082,1.8178,1.8362,1.8864,1.905,1.8901,1.86,1.8611,1.9037,1.8826,1.8942,1.9341,1.9407,1.9613,1.9872,1.991,2.0171,2.0545,2.0249,2.04,2.0838,2.0937,2.0793,2.0577,2.0937,2.098,2.0823,2.085,2.1222,2.1693,0.0,0.0,0.0,0.0,0.0,0.0,0.0,0.1459,0.1645,0.2122,0.2329,0.2631,0.3172,0.3727,0.422,0.4622,0.5361,0.0,0.0,0.0,0.0,0.0,0.0,0.0,0.8595,0.8945,0.9647,1.0748,1.0845,1.1183,1.1747,1.1915,1.1993,1.2018,1.233,1.2473,0.0,0.0,0.0,0.0,0.0,0.0,1.1212,0.0,0.0,0.0,0.0,0.0,0.0,0.0,0.0,0.0,0.0,0.0,0.0,0.0,1.3666,1.361,0.0,1.3487,1.3134,1.3789,1.4002,1.4082,0.0,0.0,1.5417,1.4571,1.4764,1.4928,1.4393,1.4576,1.5062,1.5815,1.572,0.0,0.0,0.0,0.0,1.6702,0.0,0.0,0.0,1.6895,1.7046,1.7177,1.7637,1.7934,1.8026,1.8754,1.9204,1.9259,1.8997,1.8949,1.9236,1.9085,1.9241,1.9704,1.9835,2.003,2.027,2.0445,2.0697,2.0973,2.0797,2.1006,0.0,2.1241,2.1063,2.0984,2.0929,2.0939,2.0935,2.0986,2.1376,2.1921,0.0,0.0,0.0,0.0,0.0,0.0,0.0,0.1632,0.1892,0.1997,0.2412,0.2701,0.2652,0.3267,0.3766,0.3924,0.4862,0.0,0.0,0.0,0.0,0.0,0.0,0.0,0.8261,0.8388,0.9207,1.0716,1.0192,1.0613,1.1899,1.1468,1.1324,1.1448,1.1804,1.1744,1.1335,1.1188,1.1244,1.1367,1.0802,1.0677,0.0,0.0,0.0,0.0,0.0,0.0,0.0,0.0,0.0,0.0,0.0,0.0,0.0,0.0,0.0,0.0,0.0,1.3296,1.3073,1.3439,1.3983,1.4444,1.4394,0.0,0.0,1.5028,1.5099,1.5098,1.4485,1.4654,1.5191,1.6127,1.5989,0.0,0.0,1.6786,0.0,0.0,1.6578,0.0,1.6517,1.6272,1.6393,1.7064,1.6839,1.7177,1.8276,1.8181,1.8434,1.9128,1.9203,1.914,1.8841,1.8875,1.9241,1.9966,1.9966,2.0336,2.0929,2.0643,2.0797,2.1174,2.0708,2.0852,2.1408,2.0947,2.0861,2.1086,2.1119,2.1213,2.139,2.1855,2.2072,2.2176,0.0,0.0,0.0,0.0,0.0,0.0,0.0,0.0,0.0,0.0,0.1984,0.2249,0.2971,0.3391,0.3785,0.0,0.0,0.0,0.0,0.0,0.0,0.0,0.0,0.0,0.7907,0.8092,0.8761,0.9971,1.0231,1.0573,1.1012,1.0839,1.0783,1.0814,1.0702,1.0733,1.0838,1.0561,1.0523,1.0649,1.0448,1.0202,0.0,0.0,0.0,0.0,1.0336,1.0551,0.0,0.0,0.0,0.0,0.0,0.0,0.0,0.0,1.2419,1.2147,1.2533,0.0,1.1868,1.1878,1.24,1.2975,0.0,0.0,0.0,0.0,0.0,1.4298,1.4943,1.4405,1.4329,1.5824,0.0,1.6386,1.6578,0.0,0.0,1.5147,1.5412,1.5868,1.6499,1.6307,1.6175,1.635,1.7062,1.7506,1.75,1.874,1.9199,1.8686,1.9421,1.9687,1.9417,1.9572,1.99,2.0453,2.0688,2.0969,2.1298,2.1735,2.1997,2.2057,2.1691,2.166,2.1761,2.128,2.1035,2.0989,2.1384,2.1598,2.173,2.2095,2.2366,2.2553,0.0,0.0,0.0,0.0,0.0,0.0,0.0,0.0,0.0,0.0,0.0,0.2074,0.2676,0.3002,0.0,0.0,0.0,0.0,0.0,0.0,0.0,0.0,0.0,0.6917,0.7425,0.7679,0.8329,0.9365,0.9788,0.9915,0.9731,0.9862,0.9738,0.9391,0.9312,0.9543,0.9992,0.9689,0.9561,0.9581,0.9736,0.0,0.0,0.0,0.0,0.0,0.9916,1.009,0.0,1.0909,1.0917,1.0785,0.0,0.0,0.0,0.0,1.1972,1.1902,1.1933,1.1964,1.1995,1.2095,1.2329,1.267,1.3204,0.0,0.0,0.0,0.0,0.0,1.4484,1.4349,0.0,0.0,1.6363,0.0,0.0,0.0,1.5413,1.4947,1.5172,1.5566,1.6035,1.5991,1.6,1.6096,1.6881,1.733,1.721,1.8263,1.88,1.8627,1.9256,1.9603,1.9615,1.9802,2.0194,2.0743,2.0924,2.1273,2.176,2.1978,2.2098,2.2134,2.1825,2.1636,2.1548,2.1305,2.1264,2.1375,2.1506,2.1913,2.239,2.2432,2.2623,2.2852,0.0,0.0,0.0,0.0,0.0,0.0,0.0,0.0,0.0,0.0,0.0,0.0,0.0,0.0,0.0,0.0,0.0,0.0,0.0,0.0,0.0,0.0,0.5967,0.6522,0.6984,0.7401,0.8044,0.8903,0.9239,0.9146,0.8687,0.8864,0.8535,0.7846,0.7902,0.835,0.8993,0.8616,0.8459,0.8511,0.8805,0.0,0.0,0.0,0.0,0.0,0.0,0.0,0.0,1.0249,1.0446,1.0548,1.0885,0.0,0.0,0.0,0.0,0.0,1.1645,1.1991,1.2424,1.2766,1.2862,1.3017,1.3593,0.0,0.0,0.0,0.0,0.0,0.0,1.4532,0.0,0.0,0.0,0.0,1.5486,1.5372,1.5236,1.4916,1.5094,1.5291,1.5365,1.5528,1.5738,1.5974,1.6515,1.6968,1.7201,1.7501,1.8012,1.8707,1.8975,1.9274,1.9638,1.9878,2.0291,2.0935,2.0967,2.1388,2.2094,2.1835,2.1763,2.1855,2.1533,2.1305,2.1233,2.1314,2.1523,2.1802,2.1744,2.2195,2.2917,2.2766,2.2834,2.3038,0.0,0.0,0.0,0.0,0.0,0.0,0.0,0.0,0.0,0.0,0.0,0.0,0.0,0.0,0.0,0.0,0.0,0.0,0.0,0.0,0.0,0.4738,0.5806,0.6585,0.6984,0.7726,0.8227,0.8501,0.911,0.9294,0.9102,0.8452,0.7816,0.714,0.6873,0.7287,0.8126,0.7228,0.7297,0.7985,0.7711,0.0,0.0,0.0,0.0,0.0,0.0,0.0,0.0,0.9985,0.9687,0.8886,1.0423,0.0,0.0,0.0,0.0,0.0,1.1981,1.2009,1.1601,1.1727,1.2708,1.3599,1.3427,0.0,0.0,0.0,0.0,0.0,0.0,0.0,1.4882,0.0,0.0,1.4811,0.0,0.0,1.3725,1.3911,1.3802,1.4006,1.4745,1.4858,1.5086,1.5556,1.6241,1.6821,1.7166,1.7501,1.791,1.8371,1.8841,1.9341,1.9835,2.0172,2.0593,2.1158,2.1273,2.1489,2.1784,2.171,2.171,2.1721,2.1394,2.1273,2.1391,2.1855,2.1735,2.1443,2.2639,2.274,2.2338,2.295,2.3121,2.3038,0.0,0.0,0.0,0.0,0.0,0.0,0.0,0.0,0.0,0.0,0.0,0.0,0.0,0.0,0.0,0.0,0.0,0.0,0.0,0.0,0.4056,0.4225,0.57,0.6632,0.6878,0.7389,0.7786,0.8023,0.8408,0.822,0.7514,0.6802,0.6282,0.5932,0.5937,0.6167,0.6546,0.651,0.6603,0.68,0.0,0.0,0.0,0.0,0.0,0.0,0.0,0.0,0.0,0.0,0.8886,0.8303,0.9539,0.0,0.0,0.0,0.0,0.0,1.0812,1.1555,1.1978,1.1469,1.2419,1.3463,1.3464,0.0,0.0,0.0,0.0,0.0,0.0,0.0,1.5097,1.6028,0.0,1.4994,1.4629,1.4332,1.4035,1.3624,1.3766,1.3916,1.3975,1.4163,1.4479,1.5044,1.5762,1.6369,1.6837,1.7348,1.7794,1.8303,1.8707,1.9126,1.9458,1.9917,2.0329,2.0756,2.0838,2.0974,2.1152,2.1325,2.1435,2.1526,2.1183,2.1175,2.1411,2.1603,2.1795,2.2086,2.264,2.2957,2.3084,2.3242,2.3224,2.315,0.0,0.0,0.0,0.0,0.0,0.0,0.0,0.0,0.0,0.0,0.0,0.0,0.0,0.0,0.0,0.0,0.0,0.0,0.0,0.3483,0.3862,0.4025,0.5495,0.637,0.6502,0.705,0.7387,0.7513,0.7607,0.7077,0.5965,0.5424,0.5125,0.5059,0.5208,0.5334,0.5411,0.5785,0.5895,0.5868,0.0,0.0,0.0,0.0,0.0,0.0,0.0,0.0,0.0,0.0,0.0,0.0,0.0,0.0,0.0,0.9348,0.9594,0.9575,0.9782,1.0838,1.1795,1.1407,0.0,1.3558,1.358,0.0,0.0,0.0,0.0,0.0,0.0,1.451,0.0,1.563,1.5388,1.4945,1.4481,1.4392,1.4081,1.3279,1.3492,1.3537,1.3086,1.336,1.3817,1.4345,1.511,1.5755,1.6305,1.6896,1.7437,1.7962,1.8327,1.8716,1.904,1.9262,1.9669,2.0167,2.024,2.0388,2.0637,2.0869,2.1108,2.1345,2.1105,2.1132,2.1368,2.1455,2.1899,2.2513,2.2491,2.2945,2.3629,2.3327,2.3298,2.3298,0.0,0.0,0.0,0.0,0.0,0.0,0.0,0.0,0.0,0.0,0.0,0.0,0.0,0.0,0.0,0.0,0.0,0.0,0.0,0.3456,0.3942,0.4432,0.5064,0.5476,0.5687,0.6982,0.7443,0.6961,0.6903,0.6463,0.5625,0.5203,0.5084,0.5181,0.483,0.5048,0.5615,0.467,0.4898,0.5805,0.4757,0.0,0.0,0.0,0.0,0.0,0.0,0.0,0.0,0.0,0.0,0.0,0.0,0.0,0.8011,0.9458,0.9179,0.8683,0.9913,0.9855,0.981,1.1277,1.3142,0.0,1.3663,1.4206,0.0,0.0,0.0,0.0,0.0,1.423,1.4743,1.5006,1.4336,1.3711,1.361,1.3094,1.2629,1.2251,1.2057,1.1971,1.1932,1.2384,1.293,1.3461,1.4292,1.4987,1.5461,1.6007,1.6498,1.6987,1.75,1.8135,1.8892,1.8212,1.8412,1.9481,1.98,2.0114,2.0442,2.0572,2.0862,2.1221,2.1322,2.1302,2.1299,2.2075,2.2222,2.1997,2.2501,2.2764,2.2905,2.2985,2.3261,2.3567,0.0,0.0,0.0,0.0,0.0,0.0,0.0,0.0,0.0,0.0,0.0,-0.0023,0.0433,0.0,0.0,0.0,0.0,0.0,0.0,0.3196,0.3687,0.3922,0.4897,0.5392,0.5301,0.6187,0.6498,0.6221,0.573,0.5193,0.4595,0.437,0.436,0.4566,0.4194,0.44,0.4992,0.4661,0.4742,0.5087,0.5147,0.5396,0.0,0.0,0.0,0.0,0.0,0.0,0.0,0.0,0.6821,0.6477,0.7631,0.7726,0.7581,0.8611,0.8712,0.8592,0.9059,0.9736,1.0392,1.0745,0.0,0.0,0.0,0.0,0.0,0.0,0.0,0.0,0.0,0.0,1.3983,1.4982,1.4134,1.3383,1.3489,1.3224,1.2867,1.2398,1.2398,1.2305,1.1996,1.218,1.2403,1.2699,1.3445,1.4199,1.4876,1.5666,1.6252,1.6646,1.7034,1.7317,1.7482,1.7371,1.7624,1.8221,1.8844,1.9478,2.0114,2.0354,2.0657,2.1027,2.0923,2.1066,2.1351,2.1774,2.1927,2.194,2.2343,2.2637,2.2816,2.2764,2.2945,2.3187,0.0,0.0,0.0,0.0,0.0,0.0,0.0,0.0,-0.1232,0.0,0.0,0.0,0.0,0.0171,0.0,0.0,0.0,0.0,0.2346,0.3037,0.3463,0.3504,0.453,0.4927,0.4533,0.5204,0.5536,0.5527,0.468,0.4224,0.4044,0.3751,0.3814,0.4171,0.3822,0.3929,0.4349,0.4402,0.4473,0.4548,0.4805,0.5185,0.0,0.0,0.0,0.0,0.0,0.0,0.0,0.0,0.6566,0.643,0.7229,0.7386,0.7413,0.8031,0.8339,0.8536,0.8699,0.9708,1.0698,0.0,0.0,0.0,0.0,0.0,0.0,0.0,0.0,0.0,0.0,0.0,0.0,0.0,1.4025,1.3367,1.3682,1.3498,1.3202,1.2789,1.2828,1.2713,1.2375,1.2313,1.2375,1.2513,1.3154,1.3796,1.4455,1.5281,1.5863,1.6071,1.6462,1.6597,1.6518,1.6644,1.7012,1.7594,1.8143,1.8885,1.9805,2.0099,2.04,2.0734,2.0723,2.0856,2.1169,2.1428,2.1544,2.1645,2.2173,2.2466,2.2581,2.257,2.2827,2.3075,0.0,0.0,0.0,0.0,0.0,0.0,0.0,0.0,-0.1729,-0.154,-0.1167,0.0,0.0,0.0,0.0,0.0,0.0,0.0,0.2442,0.2997,0.3301,0.3301,0.3868,0.3913,0.3313,0.4134,0.4687,0.4897,0.3882,0.3666,0.4187,0.3513,0.3567,0.4184,0.3767,0.3681,0.3782,0.3643,0.391,0.4308,0.3384,0.3955,0.5307,0.0,0.0,0.0,0.0,0.0,0.0,0.0,0.6616,0.6567,0.6886,0.7224,0.7565,0.7897,0.8152,0.8457,0.9124,0.97,1.0297,0.0,0.0,0.0,0.0,0.0,0.0,0.0,0.0,1.2983,1.3512,1.3501,0.0,1.4383,1.3882,1.3589,1.4141,1.3791,1.345,1.3329,1.3125,1.2958,1.2836,1.2805,1.2867,1.2981,1.3498,1.392,1.4189,1.4823,1.5186,1.5215,1.5652,1.6036,1.6276,1.6046,1.6533,1.7771,1.7771,1.8404,1.9594,1.9741,2.003,2.0421,2.0743,2.0796,2.0635,2.1178,2.121,2.1005,2.2003,2.2252,2.2158,2.2448,2.29,2.3261,0.0,0.0,0.0,0.0,0.0,0.0,0.0,0.0,-0.209,-0.1944,-0.174,0.0,0.0,0.0,0.0,0.0,0.0,0.0,0.1703,0.2327,0.2859,0.3275,0.3381,0.3564,0.3845,0.3471,0.3704,0.4625,0.3799,0.3527,0.3774,0.3473,0.3548,0.3889,0.341,0.3432,0.3839,0.3327,0.3413,0.3895,0.3604,0.3997,0.4737,0.0,0.0,0.0,0.0,0.0,0.0,0.0,0.0,0.0,0.6613,0.6853,0.7181,0.7767,0.844,0.908,0.941,1.003,0.0,0.0,0.0,0.0,0.0,0.0,0.0,0.0,1.3068,1.3272,1.4098,1.3941,0.0,1.473,1.423,1.3939,1.4494,1.435,1.4142,1.3941,1.3799,1.361,1.3307,1.3368,1.3359,1.3208,1.345,1.3782,1.4192,1.421,1.4428,1.4834,1.4971,1.5097,1.5161,1.5602,1.6096,1.6627,1.7184,1.782,1.8503,1.9682,2.0037,1.9741,2.0691,2.0999,2.0828,2.0987,2.1148,2.1338,2.1554,2.1864,2.2259,2.2341,2.2681,2.3113,0.0,0.0,0.0,0.0,0.0,0.0,-0.2732,-0.244,-0.2182,-0.1969,-0.1788,-0.1451,0.0,0.0,0.0,0.0246,0.0761,0.0,0.1541,0.207,0.2503,0.282,0.2924,0.3248,0.3802,0.2815,0.2906,0.4156,0.3309,0.3169,0.3704,0.3398,0.3369,0.3541,0.3138,0.3175,0.3504,0.2961,0.3103,0.3671,0.3417,0.3756,0.4405,0.0,0.0,0.0,0.0,0.0,0.0,0.0,0.0,0.0,0.631,0.0,0.7086,0.7688,0.8528,0.9326,0.9698,1.0415,0.0,0.0,0.0,0.0,0.0,0.0,0.0,0.0,0.0,1.3093,1.383,1.3803,1.3932,1.4787,1.4394,1.4204,1.4886,1.4736,1.4529,1.4419,1.4219,1.3971,1.3731,1.3662,1.3532,1.339,1.345,1.3713,1.4163,1.4061,1.4219,1.4813,1.4813,1.4843,1.4902,1.5386,1.5691,1.584,1.6647,1.7041,1.7148,1.893,1.9626,1.9537,2.0378,2.0743,2.0679,2.0679,2.0842,2.1105,2.1083,2.1509,2.2085,2.2241,2.2535,2.2927,0.0,0.0,-0.3495,-0.3214,0.0,0.0,-0.2687,-0.24,-0.2069,-0.1745,-0.1469,-0.1225,0.0,0.0,0.0,0.0095,0.0782,0.1377,0.17,0.2029,0.2159,0.2091,0.2508,0.2918,0.3226,0.2239,0.2316,0.3525,0.2607,0.2711,0.3819,0.3219,0.3009,0.3124,0.2909,0.2879,0.2944,0.2599,0.2934,0.362,0.2955,0.33,0.4132,0.3589,0.0,0.0,0.0,0.0,0.0,0.0,0.0,0.0,0.6002,0.6431,0.7178,0.7609,0.8458,0.9353,0.9883,0.0,0.0,0.0,0.0,0.0,1.1587,1.1394,1.1506,1.2429,0.0,1.266,1.312,1.3369,1.3784,1.4628,1.445,1.4467,1.5274,1.5001,1.4686,1.4656,1.4426,1.4165,1.398,1.3726,1.3545,1.3511,1.348,1.3692,1.416,1.413,1.4369,1.4911,1.497,1.5039,1.5127,1.5352,1.5391,1.5362,1.6118,1.6218,1.5801,1.7781,1.9051,1.9671,1.9944,2.0183,2.0378,2.0357,2.0412,2.052,2.0733,2.1167,2.1728,2.2077,2.2421,2.2703,0.0,0.0,-0.3351,-0.3025,0.0,0.0,-0.2435,-0.2286,-0.207,-0.1679,-0.1476,-0.123,-0.0807,-0.0494,0.0,0.0,0.0425,0.0785,0.108,0.1315,0.1624,0.1996,0.2276,0.2304,0.2074,0.1874,0.2206,0.3057,0.2618,0.2696,0.3271,0.2713,0.2532,0.2628,0.2288,0.2356,0.2748,0.2351,0.2674,0.3413,0.2788,0.2904,0.3434,0.3341,0.4024,0.0,0.0,0.0,0.0,0.0,0.0,0.0,0.5844,0.6344,0.6996,0.7252,0.8326,0.9445,0.0,1.001,0.0,0.0,0.0,1.0759,1.1378,1.1067,1.1083,1.2546,1.2744,1.2765,1.3133,1.3836,1.437,1.4473,1.4671,1.4907,1.5206,1.4942,1.4597,1.4339,1.4511,1.439,1.3696,1.3921,1.3942,1.3528,1.339,1.3541,1.401,1.37,1.3791,1.4417,1.4636,1.4725,1.4654,1.5352,1.5423,1.4863,1.5498,1.5834,1.5927,1.7822,1.9244,2.0205,1.9868,1.9889,2.0172,2.011,2.0228,2.0448,2.0803,2.1182,2.1549,2.1625,2.2027,2.2478,0.0,0.0,0.0,0.0,0.0,0.0,0.0,0.0,-0.1817,-0.1547,-0.1256,-0.0943,-0.0629,-0.032,0.0,0.0,0.0509,0.084,0.0977,0.131,0.1641,0.1992,0.2005,0.2051,0.2129,0.1779,0.2041,0.2944,0.2495,0.2624,0.3269,0.283,0.2648,0.2688,0.2392,0.2482,0.2769,0.2191,0.2309,0.2837,0.2417,0.2506,0.2868,0.2971,0.3549,0.4333,0.4697,0.0,0.0,0.0,0.0,0.0,0.0,0.0,0.6284,0.6771,0.779,0.8764,0.0,0.0,0.0,0.0,0.0,0.0,1.1012,1.0733,1.0705,1.2081,1.2355,1.2519,1.3005,1.3552,1.3968,1.4097,1.4242,1.4443,1.4825,1.4588,1.433,1.4219,1.4178,1.397,1.3437,1.3445,1.3492,1.3445,1.3312,1.3476,1.411,1.3855,1.3891,1.4378,1.4449,1.4517,1.4577,1.5059,1.5149,1.4843,1.5218,1.5659,1.6145,1.7429,1.8449,1.9147,1.9169,1.9254,1.9447,1.9709,2.0038,2.0416,2.0643,2.0915,2.1206,2.1611,2.1851,2.1983,0.0,0.0,0.0,0.0,0.0,0.0,0.0,0.0,0.0,-0.1344,-0.0965,-0.0652,-0.0494,-0.009,0.0157,0.0,0.0,0.0,0.1031,0.1467,0.1773,0.1905,0.1805,0.1942,0.2344,0.1748,0.1889,0.284,0.2187,0.2417,0.347,0.3104,0.2878,0.2818,0.2709,0.27,0.2701,0.2118,0.2027,0.2257,0.2061,0.2152,0.2384,0.253,0.2938,0.3531,0.4082,0.453,0.4888,0.4876,0.0,0.0,0.0,0.0,0.567,0.6297,0.7163,0.795,0.0,0.0,0.0,0.0,0.9881,0.0,1.0479,1.025,1.0267,1.148,1.1797,1.2086,1.2729,1.3066,1.334,1.363,1.3651,1.3792,1.4275,1.4114,1.396,1.3989,1.3783,1.3534,1.3224,1.2885,1.2805,1.3155,1.3092,1.3323,1.3967,1.3996,1.41,1.433,1.421,1.4309,1.4627,1.4686,1.4775,1.4941,1.5059,1.5448,1.6097,1.6605,1.7235,1.7885,1.8353,1.8615,1.8817,1.9333,1.9812,2.0288,2.0288,2.0457,2.0795,2.1455,2.1559,2.146,0.0,0.0,0.0,0.0,0.0,0.0,0.0,0.0,0.0,0.0,-0.0807,-0.0629,-0.0427,-0.0157,0.0022,0.0022,0.0314,0.0562,0.0742,0.0,0.0,0.1572,0.183,0.1792,0.1387,0.1458,0.1722,0.2219,0.1673,0.2084,0.3398,0.2837,0.2538,0.2477,0.2518,0.2356,0.2033,0.2178,0.2194,0.2123,0.2038,0.1951,0.1904,0.2049,0.2744,0.3633,0.3437,0.3821,0.4402,0.4401,0.4287,0.0,0.0,0.0,0.609,0.6016,0.6904,0.788,0.0,0.0,0.0,0.0,0.8977,0.9085,0.0,0.0,0.9722,0.0,1.139,1.1513,1.2175,1.2897,1.3336,1.3199,1.3514,1.3738,1.3653,1.3732,1.367,1.3205,1.3785,1.3791,1.28,1.29,1.2814,1.2297,1.2624,1.2846,1.2833,1.335,1.3655,1.364,1.3881,1.4139,1.4357,1.4577,1.4715,1.4745,1.4745,1.4901,1.5174,1.5093,1.6171,1.8127,1.793,1.8293,1.9046,1.9216,1.9485,1.9867,1.9867,2.0029,2.0277,2.0169,2.0543,2.1161,0.0,0.0,0.0,0.0,0.0,0.0,0.0,0.0,0.0,0.0,0.0,-0.0202,0.0067,0.0202,0.027,0.027,0.0517,0.0808,0.1077,0.1461,0.1727,0.1775,0.1711,0.1584,0.1418,0.1254,0.1418,0.1922,0.1618,0.2044,0.318,0.2954,0.2894,0.2939,0.2795,0.2491,0.2056,0.198,0.1836,0.1633,0.1545,0.1704,0.2003,0.1918,0.2555,0.3436,0.3061,0.3302,0.3777,0.3712,0.3734,0.383,0.4154,0.0,0.0,0.0,0.5953,0.0,0.7186,0.0,0.0,0.0,0.8573,0.8629,0.9301,0.0,0.901,1.0281,1.0265,1.0441,1.1776,1.2313,1.248,1.2297,1.2532,1.2811,1.2978,1.3081,1.3099,1.3005,1.3206,1.3145,1.2653,1.2547,1.2586,1.2641,1.297,1.3146,1.3176,1.3726,1.3787,1.3241,1.3549,1.3821,1.4019,1.4219,1.4517,1.4872,1.4872,1.499,1.5225,1.4863,1.5498,1.688,1.7086,1.7658,1.8481,1.9093,1.9464,1.9667,1.9874,1.9909,1.9873,2.0348,2.0591,2.0803,0.0,0.0,0.0,0.0,0.0,0.0,0.0,0.0,0.0,0.0,0.0,0.0068,0.0381,0.0,0.0,0.0,0.0674,0.0965,0.1366,0.1658,0.1839,0.1906,0.1569,0.1366,0.1321,0.1119,0.118,0.1567,0.0,0.0,0.2859,0.2815,0.2913,0.0,0.304,0.2638,0.2034,0.1939,0.1727,0.141,0.1364,0.1642,0.2103,0.1859,0.2321,0.3018,0.2637,0.2796,0.3196,0.3141,0.3236,0.3426,0.368,0.3723,0.0,0.0,0.0,0.0,0.0,0.0,0.7144,0.7901,0.8049,0.8173,0.0,0.0,0.8393,0.0,0.9304,0.9443,1.0972,1.1371,1.1424,1.1218,1.1493,1.1855,1.218,1.246,1.2663,1.2875,1.2794,1.2663,1.2537,1.2375,1.2406,1.2751,1.3142,1.3336,1.321,1.3786,1.3769,1.2975,1.3216,1.3489,1.3731,1.395,1.4339,1.4911,1.4793,1.4902,1.5147,1.4647,1.4905,1.5818,1.6384,1.7108,1.7912,1.8829,1.9217,1.9293,1.9646,1.964,1.9538,2.0452,2.0591,2.0473,0.0,0.0,0.0,0.0,0.0,0.0,0.0,0.0,0.0,0.0,0.0,-0.0094,0.018,0.0112,0.0135,0.0382,0.0472,0.0763,0.1366,0.1366,0.1411,0.1614,0.1478,0.0,0.0559,0.103,0.1165,0.0943,0.0,0.0,0.2508,0.2125,0.2059,0.2307,0.2961,0.266,0.168,0.0,0.2204,0.1782,0.1908,0.1945,0.1903,0.1754,0.2022,0.2405,0.2073,0.2255,0.2663,0.2858,0.2843,0.2821,0.3279,0.3638,0.3999,0.0,0.0,0.0,0.0,0.6383,0.0,0.6719,0.0,0.0,0.0,0.0,0.7985,0.8956,0.8863,0.8794,0.9342,0.9946,1.0315,1.0113,1.074,1.1249,1.1256,1.2048,1.2615,1.2638,1.2893,1.2862,1.2367,1.259,1.2498,1.1918,1.2764,1.2979,1.222,1.2942,1.3185,1.283,1.295,1.3186,1.3511,1.3971,1.4369,1.4715,1.427,1.424,1.4529,1.3872,1.4347,1.5716,1.6087,1.6777,1.7745,1.8178,1.8478,1.8674,1.8795,1.8998,1.9258,1.9716,1.9974,2.018,0.0,0.0,0.0,0.0,0.0,0.0,0.0,0.0,0.0,0.0,0.0,0.0,0.0,0.0379,0.0256,0.0746,0.0956,0.111,0.1209,0.1296,0.1344,0.1277,0.0942,0.065,0.0449,0.0761,0.0918,0.0,0.0,0.1491,0.1857,0.185,0.1751,0.1649,0.2318,0.2195,0.1547,0.1763,0.0,0.1641,0.1438,0.1647,0.2063,0.1764,0.2048,0.2628,0.2325,0.2493,0.2866,0.2944,0.3046,0.3187,0.3343,0.3548,0.3816,0.435,0.0,0.0,0.0,0.0,0.0,0.6304,0.6464,0.6633,0.6968,0.7065,0.7297,0.8109,0.7931,0.7835,0.8466,0.8998,0.9351,0.9407,0.9978,1.0579,1.0966,1.1643,1.2132,1.2259,1.2391,1.2383,1.2197,1.2089,1.2027,1.1996,1.2658,1.2848,1.2445,1.3316,1.3502,1.283,1.305,1.3285,1.3511,1.3881,1.4189,1.4389,1.4219,1.427,1.4469,1.4031,1.4263,1.5011,1.5034,1.5997,1.7617,1.8023,1.8201,1.8242,1.8532,1.8651,1.8714,1.9576,1.9844,1.9885,0.0,0.0,0.0,-0.2781,0.0,-0.2017,-0.1579,-0.1198,-0.0807,-0.0332,0.0,0.0,0.0,0.0,0.0146,0.0655,0.0936,0.1087,0.1045,0.126,0.1321,0.1164,0.0773,0.0547,0.0494,0.0636,0.0658,0.0,0.0,0.0,0.0,0.1243,0.1224,0.1224,0.1611,0.1681,0.0,0.0,0.0,0.1674,0.136,0.1629,0.2199,0.185,0.2172,0.2732,0.2525,0.2669,0.2955,0.3091,0.3219,0.3319,0.3422,0.3613,0.3848,0.0,0.0,0.0,0.5388,0.0,0.0,0.0,0.0,0.6063,0.6458,0.6539,0.6759,0.7427,0.7286,0.7225,0.7859,0.8153,0.8373,0.8587,0.9164,0.9834,1.0497,1.1069,1.156,1.1965,1.1903,1.1872,1.1934,1.1778,1.1823,1.2124,1.2596,1.2849,1.2782,1.349,1.367,1.3138,1.3413,1.3605,1.3708,1.3922,1.4013,1.3971,1.386,1.3941,1.4142,1.3761,1.3948,1.4533,1.457,1.5501,1.6965,1.7234,1.754,1.7866,1.8172,1.833,1.8508,1.9453,1.975,1.9821,-0.4195,-0.3863,-0.3474,-0.316,-0.2643,-0.222,-0.1947,-0.1443,-0.105,-0.0836,0.0,0.0,0.0,0.0,0.0,0.005,0.0317,0.0573,0.086,0.1195,0.1346,0.1304,0.1026,0.0819,0.0697,0.0701,0.0467,0.0022,0.0,0.0,0.0,0.0,0.0425,0.0964,0.0909,0.1169,0.1657,0.0,0.164,0.1874,0.1732,0.1918,0.2263,0.208,0.2283,0.2667,0.2613,0.2697,0.2872,0.3275,0.3282,0.3188,0.0,0.0,0.0,0.0,0.0,0.0,0.0,0.0,0.0,0.0,0.0,0.0,0.5977,0.6155,0.6445,0.6981,0.6963,0.7018,0.7399,0.7371,0.7371,0.7616,0.8305,0.9061,0.9862,1.0333,1.087,1.1677,1.149,1.1365,1.156,1.1716,1.1905,1.2226,1.2609,1.2863,1.3065,1.3344,1.3565,1.3776,1.3933,1.4072,1.407,1.4053,1.3856,1.348,1.3164,1.3186,1.348,1.3011,1.338,1.442,1.4778,1.5294,1.579,1.5833,1.6483,1.7505,1.7647,1.8035,1.8637,1.9318,1.9669,1.9885,-0.3816,-0.3566,-0.3254,-0.2869,-0.2647,-0.2334,-0.1839,-0.1629,-0.1455,0.0,0.0,0.0,0.0,0.0,-0.0538,-0.0473,-0.0416,-0.0103,0.0491,0.0583,0.0759,0.1074,0.0696,0.048,0.0488,0.0518,0.0487,0.0351,0.0,0.0,0.0,0.0,0.0483,0.0272,0.0243,0.0453,0.0861,0.1149,0.0,0.1315,0.1391,0.1473,0.1613,0.1989,0.2211,0.2358,0.2593,0.2839,0.3114,0.3217,0.3454,0.3766,0.4199,0.0,0.0,0.0,0.0,0.0,0.4789,0.0,0.0,0.0,0.0,0.0,0.5641,0.613,0.6581,0.6543,0.6557,0.6594,0.6573,0.6839,0.7067,0.6976,0.7994,0.8915,0.923,0.9905,1.0555,1.1021,1.0989,1.1028,1.1216,1.1153,1.1189,1.14,1.2046,1.2457,1.2518,1.306,1.3258,1.3065,1.2984,1.301,1.3172,1.3049,1.3057,1.3133,1.3042,1.3186,1.348,1.3103,1.3341,1.4047,1.4005,1.4607,1.563,1.6333,1.6867,1.7279,1.7304,1.7439,1.7669,1.8308,1.8657,1.8928,-0.3644,-0.3383,-0.3092,-0.2699,-0.2591,-0.2383,-0.187,-0.1859,-0.1767,0.0,0.0,0.0,0.0,0.0,-0.1266,-0.1114,-0.1042,-0.0756,-0.0186,0.0101,0.0369,0.0604,0.0301,0.02,0.0353,0.0077,-0.0075,-0.0048,0.0,0.0,0.0,0.0,0.0,0.0163,0.0083,0.0168,0.0393,0.0808,0.0897,0.0729,0.0962,0.1054,0.1093,0.1475,0.176,0.1958,0.2144,0.2492,0.2881,0.2865,0.3246,0.3773,0.42,0.0,0.0,0.0,0.0,0.0,0.0,0.0,0.0,0.0,0.0,0.0,0.5349,0.5843,0.6255,0.6008,0.6095,0.6137,0.5943,0.6229,0.6467,0.6346,0.7163,0.8051,0.8733,0.9377,0.9951,1.0523,1.0586,1.0681,1.0965,1.087,1.0989,1.1464,1.1943,1.2267,1.2486,1.3069,1.3161,1.2742,1.2864,1.2902,1.2851,1.2806,1.2827,1.2836,1.2836,1.2981,1.3277,1.3044,1.3255,1.3857,1.3965,1.4421,1.5118,1.6146,1.676,1.7072,1.6899,1.7035,1.7385,1.7733,1.8191,1.8723,0.0,-0.3256,-0.2893,-0.2523,-0.2501,-0.2371,-0.2005,-0.2101,-0.2048,0.0,-0.168,0.0,0.0,0.0,0.0,0.0,-0.1691,-0.1388,-0.0972,-0.0285,0.0102,0.0077,-0.0052,-0.0026,0.023,-0.0527,-0.0855,-0.0796,0.0,0.0,0.0,0.0,0.0,0.0336,0.0168,0.0124,0.0211,0.0531,0.0477,0.0169,0.0565,0.0692,0.0685,0.0821,0.1143,0.1522,0.1473,0.1846,0.2368,0.243,0.2867,0.3411,0.385,0.4245,0.4601,0.0,0.4595,0.0,0.0,0.0,0.0,0.0,0.5394,0.0,0.5229,0.5513,0.5766,0.5568,0.5651,0.5681,0.5492,0.5623,0.5775,0.5714,0.6061,0.6867,0.8262,0.8714,0.921,1.0015,1.0174,1.0301,1.0611,1.0706,1.1076,1.184,1.1885,1.2121,1.2648,1.3035,1.3026,1.2434,1.3005,1.3115,1.2747,1.2829,1.2783,1.2529,1.2529,1.2683,1.2967,1.2814,1.31,1.3802,1.4279,1.4453,1.4513,1.5523,1.628,1.6706,1.6438,1.6758,1.7414,1.7404,1.8046,1.8926,-0.3067,-0.2776,-0.2485,-0.2278,-0.2434,-0.2472,-0.2196,-0.2368,-0.2507,-0.2507,-0.2636,0.0,0.0,0.0,0.0,0.0,-0.2696,-0.2262,-0.1298,-0.0845,-0.0427,0.0,-0.0162,-0.0269,-0.0275,-0.0692,-0.0844,-0.073,0.0,0.0,0.0,0.0,0.0,0.0,0.01,0.0101,0.0128,0.0356,0.0196,-0.014,0.0525,0.066,0.0522,0.1018,0.1156,0.1121,0.1155,0.1528,0.2084,0.2678,0.2885,0.303,0.3771,0.4123,0.4282,0.4204,0.4204,0.0,0.0,0.0,0.0,0.468,0.4964,0.0,0.5572,0.5784,0.5849,0.5702,0.5528,0.5338,0.5135,0.5441,0.5576,0.5136,0.5632,0.6436,0.7491,0.7974,0.8409,0.9022,0.9344,0.9562,0.9741,1.0136,1.0486,1.0641,1.0981,1.1368,1.1729,1.1853,1.1717,1.1314,1.1429,1.1534,1.1619,1.1645,1.1838,1.2189,1.2027,1.2274,1.2836,1.2406,1.2743,1.3627,1.3736,1.4111,1.4653,1.5004,1.539,1.5822,1.6148,1.6581,1.6982,1.6838,1.7515,1.8554,-0.3033,-0.281,-0.2642,-0.2638,-0.28,-0.2861,-0.2769,-0.2899,-0.2942,-0.2763,-0.2906,0.0,0.0,0.0,0.0,0.0,0.0,0.0,0.0,-0.115,-0.073,-0.0448,-0.0543,-0.0596,-0.056,-0.0898,-0.0965,-0.0639,0.0,0.0,0.0,0.0,0.0,0.0,0.0,0.0249,0.0399,0.0533,0.0443,0.0206,0.036,0.0215,0.0,0.0359,0.0494,0.0528,0.067,0.1043,0.158,0.2151,0.243,0.2618,0.324,0.3645,0.3869,0.3964,0.3942,0.3934,0.4107,0.3886,0.3741,0.4399,0.4646,0.0,0.0,0.5222,0.53,0.5099,0.4953,0.4779,0.4531,0.4813,0.4899,0.4433,0.4837,0.5405,0.6031,0.6706,0.73,0.7742,0.8148,0.8565,0.8948,0.9408,0.9867,1.0341,1.062,1.083,1.0989,1.1279,1.1212,1.0665,1.1022,1.1201,1.1201,1.1199,1.1404,1.184,1.1654,1.1872,1.2436,1.2013,1.2298,1.3188,1.321,1.3528,1.409,1.4488,1.4772,1.5026,1.5884,1.6435,1.6756,1.6759,1.744,1.84,-0.3049,-0.2912,-0.2798,-0.2898,-0.3064,-0.3171,-0.3202,-0.3301,-0.3289,-0.2933,0.0,0.0,0.0,0.0,0.0,0.0,0.0,0.0,0.0,-0.1333,-0.096,-0.0981,-0.0901,-0.0845,-0.0812,-0.1066,-0.0993,-0.0586,0.0,0.0,0.0,0.0,0.0,0.0,0.0,0.0,0.0,0.0,0.0,0.0554,0.0131,-0.0165,-0.0392,-0.0367,-0.0236,-0.0034,0.0169,0.0511,0.0956,0.1427,0.1803,0.2132,0.2619,0.3039,0.339,0.361,0.3558,0.3544,0.4026,0.3678,0.3362,0.4145,0.4321,0.4333,0.0,0.0,0.0,0.4466,0.4363,0.4246,0.4053,0.4186,0.4216,0.3865,0.4106,0.443,0.4581,0.5325,0.6028,0.6524,0.7035,0.7583,0.8165,0.8546,0.9206,1.0227,1.0125,1.0113,1.0252,1.0679,1.065,1.0066,1.0645,1.0963,1.0846,1.0902,1.1122,1.1435,1.1272,1.1459,1.1941,1.1568,1.1883,1.2677,1.2696,1.2945,1.3413,1.3982,1.4303,1.4528,1.5544,1.6147,1.6527,1.6622,1.7308,1.8177,-0.2888,-0.2577,-0.227,-0.2306,-0.2694,-0.2985,-0.286,-0.318,0.0,0.0,0.0,0.0,0.0,0.0,0.0,0.0,0.0,-0.2651,-0.1969,-0.1445,0.0,-0.1264,-0.0922,-0.0894,-0.1234,-0.0926,-0.0689,-0.0506,0.0,0.0,0.0,0.0,0.0,0.0,0.0418,0.0,0.0,0.0,0.0553,0.0149,-0.0032,-0.0066,-0.0101,-0.037,-0.0404,-0.0237,-0.0035,0.0071,0.0216,0.0949,0.1311,0.1575,0.2103,0.2507,0.275,0.2636,0.2702,0.2804,0.2895,0.2678,0.2705,0.3855,0.3881,0.3809,0.4589,0.0,0.4481,0.4555,0.0,0.3981,0.4078,0.0,0.0,0.3838,0.4031,0.414,0.3934,0.4123,0.4638,0.5689,0.6401,0.6901,0.7157,0.7694,0.8476,0.953,0.883,0.868,0.9388,0.9217,0.9114,0.9151,0.9397,0.9655,0.9932,1.0244,1.0555,1.0902,1.0863,1.1052,1.1404,1.122,1.1524,1.2196,1.2309,1.2725,1.3339,1.3535,1.3991,1.4629,1.5095,1.5657,1.6145,1.5985,1.651,1.7406,-0.2691,-0.2577,-0.248,-0.2443,-0.2857,-0.3243,-0.3422,-0.3823,0.0,0.0,0.0,0.0,0.0,0.0,0.0,0.0,0.0,-0.2871,-0.2326,-0.1616,0.0,-0.1571,-0.0898,-0.0777,-0.1299,-0.075,-0.0378,-0.0213,0.0176,0.0,0.0,0.0,0.0,0.0,0.0261,0.0,0.0527,0.0,0.0527,0.0395,-0.0063,-0.0262,-0.0269,-0.0572,-0.0573,-0.0406,-0.0312,-0.0176,0.0071,0.0501,0.0822,0.1139,0.1732,0.2071,0.2266,0.2308,0.2415,0.253,0.2568,0.23,0.2239,0.3162,0.3094,0.3016,0.3811,0.3908,0.3866,0.3995,0.0,0.0,0.0,0.0,0.0,0.0,0.3634,0.3746,0.3592,0.3674,0.4011,0.4636,0.5279,0.5921,0.6581,0.7249,0.785,0.8425,0.8084,0.8083,0.8517,0.863,0.8772,0.899,0.9518,0.9856,0.9926,1.018,1.0269,1.0225,1.0295,1.0421,1.0555,1.0618,1.0902,1.1348,1.1604,1.2188,1.292,1.3157,1.3696,1.431,1.4489,1.511,1.5941,1.5956,1.6402,1.7047,-0.2493,0.0,-0.2627,-0.2575,-0.2953,-0.3381,-0.3786,-0.4149,-0.4311,0.0,0.0,0.0,-0.4424,-0.4521,0.0,0.0,-0.3591,-0.328,-0.2784,-0.2078,-0.1778,-0.2002,-0.1212,-0.099,-0.1413,-0.087,-0.0434,-0.0133,0.0177,0.0,0.0,0.0,0.0,0.0,0.0,0.0116,0.0189,0.0,0.0273,0.0222,-0.0293,-0.057,-0.0653,-0.082,-0.0852,-0.0718,-0.0557,-0.028,0.0035,0.0217,0.0504,0.0817,0.1304,0.1555,0.1714,0.1927,0.2061,0.2197,0.2308,0.2085,0.2004,0.2675,0.2575,0.2477,0.3081,0.3184,0.317,0.3281,0.3229,0.0,0.0,0.0,0.0,0.0,0.0,0.3496,0.3361,0.345,0.3655,0.3962,0.4428,0.5067,0.5935,0.6402,0.6868,0.7407,0.7281,0.737,0.7772,0.8001,0.8276,0.8635,0.9265,0.9604,0.96,0.9824,0.9817,0.9524,0.9722,0.9824,0.9888,1.0079,1.0364,1.0744,1.1111,1.1747,1.2541,1.2799,1.3267,1.384,1.3804,1.4319,1.5149,1.5643,1.6137,1.6534,-0.2296,-0.238,0.0,0.0,-0.2848,-0.3237,-0.3656,-0.3704,-0.3781,-0.3984,-0.4197,-0.4419,-0.4668,-0.4465,-0.4322,-0.4279,-0.4228,-0.3898,-0.3231,-0.2959,-0.2778,-0.2566,-0.2059,-0.1726,-0.1676,-0.1408,-0.1023,-0.0479,-0.0212,0.0,0.0,0.0,0.0,0.0,-0.0371,-0.0118,0.0178,0.0,-0.0368,-0.084,-0.0795,-0.0959,-0.116,-0.1201,-0.126,-0.1295,-0.07,-0.028,0.0035,0.0217,0.0437,0.0619,0.0765,0.0966,0.112,0.1122,0.1375,0.1682,0.1851,0.1918,0.2022,0.2568,0.2559,0.2454,0.2675,0.2615,0.2534,0.2538,0.2587,0.2669,0.2794,0.321,0.0,0.0,0.0,0.0,0.0,0.3324,0.3556,0.3953,0.4194,0.451,0.4988,0.4823,0.5272,0.6715,0.6224,0.6254,0.7172,0.7049,0.718,0.7731,0.7965,0.8225,0.8544,0.8894,0.8958,0.8835,0.9151,0.9396,0.9518,0.9728,1.0085,1.0536,1.1011,1.1616,1.2317,1.2403,1.2756,1.3193,1.301,1.309,1.3433,1.4758,1.5367,1.5679,-0.3226,-0.3098,0.0,0.0,-0.2601,-0.3131,-0.3633,-0.4005,-0.4349,-0.4751,-0.4901,-0.5021,-0.5141,-0.5133,-0.4935,-0.46,-0.4632,-0.4418,-0.3904,-0.3501,-0.3317,-0.3326,-0.2603,-0.2225,-0.2309,-0.1801,-0.1323,-0.0827,-0.0619,0.0,0.0,0.0,0.0,0.0,0.0,-0.0628,0.0,0.0,0.0,-0.097,-0.1103,-0.1439,-0.1829,-0.1682,-0.1475,-0.1223,-0.0899,-0.0691,-0.0554,-0.0224,0.0111,0.0438,0.0595,0.0933,0.1236,0.1175,0.1359,0.1587,0.1582,0.1381,0.1303,0.1883,0.185,0.1786,0.2211,0.2276,0.2214,0.2171,0.2152,0.2196,0.2425,0.0,0.0,0.0,0.0,0.0,0.0,0.3896,0.4051,0.3876,0.4083,0.4368,0.4774,0.464,0.4843,0.5609,0.5594,0.5701,0.6125,0.6416,0.6811,0.7368,0.7792,0.8084,0.8306,0.8668,0.8668,0.8279,0.8603,0.8797,0.8861,0.906,0.9412,0.9933,1.0356,1.0965,1.1653,1.1895,1.2254,1.2599,1.2526,1.2834,1.3447,1.4298,1.471,1.4997,-0.4027,-0.3672,-0.3209,-0.2508,-0.2713,-0.3089,-0.3404,-0.3954,-0.4475,-0.4966,-0.5242,-0.5448,-0.5703,-0.574,-0.5598,-0.5173,-0.528,-0.5113,-0.4523,-0.4231,-0.4046,-0.3937,-0.3269,-0.2814,-0.2678,-0.2329,-0.1866,-0.1255,-0.1283,-0.122,0.0,0.0,0.0,0.0,0.0,-0.1153,-0.1362,-0.1413,-0.1469,-0.1531,-0.1809,-0.1984,-0.2071,-0.1894,-0.1601,-0.1292,-0.1097,-0.0994,-0.0934,-0.056,-0.0222,0.0037,0.0297,0.0645,0.0962,0.0961,0.108,0.1216,0.1272,0.1085,0.0927,0.1361,0.1326,0.1322,0.1685,0.1751,0.1714,0.1726,0.1756,0.1848,0.1992,0.2128,0.0,0.0,0.0,0.0,0.0,0.3959,0.4128,0.3824,0.3956,0.4124,0.4298,0.4349,0.4552,0.4936,0.5272,0.5511,0.5599,0.5918,0.6317,0.6712,0.7199,0.7493,0.7647,0.7982,0.7922,0.7526,0.7889,0.8025,0.8052,0.8409,0.8783,0.9141,0.9787,1.0364,1.0906,1.135,1.1724,1.1966,1.1966,1.2335,1.2957,1.3825,1.4467,1.5025,-0.4655,-0.4053,-0.345,-0.3138,-0.3071,-0.3077,-0.3039,-0.3596,-0.4191,-0.4699,-0.5213,-0.5753,-0.6267,-0.6337,-0.6205,-0.5941,-0.611,-0.5868,-0.5106,-0.5104,-0.495,-0.4465,-0.4085,-0.3559,-0.2875,-0.2995,-0.2615,-0.1776,-0.2211,0.0,0.0,0.0,0.0,0.0,-0.1828,0.0,-0.1627,-0.1977,-0.2226,-0.2457,-0.2889,-0.2589,-0.1921,-0.1921,-0.1739,-0.1473,-0.1254,-0.117,-0.1132,-0.0731,-0.0584,-0.0546,-0.0146,0.0107,0.028,0.042,0.0447,0.0573,0.0942,0.096,0.0863,0.0949,0.102,0.1059,0.1129,0.1076,0.1017,0.1137,0.1394,0.1539,0.1506,0.1926,0.2193,0.0,0.0,0.0,0.0,0.3566,0.3805,0.3799,0.3824,0.3771,0.3638,0.3935,0.4298,0.4679,0.5211,0.0,0.5566,0.5583,0.5683,0.5888,0.6222,0.6482,0.6675,0.6811,0.6811,0.6708,0.704,0.7167,0.7232,0.7847,0.8177,0.8246,0.9303,0.9869,1.0131,1.0821,1.1186,1.1409,1.1409,1.1557,1.2009,1.3388,1.4633,1.5647,-0.5267,-0.4546,-0.3822,-0.3134,-0.2845,-0.2873,-0.3319,-0.3925,-0.4665,-0.5413,-0.5981,-0.6452,-0.6846,-0.6781,-0.6562,-0.6292,-0.6251,-0.6111,-0.5709,-0.5813,-0.5631,-0.5011,-0.4876,-0.4567,-0.3923,-0.3703,-0.3354,-0.2895,-0.2859,0.0,-0.2499,0.0,0.0,0.0,0.0,-0.1869,-0.1721,-0.2257,-0.2569,-0.2698,-0.2497,-0.2314,-0.2118,-0.1963,-0.1819,-0.1632,-0.0998,-0.0953,-0.1129,-0.0728,-0.0557,-0.0499,-0.0445,-0.0323,-0.0171,-0.0278,-0.0103,0.0134,0.0269,0.0135,0.0102,0.0535,0.0428,0.0293,0.0544,0.0707,0.0799,0.0831,0.0918,0.1134,0.1519,0.1563,0.1714,0.0,0.0,0.0,0.0,0.3663,0.3991,0.395,0.4159,0.4242,0.4055,0.3633,0.3729,0.4554,0.4576,0.47,0.4978,0.5292,0.5591,0.5888,0.5987,0.6185,0.6482,0.6515,0.6581,0.6708,0.6773,0.697,0.7204,0.7363,0.7711,0.8178,0.8909,0.9491,1.0007,1.0609,1.0999,1.1186,1.1186,1.1675,1.2495,1.338,1.4337,1.5247,-0.5993,-0.5286,-0.4606,-0.4002,-0.3782,-0.375,-0.4003,-0.4353,-0.4911,-0.5696,-0.6216,-0.6639,-0.6939,-0.7155,-0.7143,-0.6741,-0.6671,-0.6474,-0.611,-0.6179,-0.6068,-0.5595,-0.5444,-0.5076,-0.4528,-0.4211,-0.3817,-0.3295,-0.321,0.0,-0.2853,0.0,0.0,0.0,0.0,-0.2035,-0.1561,-0.2246,-0.257,-0.2627,-0.25,-0.2353,0.0,-0.1885,-0.1793,-0.1736,-0.1016,-0.1005,-0.129,-0.1001,-0.0789,-0.0655,-0.0629,-0.0506,-0.0454,-0.0497,-0.0388,-0.0244,-0.0174,-0.0314,-0.0349,-0.007,-0.0068,-0.01,0.0167,0.0365,0.0555,0.0602,0.0709,0.0848,0.1049,0.1213,0.1467,0.0,0.0,0.0,0.306,0.3579,0.3912,0.3839,0.4045,0.4132,0.3965,0.3855,0.4078,0.4763,0.4756,0.4799,0.5023,0.5156,0.5295,0.5428,0.5524,0.5725,0.5958,0.5888,0.5918,0.6115,0.6115,0.6247,0.6507,0.6839,0.7197,0.7621,0.83,0.8933,0.955,1.0148,1.0588,1.0862,1.0985,1.1597,1.2523,1.3114,1.4021,1.4907,-0.6571,-0.604,-0.5537,-0.5219,-0.5139,-0.5092,-0.507,-0.5064,-0.5284,-0.5899,-0.6404,-0.6753,-0.6927,-0.7551,-0.772,-0.7139,-0.7095,-0.6869,-0.6359,-0.6353,-0.6257,-0.6053,-0.5715,-0.5342,-0.4907,-0.4582,-0.4103,-0.3398,-0.3407,0.0,0.0,0.0,0.0,0.0,0.0,0.0,0.0,-0.2086,-0.2369,-0.2398,-0.2646,-0.255,-0.2157,-0.1846,-0.1803,-0.1839,-0.1216,-0.1199,-0.144,-0.1369,-0.1175,-0.0902,-0.0814,-0.0733,-0.0693,-0.0622,-0.0658,-0.0692,-0.0583,-0.0619,-0.0656,-0.0656,-0.0536,-0.035,-0.0175,0.0069,0.0268,0.0392,0.0594,0.0693,0.0536,0.0921,0.1375,0.1658,0.1958,0.2303,0.2807,0.3268,0.3545,0.347,0.3624,0.0,0.3593,0.4157,0.4671,0.4995,0.516,0.5257,0.5283,0.5081,0.4919,0.48,0.5009,0.5148,0.5263,0.5123,0.5166,0.5423,0.5456,0.5552,0.5782,0.6469,0.6871,0.7003,0.7838,0.8477,0.905,0.9628,1.0105,1.0509,1.0884,1.156,1.2329,1.282,1.371,1.4615,-0.6257,-0.6175,-0.6145,-0.5538,-0.5559,-0.594,-0.6791,-0.6699,-0.6624,-0.69,-0.7681,-0.8064,-0.7727,-0.799,-0.7848,-0.7139,-0.7095,-0.6908,-0.6398,-0.6577,-0.6439,-0.5802,-0.5809,-0.5681,-0.5309,-0.4936,-0.4475,-0.3951,-0.354,0.0,0.0,0.0,0.0,0.0,0.0,0.0,-0.1963,-0.2029,-0.2134,-0.2261,-0.2466,-0.2392,-0.2196,-0.2314,-0.2211,-0.2027,-0.16,-0.1392,-0.1291,-0.1474,-0.1368,-0.1219,-0.1573,-0.1471,-0.1282,-0.1496,-0.1408,-0.1276,-0.1312,-0.1203,-0.1057,-0.0875,-0.0893,-0.0911,-0.077,-0.0446,-0.0135,0.0033,0.0329,0.0653,0.0926,0.1142,0.1361,0.1585,0.1753,0.1947,0.2158,0.2566,0.2824,0.27,0.3058,0.3374,0.3516,0.3637,0.3922,0.4496,0.4451,0.4618,0.5111,0.4937,0.4822,0.4797,0.4749,0.4648,0.4486,0.4622,0.498,0.5569,0.5747,0.6059,0.6515,0.7107,0.7298,0.7269,0.8196,0.874,0.9052,0.9467,0.9879,1.036,1.1421,1.1915,1.2147,1.2839,1.3565,1.4286,-0.7637,-0.7406,0.0,-0.6909,-0.7097,-0.7502,-0.8034,-0.8219,-0.8135,-0.7671,-0.7947,-0.8088,-0.7786,-0.8157,-0.8143,-0.7472,-0.7368,-0.7143,-0.6786,-0.6877,-0.6792,-0.6438,-0.644,-0.6291,-0.6011,-0.5622,-0.5123,-0.4465,-0.3954,0.0,0.0,0.0,0.0,0.0,0.0,-0.1651,0.0,-0.2131,-0.2126,-0.2238,-0.2741,-0.2655,-0.2319,-0.2524,-0.2448,-0.2167,-0.1794,-0.1538,-0.1392,-0.1448,-0.1277,-0.1105,-0.1482,-0.1546,-0.1521,-0.1655,-0.1685,-0.1631,-0.1555,-0.1479,-0.1366,-0.1175,-0.1041,-0.0982,-0.0897,-0.0736,-0.0548,-0.0304,-0.02,-0.0033,0.0436,0.0732,0.0992,0.1275,0.1529,0.1738,0.184,0.2126,0.2331,0.2281,0.2558,0.2801,0.2954,0.3111,0.3514,0.4338,0.42,0.4322,0.4798,0.4486,0.4361,0.4531,0.4355,0.4219,0.4159,0.4459,0.4791,0.5193,0.5393,0.5811,0.6448,0.6708,0.6993,0.7285,0.7934,0.8396,0.8751,0.9499,0.9984,1.0341,1.1146,1.1549,1.1733,1.2574,1.3319,1.399,-0.9447,-0.8986,-0.8651,-0.8556,-0.8801,-0.899,-0.9043,-0.9414,-0.9396,-0.85,-0.8294,-0.8086,-0.7911,-0.8352,-0.8428,-0.7802,-0.766,-0.7425,-0.7094,-0.7098,-0.7022,-0.6876,-0.6835,-0.666,-0.6408,-0.6141,-0.5559,-0.474,-0.4285,-0.3725,-0.3123,0.0,0.0,0.0,-0.1375,-0.1464,-0.1948,-0.2025,-0.2055,-0.2154,-0.2801,-0.2804,-0.2422,-0.2588,-0.2519,-0.2236,-0.1831,-0.169,-0.1662,-0.1425,-0.1184,-0.1061,-0.1375,-0.1532,-0.1611,-0.1689,-0.1807,-0.1887,-0.1767,-0.169,-0.165,-0.1532,-0.1272,-0.1017,-0.096,-0.0968,-0.0837,-0.0516,-0.0579,-0.0542,-0.0101,0.0202,0.0505,0.0813,0.1221,0.1482,0.1448,0.1739,0.1928,0.1936,0.2089,0.2271,0.2434,0.2698,0.3212,0.408,0.4053,0.4174,0.4584,0.4208,0.4048,0.4196,0.4068,0.3981,0.3961,0.4328,0.4676,0.4937,0.5102,0.5531,0.6234,0.6313,0.6718,0.7313,0.7727,0.8152,0.8599,0.9554,1.0032,1.0295,1.0832,1.1165,1.1392,1.2306,1.304,1.3652,-1.0753,-1.0595,-1.0421,-1.0048,-0.998,-0.9929,-0.9906,-0.9952,-0.9894,-0.9755,-0.9557,-0.9279,-0.882,-0.8831,-0.8608,-0.7919,-0.7863,-0.7604,-0.7057,-0.7021,-0.6762,-0.6233,-0.6308,-0.619,-0.5808,-0.5872,-0.546,-0.454,-0.4102,-0.3465,-0.2552,0.0,-0.1478,-0.1006,-0.1264,-0.1264,-0.1128,-0.1445,-0.1647,-0.1796,-0.2219,-0.2363,-0.2324,-0.2528,-0.2483,-0.2236,-0.1791,-0.1746,-0.1904,-0.1663,-0.144,-0.1375,-0.1922,-0.1884,-0.169,-0.2041,-0.2042,-0.1925,-0.208,-0.2003,-0.1925,-0.2079,-0.1773,-0.14,-0.1209,-0.1126,-0.0951,-0.0432,-0.0319,-0.0277,-0.0034,0.0034,0.0068,0.0104,0.0698,0.1011,0.0661,0.1251,0.1637,0.1387,0.1718,0.2046,0.2288,0.2576,0.2885,0.3297,0.3674,0.4117,0.4573,0.4549,0.4309,0.3875,0.4119,0.4108,0.3825,0.4164,0.4659,0.5356,0.5356,0.5741,0.6383,0.6769,0.7163,0.7584,0.81,0.8558,0.8982,0.9526,0.9832,1.0126,1.0963,1.126,1.1394,1.2149,1.2729,1.3222,-1.1841,-1.1559,-1.1287,-1.0935,-1.0969,-1.104,-1.1035,-1.0879,-1.0827,-1.0925,-1.015,-0.9327,-0.8628,-0.8633,-0.842,-0.768,-0.7508,-0.7385,-0.7265,-0.7096,-0.6928,-0.6785,-0.6571,-0.6341,-0.6068,-0.5952,-0.5481,-0.4615,-0.4095,-0.3411,-0.2539,-0.2107,-0.1675,-0.127,-0.1424,-0.1459,-0.1406,-0.1792,-0.2043,-0.2187,-0.2917,-0.2968,-0.2678,-0.2892,-0.2697,-0.2286,-0.1863,-0.1763,-0.1779,-0.1635,-0.1563,-0.1533,-0.1924,-0.1925,-0.1847,-0.2118,-0.2237,-0.2237,-0.2196,-0.2157,-0.2002,-0.1727,-0.1599,-0.1466,-0.1102,-0.1267,-0.1394,-0.0949,-0.0821,-0.0695,-0.0372,-0.0135,0.0,0.0,0.042,0.0599,0.0179,0.0637,0.0967,0.093,0.1289,0.1674,0.2041,0.2238,0.2549,0.3086,0.3311,0.3587,0.3928,0.3947,0.389,0.3791,0.3935,0.3926,0.3789,0.4261,0.4621,0.4907,0.511,0.5576,0.6216,0.627,0.6801,0.7724,0.8069,0.8599,0.9276,0.9691,0.9907,1.008,1.116,1.1453,1.1433,1.2142,1.2711,1.3137,-1.2885,-1.2481,-1.2143,-1.1961,-1.2005,-1.1999,-1.1832,-1.1598,-1.1347,-1.1231,-1.0364,-0.9547,-0.8894,-0.8843,-0.8534,-0.7837,-0.7559,-0.7427,-0.7399,-0.7227,-0.7101,-0.7095,-0.6779,-0.6523,-0.6432,-0.609,-0.5591,-0.4924,-0.4244,-0.3512,-0.2709,-0.2073,-0.1757,-0.1684,-0.166,-0.1733,-0.1871,-0.2237,-0.2452,-0.2675,-0.3288,-0.3307,-0.2979,-0.2976,-0.273,-0.2347,-0.1912,-0.1849,-0.1904,-0.178,-0.1789,-0.1841,-0.1973,-0.2003,-0.2042,-0.2235,-0.2392,-0.247,-0.2314,-0.2235,-0.2079,-0.1688,-0.1571,-0.1487,-0.1114,-0.1408,-0.173,-0.1393,-0.1221,-0.1022,-0.0692,-0.0377,-0.0172,-0.0247,0.0071,0.0215,-0.0108,0.0178,0.049,0.0642,0.1016,0.1442,0.1869,0.2076,0.2468,0.3111,0.3096,0.3198,0.3545,0.3607,0.3651,0.368,0.3843,0.3914,0.3859,0.4359,0.4645,0.4717,0.4983,0.5418,0.6025,0.6208,0.6896,0.7902,0.8174,0.8748,0.9523,0.9802,1.007,1.0388,1.1182,1.1417,1.1449,1.2049,1.2593,1.3047,-1.3865,-1.343,-1.3181,-1.3421,-1.307,-1.2625,-1.2189,-1.1884,-1.134,-1.0329,-1.02,-1.0179,-1.0088,-0.9661,-0.922,-0.8703,-0.8426,-0.8026,-0.7463,-0.7376,-0.7195,-0.6833,-0.6666,-0.6646,-0.6697,-0.6164,-0.5751,-0.5413,-0.4596,-0.3769,-0.2958,-0.1827,-0.1604,-0.21,-0.1806,-0.1999,-0.2476,-0.2477,-0.2771,-0.3181,-0.3001,-0.3008,-0.3039,-0.2565,-0.2391,-0.2347,-0.1868,-0.1998,-0.2339,-0.2074,-0.2185,-0.2376,-0.2229,-0.2196,-0.2235,-0.2431,-0.2511,-0.2511,-0.2511,-0.2353,-0.2196,-0.2195,-0.1884,-0.1533,-0.1335,-0.1542,-0.1768,-0.1724,-0.1421,-0.1129,-0.0947,-0.0677,-0.0565,-0.0834,-0.0372,-0.0074,-0.0282,0.0036,0.0357,0.0475,0.0919,0.14,0.1843,0.2202,0.2651,0.3245,0.3065,0.3136,0.3666,0.383,0.3743,0.3423,0.3978,0.4197,0.3995,0.4392,0.4726,0.4998,0.5061,0.5339,0.5842,0.6948,0.7688,0.8102,0.8513,0.9091,0.9689,0.9689,1.02,1.1003,1.1008,1.1138,1.1348,1.1823,1.2328,1.2851,-1.3629,-1.3481,-1.342,-1.3508,-1.3217,-1.2914,-1.2634,-1.2178,-1.1665,-1.1015,-1.0773,-1.0491,-1.0132,-0.9579,-0.8952,-0.8297,-0.8157,-0.7986,-0.7707,-0.7333,-0.7205,-0.7338,-0.6917,-0.6603,-0.6414,-0.6073,-0.5663,-0.5191,-0.4384,-0.3594,-0.2787,-0.2326,-0.218,-0.2324,-0.2272,-0.2251,-0.231,-0.2619,-0.2763,-0.2781,-0.3184,-0.3215,-0.2976,-0.2931,-0.2753,-0.24,-0.1955,-0.1936,-0.2166,-0.2033,-0.2271,-0.2637,-0.272,-0.2532,-0.2283,-0.2443,-0.2392,-0.2314,-0.2314,-0.2158,-0.1924,-0.1649,-0.161,-0.1493,-0.11,-0.125,-0.1466,-0.1543,-0.1385,-0.1154,-0.095,-0.0832,-0.0799,-0.0894,-0.0527,-0.0341,-0.0645,-0.0111,0.0328,0.0365,0.0829,0.1241,0.1518,0.1908,0.2297,0.2738,0.2759,0.2993,0.3527,0.3653,0.3823,0.4084,0.4309,0.4574,0.4889,0.4748,0.4771,0.4995,0.5027,0.5381,0.6036,0.6908,0.7435,0.7723,0.8117,0.8563,0.9063,0.9468,0.9998,1.0544,1.0894,1.1326,1.1783,1.1942,1.2322,1.2795,-1.3938,-1.3675,-1.3492,-1.3508,-1.3215,-1.2929,-1.2665,-1.2353,-1.1961,-1.1487,-1.1081,-1.0707,-1.0395,-0.97,-0.9009,-0.8383,-0.8192,-0.799,-0.7596,-0.7263,-0.7205,-0.7441,-0.7014,-0.6776,-0.6778,-0.6236,-0.5796,-0.5357,-0.4321,-0.3537,-0.3019,-0.2753,-0.2682,-0.2684,-0.2677,-0.2603,-0.2599,-0.2843,-0.2936,-0.2959,-0.329,-0.325,-0.3006,-0.296,-0.2736,-0.2469,-0.2064,-0.2134,-0.241,-0.2316,-0.2612,-0.3045,-0.3119,-0.2898,-0.2614,-0.2676,-0.2539,-0.2377,-0.2256,-0.2083,-0.1871,-0.1513,-0.1463,-0.1415,-0.11,-0.1257,-0.1409,-0.1426,-0.1373,-0.1209,-0.0939,-0.0856,-0.0815,-0.0895,-0.0569,-0.0419,-0.0709,-0.0259,0.0147,0.0291,0.063,0.0993,0.1345,0.1756,0.2121,0.2428,0.2597,0.2866,0.3297,0.3437,0.3741,0.424,0.4331,0.4593,0.5081,0.4906,0.4932,0.52,0.5288,0.5613,0.6153,0.6848,0.7313,0.7594,0.8016,0.846,0.8946,0.9326,0.9958,1.072,1.0826,1.1316,1.1889,1.1852,1.2097,1.2455,-1.4606,-1.4034,-1.359,-1.359,-1.3221,-1.2813,-1.2538,-1.2441,-1.2242,-1.1643,-1.113,-1.0797,-1.0783,-1.0109,-0.9426,-0.8924,-0.8627,-0.8134,-0.7335,-0.7285,-0.7285,-0.7288,-0.7042,-0.7095,-0.7596,-0.6651,-0.6039,-0.5737,-0.4346,-0.3685,-0.3638,-0.3193,-0.3057,-0.3233,-0.3058,-0.3056,-0.3223,-0.3158,-0.3345,-0.3582,-0.3246,-0.3171,-0.3138,-0.2736,-0.2558,-0.2513,-0.2289,-0.2509,-0.2897,-0.2801,-0.3127,-0.3554,-0.3411,-0.3248,-0.3075,-0.3007,-0.2862,-0.2608,-0.2355,-0.215,-0.1951,-0.1712,-0.1483,-0.1339,-0.1339,-0.1495,-0.1572,-0.1375,-0.1427,-0.1376,-0.1017,-0.0771,-0.0678,-0.088,-0.057,-0.0341,-0.0482,-0.0361,-0.0147,0.0274,0.0416,0.0696,0.1258,0.1696,0.2082,0.2367,0.2544,0.2742,0.3022,0.3277,0.3614,0.4036,0.4192,0.4417,0.4784,0.4935,0.5179,0.5526,0.5762,0.6012,0.6247,0.6799,0.7274,0.7688,0.8082,0.8634,0.9236,0.9275,1.0064,1.1282,1.0855,1.1088,1.1702,1.1626,1.1765,1.2057,-1.4726,-1.4472,-1.4439,-1.4661,-1.4119,-1.3588,-1.3361,-1.2917,-1.2331,-1.149,-1.1235,-1.0991,-1.0601,-1.0374,-1.0019,-0.9476,-0.9179,-0.8832,-0.8428,-0.823,-0.823,-0.8428,-0.7985,-0.7789,-0.7892,-0.7222,-0.6365,-0.5344,-0.4793,-0.4314,-0.399,-0.3914,-0.3773,-0.3582,-0.3763,-0.3685,-0.3496,-0.3657,-0.366,-0.3585,-0.3523,-0.3347,-0.3183,-0.3093,-0.2962,-0.2784,-0.2513,-0.262,-0.2801,-0.2569,-0.2832,-0.3232,-0.3197,-0.3191,-0.3136,-0.3021,-0.2734,-0.2439,-0.2397,-0.2192,-0.1999,-0.1994,-0.1928,-0.1854,-0.1854,-0.183,-0.1768,-0.1572,-0.1565,-0.1484,-0.1256,-0.1016,-0.0889,-0.1093,-0.0644,-0.0376,-0.054,-0.0291,0.0074,0.0479,0.0437,0.0653,0.1399,0.1466,0.1711,0.2359,0.263,0.2942,0.3363,0.3604,0.3902,0.4362,0.4706,0.5138,0.5609,0.5346,0.5363,0.5588,0.5809,0.6093,0.6525,0.6727,0.6955,0.7249,0.7628,0.8074,0.8547,0.8863,0.9599,1.0551,1.0386,1.0862,1.1638,1.1614,1.1902,1.2292,-1.4962,-1.4718,-1.4661,-1.4734,-1.4169,-1.3602,-1.3263,-1.2953,-1.2427,-1.1532,-1.1293,-1.1107,-1.0854,-1.0547,-1.0314,-1.0167,-0.9677,-0.9179,-0.8627,-0.8482,-0.8432,-0.8432,-0.8137,-0.7988,-0.7988,-0.7397,-0.655,-0.5425,-0.5334,-0.5008,-0.4493,-0.4545,-0.4354,-0.3935,-0.39,-0.3813,-0.3634,-0.3565,-0.351,-0.3405,-0.3285,-0.3175,-0.3136,-0.3228,-0.3139,-0.2958,-0.2913,-0.3008,-0.3131,-0.2866,-0.3084,-0.3436,-0.3348,-0.3285,-0.3167,-0.3098,-0.286,-0.2601,-0.2471,-0.2346,-0.2223,-0.2143,-0.2083,-0.2022,-0.1898,-0.1922,-0.186,-0.1521,-0.1518,-0.1552,-0.1338,-0.1021,-0.0815,-0.0898,-0.0417,-0.0076,-0.018,0.0,0.0263,0.0559,0.052,0.0631,0.1191,0.1394,0.1736,0.2214,0.2589,0.2961,0.3353,0.3654,0.3983,0.4352,0.4577,0.4963,0.547,0.5437,0.5401,0.5321,0.5631,0.5867,0.6025,0.6394,0.678,0.7123,0.7406,0.7933,0.8536,0.8688,0.9392,1.0376,1.0107,1.057,1.138,1.1302,1.159,1.2029,-1.5166,-1.4873,-1.4675,-1.4387,-1.3986,-1.3491,-1.3001,-1.2856,-1.2565,-1.1731,-1.1438,-1.1292,-1.1194,-1.085,-1.0605,-1.0708,-1.0068,-0.9327,-0.863,-0.8482,-0.8382,-0.8137,-0.8038,-0.7988,-0.7988,-0.7351,-0.6546,-0.5726,-0.5776,-0.5538,-0.5063,-0.5079,-0.4838,-0.43,-0.3984,-0.385,-0.383,-0.3428,-0.3322,-0.3417,-0.3061,-0.3063,-0.3203,-0.339,-0.3291,-0.3098,-0.3328,-0.3424,-0.3452,-0.3272,-0.3452,-0.3767,-0.3631,-0.3452,-0.3272,-0.3227,-0.3102,-0.2884,-0.265,-0.257,-0.252,-0.2253,-0.2198,-0.2155,-0.1901,-0.198,-0.1966,-0.1519,-0.1555,-0.1584,-0.131,-0.0908,-0.0622,-0.0591,-0.0114,0.0267,0.0249,0.0262,0.0346,0.063,0.0641,0.0721,0.0966,0.1508,0.1888,0.2106,0.2522,0.2918,0.3176,0.3566,0.385,0.4094,0.4192,0.4449,0.4885,0.5323,0.5371,0.5031,0.543,0.556,0.5466,0.6113,0.6646,0.7083,0.74,0.7971,0.8676,0.8605,0.9296,1.0353,0.9943,1.033,1.1051,1.085,1.1149,1.1585,-1.5173,-1.5068,-1.4953,-1.4706,-1.4574,-1.4256,-1.3516,-1.319,-1.271,-1.1736,-1.178,-1.1683,-1.1243,-1.134,-1.1145,-1.0511,-1.0117,-0.9772,-0.943,-0.8977,-0.8726,-0.8676,-0.8237,-0.7988,-0.7988,-0.6963,-0.6255,-0.5846,-0.5894,-0.5703,-0.5417,-0.5499,-0.5295,-0.4968,-0.4589,-0.451,-0.4574,-0.4084,-0.4126,-0.4514,-0.388,-0.3774,-0.398,-0.3891,-0.3615,-0.333,-0.3376,-0.3243,-0.3008,-0.3138,-0.3227,-0.3361,-0.3542,-0.3587,-0.3497,-0.3272,-0.3223,-0.3165,-0.2932,-0.2822,-0.28,-0.2698,-0.2682,-0.2682,-0.2639,-0.2601,-0.2478,-0.1968,-0.1924,-0.1745,-0.1138,-0.085,-0.0678,-0.0607,-0.0227,0.0038,0.0036,0.0037,0.0268,0.0853,0.0794,0.0884,0.1442,0.1734,0.1986,0.2172,0.2529,0.2832,0.3103,0.3398,0.3553,0.3612,0.4095,0.4407,0.4499,0.5049,0.5294,0.5159,0.5639,0.5944,0.6147,0.6428,0.6718,0.6951,0.7519,0.794,0.825,0.8778,0.9384,0.9879,0.9849,1.0114,1.0556,1.0708,1.1149,1.1585,-1.4849,-1.4617,-1.4448,-1.4441,-1.4232,-1.385,-1.318,-1.301,-1.2662,-1.1927,-1.1785,-1.1688,-1.1438,-1.1389,-1.1243,-1.085,-1.0314,-0.9969,-0.9821,-0.9237,-0.8833,-0.8574,-0.8403,-0.8157,-0.7793,-0.6985,-0.6511,-0.641,-0.641,-0.6163,-0.577,-0.5817,-0.5663,-0.5363,-0.4878,-0.4786,-0.5024,-0.4365,-0.4293,-0.4537,-0.4067,-0.3933,-0.406,-0.4112,-0.3827,-0.3484,-0.3805,-0.3653,-0.3336,-0.3371,-0.343,-0.3523,-0.3384,-0.3357,-0.3381,-0.3187,-0.3125,-0.3051,-0.2964,-0.2943,-0.2867,-0.2661,-0.2654,-0.261,-0.2522,-0.2347,-0.2202,-0.2065,-0.1857,-0.1552,-0.1208,-0.0902,-0.0606,-0.0316,-0.0039,0.0232,0.0465,0.043,0.0517,0.0936,0.0906,0.1036,0.1449,0.1763,0.2078,0.2445,0.2671,0.2942,0.3174,0.3301,0.3353,0.3388,0.3887,0.4208,0.4276,0.4851,0.5119,0.5031,0.5458,0.577,0.6008,0.638,0.682,0.732,0.7724,0.8234,0.8793,0.8969,0.9296,0.9693,0.9693,0.9992,1.0413,1.056,1.1096,1.1834,-1.4351,-1.4002,-1.3882,-1.3999,-1.3719,-1.3362,-1.2864,-1.279,-1.2619,-1.2078,-1.1829,-1.1683,-1.159,-1.134,-1.1145,-1.1096,-1.0413,-1.0019,-1.0019,-0.9409,-0.89,-0.8425,-0.8371,-0.8119,-0.754,-0.7045,-0.6795,-0.6795,-0.6742,-0.6442,-0.5992,-0.5942,-0.5739,-0.5482,-0.4944,-0.4911,-0.5222,-0.4504,-0.4371,-0.4552,-0.417,-0.4044,-0.4143,-0.4341,-0.4096,-0.3749,-0.4145,-0.4078,-0.3736,-0.3698,-0.3766,-0.3861,-0.3526,-0.3535,-0.3548,-0.3414,-0.3266,-0.3105,-0.3043,-0.2972,-0.2894,-0.2712,-0.2613,-0.2472,-0.2303,-0.2105,-0.1924,-0.2074,-0.1788,-0.148,-0.1367,-0.1049,-0.0623,-0.0164,0.004,0.0281,0.0696,0.0613,0.0657,0.0966,0.1006,0.1088,0.1345,0.1758,0.2132,0.2522,0.2677,0.2915,0.3231,0.3169,0.3205,0.3399,0.3783,0.4035,0.4146,0.4695,0.5009,0.4989,0.5354,0.5664,0.5887,0.6404,0.6981,0.751,0.7962,0.8566,0.9216,0.9163,0.9307,0.9579,0.9579,0.9871,1.0314,1.0364,1.0998,1.1829,-1.3642,-1.355,-1.3513,-1.3559,-1.354,-1.342,-1.3134,-1.2899,-1.2619,-1.2078,-1.1975,-1.1883,-1.1634,-1.134,-1.11,-1.0855,-1.0314,-1.0019,-1.0019,-0.9599,-0.9094,-0.8425,-0.7932,-0.7531,-0.7238,-0.6942,-0.6795,-0.6795,-0.6539,-0.6287,-0.5992,-0.5737,-0.5486,-0.5236,-0.4847,-0.485,-0.5083,-0.4547,-0.4592,-0.5032,-0.4535,-0.4522,-0.4724,-0.4774,-0.4523,-0.4257,-0.4262,-0.4114,-0.3901,-0.4095,-0.4142,-0.4189,-0.4429,-0.452,-0.4468,-0.4188,-0.3992,-0.369,-0.3158,-0.3001,-0.3044,-0.3183,-0.2867,-0.2527,-0.2577,-0.2359,-0.2162,-0.2204,-0.2033,-0.1773,-0.1447,-0.1232,-0.0923,-0.0465,-0.0378,-0.0168,0.0294,0.0165,0.0287,0.0924,0.0992,0.107,0.1303,0.1734,0.2013,0.2057,0.2223,0.2545,0.2985,0.2965,0.3162,0.3652,0.3867,0.3991,0.3942,0.4653,0.5044,0.5178,0.5774,0.6139,0.6366,0.6912,0.7129,0.7211,0.8128,0.8579,0.8702,0.9294,0.9567,0.9579,0.9579,0.9776,1.0068,1.0314,1.0752,1.1292,-1.3306,-1.3129,-1.2996,-1.2867,-1.2829,-1.2766,-1.2675,-1.2762,-1.2716,-1.2516,-1.237,-1.2175,-1.1883,-1.159,-1.134,-1.1047,-1.0703,-1.0413,-1.0265,-0.9951,-0.9453,-0.8781,-0.8188,-0.7889,-0.7935,-0.7338,-0.7042,-0.7042,-0.6637,-0.6287,-0.5992,-0.5539,-0.5388,-0.5436,-0.5153,-0.525,-0.5584,-0.5255,-0.5196,-0.5301,-0.5003,-0.4836,-0.4784,-0.4784,-0.4581,-0.4321,-0.452,-0.4436,-0.4179,-0.4277,-0.4343,-0.4294,-0.4245,-0.4307,-0.4365,-0.4071,-0.3865,-0.3643,-0.3378,-0.333,-0.325,-0.3015,-0.274,-0.2523,-0.2403,-0.2406,-0.2399,-0.2246,-0.2131,-0.1961,-0.1523,-0.1124,-0.0751,-0.0446,-0.0259,-0.0043,0.0305,0.0301,0.0385,0.0786,0.0817,0.0979,0.133,0.1533,0.1743,0.2059,0.2257,0.2439,0.267,0.2827,0.306,0.3434,0.3705,0.3909,0.4071,0.4588,0.4915,0.5129,0.563,0.6135,0.6645,0.6969,0.738,0.7814,0.8274,0.8641,0.8996,0.9258,0.9331,0.9381,0.9529,0.9776,1.0019,1.0117,1.0609,1.1194,-1.3244,-1.3055,-1.2851,-1.2777,-1.266,-1.264,-1.2631,-1.274,-1.2813,-1.2813,-1.2467,-1.2224,-1.2024,-1.159,-1.1292,-1.1194,-1.0949,-1.0703,-1.056,-1.0169,-0.9624,-0.896,-0.8428,-0.8187,-0.8283,-0.7632,-0.7252,-0.7252,-0.6648,-0.6244,-0.6045,-0.5555,-0.5388,-0.5486,-0.529,-0.5352,-0.5534,-0.5406,-0.5347,-0.5396,-0.5164,-0.5037,-0.4937,-0.4834,-0.4648,-0.4506,-0.4712,-0.4646,-0.4459,-0.4518,-0.4537,-0.4487,-0.4284,-0.4346,-0.44,-0.4153,-0.4043,-0.3925,-0.3628,-0.358,-0.3536,-0.3082,-0.2796,-0.2569,-0.2383,-0.2439,-0.2483,-0.2347,-0.2188,-0.2073,-0.178,-0.128,-0.0858,-0.0645,-0.0402,-0.0175,0.009,0.0221,0.035,0.0532,0.0567,0.0734,0.1129,0.1252,0.1428,0.1842,0.2093,0.2282,0.2511,0.2754,0.3055,0.3281,0.3561,0.3846,0.4208,0.4673,0.5022,0.5297,0.5719,0.6219,0.68,0.7021,0.7443,0.8003,0.8297,0.868,0.9084,0.9183,0.9236,0.9331,0.9628,0.9821,1.0019,1.0068,1.0462,1.0949,-1.351,-1.3264,-1.3201,-1.3432,-1.3286,-1.3089,-1.3108,-1.2953,-1.2813,-1.2813,-1.2322,-1.198,-1.198,-1.1292,-1.09,-1.1198,-1.0949,-1.0801,-1.0801,-1.0184,-0.9497,-0.8832,-0.8531,-0.8287,-0.7992,-0.7626,-0.7392,-0.7392,-0.6624,-0.6213,-0.621,-0.579,-0.5438,-0.519,-0.5192,-0.5039,-0.4836,-0.4836,-0.4987,-0.5192,-0.4939,-0.4989,-0.5192,-0.4887,-0.4786,-0.4786,-0.4784,-0.4784,-0.4784,-0.4784,-0.4784,-0.4784,-0.4784,-0.4784,-0.4734,-0.4487,-0.4585,-0.4636,-0.3835,-0.3784,-0.3915,-0.36,-0.3094,-0.2715,-0.2715,-0.2562,-0.2412,-0.2501,-0.2216,-0.2026,-0.218,-0.1811,-0.1421,-0.116,-0.0925,-0.0694,-0.0463,-0.0179,0.0087,0.0261,0.0299,0.0382,0.0695,0.0896,0.1115,0.1385,0.1671,0.2019,0.2466,0.2837,0.3098,0.3284,0.3562,0.3878,0.4189,0.4948,0.5424,0.5716,0.6117,0.6495,0.6806,0.7067,0.7339,0.7621,0.8154,0.8528,0.8825,0.9084,0.9331,0.9628,0.9871,1.0019,1.0019,1.0314,1.0413,1.0462,-1.3275,-1.3085,-1.2853,-1.2768,-1.281,-1.2908,-1.2892,-1.2849,-1.2813,-1.2813,-1.2521,-1.2127,-1.178,-1.1487,-1.134,-1.1194,-1.1145,-1.09,-1.0556,-1.0083,-0.9556,-0.9054,-0.8755,-0.8552,-0.8501,-0.8194,-0.7856,-0.7446,-0.703,-0.6575,-0.6045,-0.5831,-0.5657,-0.5491,-0.5771,-0.5855,-0.5802,-0.6004,-0.6006,-0.5914,-0.5933,-0.5712,-0.5344,-0.5242,-0.5086,-0.4922,-0.4857,-0.4784,-0.4784,-0.4784,-0.4937,-0.509,-0.509,-0.4937,-0.4734,-0.4487,-0.4336,-0.4133,-0.3736,-0.3534,-0.3426,-0.3309,-0.3158,-0.2966,-0.2966,-0.3044,-0.2976,-0.2439,-0.2397,-0.2353,-0.2059,-0.1558,-0.1264,-0.1369,-0.0887,-0.0555,-0.0648,-0.0458,-0.0271,-0.0178,-0.0175,0.0043,0.0653,0.0606,0.0823,0.1358,0.1838,0.2323,0.284,0.3177,0.3374,0.3423,0.3905,0.4279,0.4607,0.4919,0.527,0.5589,0.6134,0.6613,0.7073,0.7353,0.7647,0.7913,0.805,0.8283,0.8531,0.8581,0.8779,0.9076,0.9331,0.9579,0.9727,0.9826,1.0068,1.043,-1.36,-1.3331,-1.3032,-1.2856,-1.3072,-1.3174,-1.2936,-1.2914,-1.291,-1.2813,-1.2467,-1.2078,-1.1639,-1.1487,-1.1394,-1.1194,-1.0998,-1.0838,-1.0676,-1.0095,-0.9634,-0.9381,-0.9083,-0.8831,-0.8612,-0.8414,-0.805,-0.7525,-0.726,-0.6858,-0.6328,-0.6197,-0.6038,-0.5916,-0.6192,-0.6224,-0.6123,-0.6276,-0.6328,-0.6279,-0.6093,-0.5801,-0.5538,-0.5397,-0.5175,-0.491,-0.4956,-0.4885,-0.4784,-0.4784,-0.4887,-0.5037,-0.4939,-0.4788,-0.4585,-0.4336,-0.4135,-0.3932,-0.3685,-0.3484,-0.3332,-0.323,-0.3153,-0.312,-0.3095,-0.3229,-0.3166,-0.2522,-0.2464,-0.2406,-0.192,-0.1572,-0.1325,-0.132,-0.0986,-0.0749,-0.0796,-0.0558,-0.0416,-0.0414,-0.0318,-0.0045,0.0402,0.0402,0.0669,0.1381,0.1825,0.2376,0.3027,0.3354,0.3552,0.3719,0.4116,0.4436,0.4636,0.4925,0.5289,0.5699,0.6155,0.6686,0.7188,0.7244,0.7494,0.7842,0.7739,0.7885,0.8237,0.8237,0.8482,0.8825,0.9229,0.9381,0.948,0.9677,0.9966,1.0241,-1.4201,-1.3847,-1.3528,-1.355,-1.3738,-1.369,-1.3195,-1.3098,-1.3001,-1.2813,-1.2322,-1.1883,-1.1585,-1.1389,-1.1243,-1.1194,-1.077,-1.0663,-1.1052,-1.0286,-0.9766,-0.977,-0.94,-0.9037,-0.8579,-0.8434,-0.8113,-0.7666,-0.7399,-0.7126,-0.6854,-0.675,-0.6651,-0.6479,-0.6489,-0.6336,-0.6129,-0.6076,-0.6227,-0.6366,-0.581,-0.5667,-0.5747,-0.5392,-0.5107,-0.4907,-0.5096,-0.5037,-0.4834,-0.4834,-0.4834,-0.4784,-0.4537,-0.4438,-0.4338,-0.4085,-0.3982,-0.3934,-0.3685,-0.3584,-0.3484,-0.323,-0.318,-0.3165,-0.3112,-0.3141,-0.3099,-0.2701,-0.2525,-0.2334,-0.1968,-0.1723,-0.1549,-0.126,-0.1178,-0.1097,-0.0858,-0.0564,-0.0374,-0.0381,-0.0143,0.0,0.0046,0.0325,0.0742,0.1485,0.1812,0.2364,0.3184,0.344,0.3717,0.4031,0.4286,0.4438,0.4489,0.4939,0.5441,0.5942,0.6237,0.6637,0.7138,0.6954,0.7106,0.7547,0.7353,0.75,0.7992,0.8055,0.8354,0.8897,0.9351,0.9405,0.9305,0.9797,0.9946,0.9939,-1.4184,-1.3897,-1.3649,-1.3776,-1.369,-1.3539,-1.3443,-1.3104,-1.2759,-1.2516,-1.2224,-1.1834,-1.1345,-1.1438,-1.1438,-1.1198,-1.125,-1.1116,-1.0808,-1.0667,-1.0265,-0.9617,-0.9457,-0.9311,-0.9221,-0.8808,-0.8481,-0.8129,-0.8075,-0.7748,-0.7115,-0.7452,-0.7393,-0.7012,-0.711,-0.7155,-0.7101,-0.6891,-0.6784,-0.6701,-0.6664,-0.6315,-0.5855,-0.57,-0.5557,-0.5294,-0.4989,-0.4987,-0.509,-0.509,-0.4987,-0.4834,-0.4989,-0.474,-0.4388,-0.4338,-0.4036,-0.3685,-0.3636,-0.3281,-0.2977,-0.2876,-0.2876,-0.2924,-0.3114,-0.3171,-0.3122,-0.2796,-0.2751,-0.2689,-0.253,-0.2121,-0.1867,-0.2041,-0.1331,-0.0858,-0.1001,-0.0674,-0.0338,-0.0095,-0.0048,0.0143,0.0569,0.0805,0.1184,0.1753,0.2306,0.2869,0.3384,0.393,0.4219,0.4286,0.4585,0.4836,0.5039,0.514,0.524,0.5391,0.6089,0.6487,0.6589,0.7047,0.7291,0.7297,0.755,0.7689,0.7753,0.8318,0.8722,0.9022,0.9178,0.9275,0.9427,0.9579,0.975,1.0006,-1.4244,-1.3992,-1.3761,-1.3884,-1.3877,-1.3775,-1.3539,-1.3298,-1.3007,-1.2613,-1.237,-1.2029,-1.1634,-1.1731,-1.1727,-1.1538,-1.1303,-1.1147,-1.1182,-1.0807,-1.0469,-1.0112,-0.9932,-0.9706,-0.9379,-0.9133,-0.8893,-0.8551,-0.8321,-0.7962,-0.7523,-0.7692,-0.7672,-0.7564,-0.7635,-0.7613,-0.7506,-0.7344,-0.7196,-0.6967,-0.6647,-0.6304,-0.5959,-0.5855,-0.5602,-0.5309,-0.5516,-0.5478,-0.5371,-0.5171,-0.5004,-0.4892,-0.4853,-0.464,-0.4338,-0.4088,-0.3836,-0.3584,-0.3433,-0.318,-0.2977,-0.2977,-0.2876,-0.2826,-0.2826,-0.3027,-0.3079,-0.2674,-0.2725,-0.2759,-0.2608,-0.2207,-0.195,-0.1962,-0.149,-0.1068,-0.0979,-0.0742,-0.0497,-0.0199,-0.0099,0.0148,0.0581,0.0725,0.1112,0.1886,0.2245,0.2759,0.3532,0.3964,0.4286,0.4388,0.4636,0.4885,0.4987,0.5082,0.5105,0.5105,0.5711,0.6137,0.6389,0.672,0.6947,0.714,0.731,0.7454,0.7547,0.8079,0.847,0.8725,0.8976,0.918,0.9329,0.9431,0.9686,1.0048,-1.4304,-1.417,-1.395,-1.3986,-1.4112,-1.4064,-1.3588,-1.3443,-1.3249,-1.2813,-1.2521,-1.2322,-1.2029,-1.2011,-1.1969,-1.1958,-1.1281,-1.1099,-1.1589,-1.0943,-1.0542,-1.0633,-1.0421,-1.0036,-0.9489,-0.9434,-0.9205,-0.8804,-0.8411,-0.8144,-0.7928,-0.782,-0.7834,-0.7989,-0.7989,-0.7881,-0.766,-0.7607,-0.7426,-0.7108,-0.6429,-0.6197,-0.6145,-0.5948,-0.5679,-0.5394,-0.6064,-0.5939,-0.5442,-0.5118,-0.4983,-0.4959,-0.4632,-0.4459,-0.4356,-0.384,-0.3635,-0.3534,-0.3281,-0.318,-0.313,-0.3079,-0.2876,-0.2674,-0.2321,-0.2725,-0.2977,-0.2522,-0.263,-0.2725,-0.2483,-0.2159,-0.1859,-0.1654,-0.1472,-0.1247,-0.0861,-0.0713,-0.0564,-0.0363,-0.0052,0.0256,0.0547,0.0545,0.0993,0.2042,0.2137,0.2595,0.3547,0.3903,0.4199,0.4388,0.4716,0.4823,0.4857,0.4949,0.4996,0.5045,0.5428,0.5843,0.6351,0.6321,0.6572,0.6967,0.7041,0.7191,0.748,0.7862,0.8185,0.8495,0.8925,0.9068,0.9068,0.932,0.96,0.9949,-1.4586,-1.4418,-1.4256,-1.4244,-1.407,-1.3835,-1.3539,-1.3298,-1.3001,-1.2516,-1.2419,-1.2322,-1.2029,-1.1959,-1.1988,-1.2224,-1.1846,-1.15,-1.134,-1.1116,-1.0832,-1.0366,-1.0312,-1.0147,-0.9761,-0.9544,-0.9203,-0.8906,-0.8834,-0.8501,-0.8017,-0.8271,-0.8229,-0.7989,-0.7989,-0.7989,-0.7934,-0.7718,-0.7378,-0.7005,-0.6921,-0.6696,-0.6421,-0.6346,-0.6313,-0.6239,-0.5875,-0.5422,-0.5104,-0.5067,-0.5037,-0.4969,-0.4957,-0.4751,-0.4481,-0.4053,-0.3784,-0.3534,-0.3281,-0.3029,-0.2775,-0.2573,-0.2472,-0.2321,-0.1818,-0.2322,-0.2775,-0.2472,-0.2657,-0.2789,-0.2524,-0.2011,-0.165,-0.1591,-0.1029,-0.0619,-0.0776,-0.0419,-0.0105,-0.0052,0.041,0.0815,0.1133,0.1186,0.1556,0.2475,0.2702,0.3041,0.3665,0.4236,0.4462,0.439,0.4836,0.5032,0.4953,0.5045,0.509,0.509,0.545,0.5757,0.6073,0.6613,0.688,0.6837,0.7209,0.7408,0.7629,0.8332,0.8809,0.9062,0.8976,0.8918,0.8918,0.8971,0.9156,0.9463,-1.449,-1.4394,-1.425,-1.4118,-1.4118,-1.3973,-1.3539,-1.3539,-1.3346,-1.2856,-1.2807,-1.2662,-1.2273,-1.1924,-1.1829,-1.2023,-1.1539,-1.1212,-1.1212,-1.0975,-1.0857,-1.0747,-1.0582,-1.0366,-1.0091,-0.9761,-0.9379,-0.8885,-0.8691,-0.8468,-0.8263,-0.8185,-0.8081,-0.7989,-0.7989,-0.7934,-0.7771,-0.7662,-0.7406,-0.7073,-0.6844,-0.6691,-0.6626,-0.6511,-0.6322,-0.6081,-0.5654,-0.545,-0.5411,-0.5241,-0.5157,-0.5061,-0.4903,-0.4732,-0.456,-0.4015,-0.3738,-0.3579,-0.329,-0.3153,-0.3076,-0.2922,-0.2665,-0.2408,-0.2153,-0.2239,-0.2323,-0.2222,-0.2388,-0.2613,-0.2537,-0.2178,-0.1769,-0.1418,-0.1106,-0.0791,-0.0422,-0.0265,-0.016,0.0,0.0317,0.0687,0.1055,0.1223,0.1602,0.2291,0.2592,0.2896,0.3264,0.3842,0.4194,0.4318,0.4697,0.4929,0.5049,0.5139,0.513,0.5184,0.5506,0.58,0.6013,0.655,0.6845,0.6961,0.7441,0.7594,0.755,0.836,0.8605,0.8584,0.8867,0.903,0.903,0.9186,0.9295,0.9444]},{"header":{"parameterUnit":"m.s-1","parameterCategory":1,"la1":30.6,"la2":28.766,"lo1":-90.7593,"lo2":-88.6598,"dy":0.0162,"dx":0.0183,"nx":116,"ny":114,"refTime":"2024-04-20T00:00:00:Z","depth":0,"parameterNumber":3,"parameterNumberName":"V-component_of_WINDS"},"data":[0.0,0.0,0.0,0.0,0.0,0.0,0.0,0.0,0.0,0.0,0.0,0.0,0.0,0.0,0.0,0.0,0.0,0.0,0.0,0.0,0.0,0.0,0.0,0.0,0.0,0.0,0.0,0.0,0.0,0.0,0.0,0.0,0.0,0.0,0.0,0.0,0.0,0.0,0.0,0.0,0.0,0.0,0.0,0.0,0.0,0.0,0.0,0.0,0.0,0.0,0.0,0.0,0.0,0.0,0.0,0.0,0.0,0.0,0.0,0.0,0.0,0.0,0.0,0.0,0.0,0.0,0.0,0.0,0.0,0.0,0.0,0.0,0.0,0.0,0.0,0.0,0.0,0.0,0.0,0.0,0.0,0.0,0.0,0.0,0.0,0.0,0.0,0.0,0.0,0.0,0.0,0.0,0.0,0.0,0.0,0.0,0.0,0.0,0.0,0.0,0.0,0.0,0.0,0.0,0.0,0.0,0.0,0.0,0.0,0.0,0.0,0.0,0.0,0.0,0.0,0.0,0.0,0.0,0.0,0.0,0.0,0.0,0.0,0.0,0.0,0.0,0.0,0.0,0.0,0.0,0.0,0.0,0.0,0.0,0.0,0.0,0.0,0.0,0.0,0.0,0.0,0.0,0.0,0.0,0.0,0.0,0.0,0.0,0.0,0.0,0.0,0.0,0.0,0.0,0.0,0.0,0.0,0.0,0.0,0.0,0.0,0.0,0.0,0.0,0.0,0.0,0.0,0.0,0.0,0.0,0.0,0.0,0.0,0.0,0.0,0.0,0.0,0.0,0.0,0.0,0.0,0.0,0.0,0.0,0.0,0.0,0.0,0.0,0.0,0.0,0.0,0.0,0.0,0.0,0.0,0.0,0.0,0.0,0.0,0.0,0.0,0.0,0.0,0.0,0.0,0.0,0.0,0.0,0.0,0.0,0.0,0.0,0.0,0.0,0.0,0.0,0.0,0.0,0.0,0.0,0.0,0.0,0.0,0.0,0.0,0.0,0.0,0.0,0.0,0.0,0.0,0.0,0.0,0.0,0.0,0.0,0.0,0.0,0.0,0.0,0.0,0.0,0.0,0.0,0.0,0.0,0.0,0.0,0.0,0.0,0.0,0.0,0.0,0.0,0.0,0.0,0.0,0.0,0.0,0.0,0.0,0.0,0.0,0.0,0.0,0.0,0.0,0.0,0.0,0.0,0.0,0.0,0.0,0.0,0.0,0.0,0.0,0.0,0.0,0.0,0.0,0.0,0.0,0.0,0.0,0.0,0.0,0.0,0.0,0.0,0.0,0.0,0.0,0.0,0.0,0.0,0.0,0.0,0.0,0.0,0.0,0.0,0.0,0.0,0.0,0.0,0.0,0.0,0.0,0.0,0.0,0.0,0.0,0.0,0.0,0.0,0.0,0.0,0.0,0.0,0.0,0.0,0.0,0.0,0.0,0.0,0.0,0.0,0.0,0.0,0.0,0.0,0.0,0.0,0.0,0.0,0.0,0.0,0.0,0.0,0.0,0.0,0.0,0.0,0.0,0.0,0.0,0.0,0.0,0.0,0.0,0.0,0.0,0.0,0.0,0.0,0.0,0.0,0.0,0.0,0.0,0.0,0.0,0.0,0.0,0.0,0.0,0.0,0.0,0.0,0.0,0.0,0.0,0.0,0.0,0.0,0.0,0.0,0.0,0.0,0.0,0.0,0.0,0.0,0.0,0.0,0.0,0.0,0.0,0.0,0.0,0.0,0.0,0.0,0.0,0.0,0.0,0.0,0.0,0.0,0.0,0.0,0.0,0.0,0.0,0.0,0.0,0.0,0.0,0.0,0.0,0.0,0.0,0.0,0.0,0.0,0.0,0.0,0.0,0.0,0.0,0.0,0.0,0.0,0.0,0.0,0.0,0.0,0.0,0.0,0.0,0.0,0.0,0.0,0.0,0.0,0.0,0.0,0.0,0.0,0.0,0.0,0.0,0.0,0.0,0.0,0.0,0.0,0.0,0.0,0.0,0.0,0.0,0.0,0.0,0.0,0.0,0.0,0.0,0.0,0.0,0.0,0.0,0.0,0.0,0.0,0.0,0.0,0.0,0.0,0.0,0.0,0.0,0.0,0.0,0.0,0.0,0.0,0.0,0.0,0.0,0.0,0.0,0.0,0.0,0.0,0.0,0.0,0.0,0.0,0.0,0.0,0.0,0.0,0.0,0.0,0.0,0.0,0.0,0.0,0.0,0.0,0.0,0.0,0.0,0.0,0.0,0.0,0.0,0.0,0.0,0.0,0.0,0.0,0.0,0.0,0.0,0.0,0.0,0.0,0.0,0.0,0.0,0.0,0.0,0.0,0.0,0.0,0.0,0.0,0.0,0.0,0.0,0.0,0.0,0.0,0.0,0.0,0.0,0.0,0.0,0.0,0.0,0.0,0.0,0.0,0.0,0.0,0.0,0.0,0.0,0.0,0.0,0.0,0.0,0.0,0.0,0.0,0.0,0.0,0.0,0.0,0.0,0.0,0.0,0.0,0.0,0.0,0.0,0.0,0.0,0.0,0.0,0.0,0.0,0.0,0.0,0.0,0.0,0.0,0.0,0.0,0.0,0.0,0.0,0.0,0.0,0.0,0.0,0.0,0.0,0.0,0.0,0.0,0.0,0.0,0.0,0.0,0.0,0.0,0.0,0.0,0.0,0.0,0.0,0.0,0.0,0.0,0.0,0.0,0.0,0.0,0.0,0.0,0.0,0.0,0.0,0.0,0.0,0.0,0.0,0.0,0.0,0.0,0.0,0.0,0.0,0.0,0.0,0.0,0.0,0.0,0.0,0.0,0.0,0.0,0.0,0.0,0.0,0.0,0.0,0.0,0.0,0.0,0.0,0.0,0.0,0.0,0.0,0.0,0.0,0.0,0.0,0.0,0.0,0.0,0.0,0.0,0.0,0.0,0.0,0.0,0.0,0.0,0.0,0.0,0.0,0.0,0.0,0.0,0.0,0.0,0.0,0.0,0.0,0.0,0.0,0.0,0.0,0.0,0.0,0.0,0.0,0.0,0.0,0.0,0.0,0.0,0.0,0.0,0.0,0.0,0.0,0.0,0.0,0.0,0.0,0.0,0.0,0.0,0.0,0.0,0.0,0.0,0.0,0.0,0.0,0.0,0.0,0.0,0.0,0.0,0.0,0.0,0.0,0.0,0.0,0.0,0.0,0.0,0.0,0.0,0.0,0.0,0.0,0.0,0.0,0.0,0.0,0.0,0.0,0.0,0.0,0.0,0.0,0.0,0.0,0.0,0.0,0.0,0.0,0.0,0.0,0.0,0.0,0.0,0.0,0.0,0.0,0.0,0.0,0.0,0.0,0.0,0.0,0.0,0.0,0.0,0.0,0.0,0.0,0.0,0.0,0.0,0.0,0.0,0.0,0.0,0.0,0.0,0.0,0.0,0.0,0.0,0.0,0.0,0.0,0.0,0.0,0.0,0.0,0.0,0.0,0.0,0.0,0.0,0.0,0.0,0.0,0.0,0.0,0.0,0.0,0.0,0.0,0.0,0.0,0.0,0.0,0.0,0.0,0.0,0.0,0.0,0.0,0.0,0.0,0.0,0.0,0.0,0.0,0.0,0.0,0.0,0.0,0.0,0.0,0.0,0.0,0.0,0.0,0.0,0.0,0.0,0.0,0.0,0.0,0.0,0.0,0.0,0.0,0.0,0.0,0.0,0.0,0.0,0.0,0.0,0.0,0.0,0.0,0.0,0.0,0.0,0.0,0.0,0.0,0.0,0.0,0.0,0.0,0.0,0.0,0.0,0.0,0.0,0.0,0.0,0.0,0.0,0.0,0.0,0.0,0.0,0.0,0.0,0.0,0.0,0.0,0.0,0.0,0.0,0.0,0.0,0.0,0.0,0.0,0.0,0.0,0.0,0.0,0.0,0.0,0.0,0.0,0.0,0.0,0.0,0.0,0.0,0.0,0.0,0.0,0.0,0.0,0.0,0.0,0.0,0.0,0.0,0.0,0.0,0.0,0.0,0.0,0.0,0.0,0.0,0.0,0.0,0.0,0.0,0.0,0.0,0.0,0.0,0.0,0.0,0.0,0.0,0.0,0.0,0.0,0.0,0.0,0.0,0.0,0.0,0.0,0.0,0.0,0.0,0.0,0.0,0.0,0.0,0.0,0.0,0.0,0.0,0.0,0.0,0.0,0.0,0.0,0.0,0.0,0.0,0.0,0.0,0.0,0.0,0.0,0.0,0.0,0.0,0.0,0.0,0.0,0.0,0.0,0.0,0.0,0.0,0.0,0.0,0.0,0.0,0.0,0.0,0.0,0.0,0.0,0.0,0.0,0.0,0.0,0.0,0.0,0.0,0.0,0.0,0.0,0.0,0.0,0.0,0.0,0.0,0.0,0.0,0.0,0.0,0.0,0.0,0.0,0.0,0.0,0.0,0.0,0.0,0.0,0.0,0.0,0.0,0.0,0.0,0.0,0.0,0.0,0.0,0.0,0.0,0.0,0.0,0.0,0.0,0.0,0.0,0.0,0.0,0.0,0.0,0.0,0.0,0.0,0.0,0.0,0.0,0.0,0.0,0.0,0.0,0.0,0.0,0.0,0.0,0.0,0.0,0.0,0.0,0.0,0.0,0.0,0.0,0.0,0.0,0.0,0.0,0.0,0.0,0.0,0.0,0.0,0.0,0.0,0.0,0.0,0.0,0.0,0.0,0.0,0.0,0.0,0.0,0.0,0.0,0.0,0.0,0.0,0.0,0.0,0.0,0.0,0.0,0.0,0.0,0.0,0.0,0.0,0.0,0.0,0.0,0.0,0.0,0.0,0.0,0.0,0.0,0.0,0.0,0.0,0.0,0.0,0.0,0.0,0.0,0.0,0.0,0.0,0.0,0.0,0.0,0.0,0.0,0.0,0.0,0.0,0.0,0.0,0.0,0.0,0.0,0.0,0.0,0.0,0.0,0.0,0.0,0.0,0.0,0.0,0.0,0.0,0.0,0.0,0.0,0.0,0.0,0.0,0.0,0.0,0.0,0.0,0.0,0.0,0.0,0.0,0.0,0.0,0.0,0.0,0.0,0.0,0.0,0.0,0.0,0.0,0.0,0.0,0.0,0.0,0.0,0.0,0.0,0.0,0.0,0.0,0.0,0.0,0.0,0.0,0.0,0.0,0.0,0.0,0.0,0.0,0.0,0.0,0.0,0.0,0.0,0.0,0.0,0.0,0.0,0.0,0.0,0.0,0.0,0.0,0.0,0.0,0.0,0.0,0.0,0.0,0.0,0.0,0.0,0.0,0.0,0.0,0.0,0.0,0.0,0.0,0.0,0.0,0.0,0.0,0.0,0.0,0.0,0.0,0.0,0.0,0.0,0.0,0.0,0.0,0.0,0.0,0.0,0.0,0.0,0.0,0.0,0.0,0.0,0.0,0.0,0.0,0.0,0.0,0.0,0.0,0.0,0.0,0.0,0.0,0.0,0.0,0.0,0.0,0.0,0.0,0.0,0.0,0.0,0.0,0.0,0.0,0.0,0.0,0.0,0.0,0.0,0.0,0.0,0.0,0.0,0.0,0.0,0.0,0.0,0.0,0.0,0.0,0.0,0.0,0.0,0.0,0.0,0.0,0.0,0.0,0.0,0.0,0.0,0.0,0.0,0.0,0.0,0.0,0.0,0.0,0.0,0.0,0.0,0.0,0.0,0.0,0.0,0.0,0.0,0.0,0.0,0.0,0.0,0.0,0.0,0.0,0.0,0.0,0.0,0.0,0.0,0.0,0.0,0.0,0.0,0.0,0.0,0.0,0.0,0.0,0.0,0.0,0.0,0.0,0.0,0.0,0.0,0.0,0.0,0.0,0.0,0.0,0.0,0.0,0.0,0.0,0.0,0.0,0.0,0.0,0.0,0.0,0.0,0.0,0.0,0.0,0.0,0.0,0.0,0.0,0.0,0.0,0.0,0.0,0.0,0.0,0.0,0.0,0.0,0.0,0.0,0.0,0.0,0.0,0.0,0.0,0.0,0.0,0.0,0.0,0.0,0.0,0.0,0.0,0.0,0.0,0.0,0.0,0.0,0.0,0.0,0.0,0.0,0.0,0.0,0.0,0.0,0.0,0.0,0.0,0.0,0.0,0.0,2.4242,2.297,0.0,0.0,0.0,0.0,0.0,0.0,0.0,0.0,0.0,0.0,0.0,0.0,0.0,0.0,0.0,0.0,0.0,0.0,0.0,0.0,0.0,0.0,0.0,1.5325,1.5136,1.5134,1.5284,1.5226,1.4877,0.0,0.0,0.0,0.0,0.0,1.3844,1.2559,1.2275,1.3089,1.1816,1.1598,1.2372,1.2716,1.3578,1.4854,0.0,0.0,0.0,0.0,0.0,0.0,0.0,0.0,0.0,0.0,0.0,0.0,0.0,0.0,0.0,0.0,0.0,0.0,0.0,0.0,0.0,0.0,0.0,0.0,0.0,0.0,0.0,0.0,0.0,0.0,0.0,0.0,0.0,0.0,0.0,0.0,0.0,0.0,0.0,0.0,0.0,0.0,0.0,0.0,0.0,0.0,0.0,0.0,0.0,0.0,0.0,0.0,0.0,0.0,0.0,0.0,0.0,0.0,0.0,0.0,0.0,0.0,0.0,0.0,0.0,0.0,0.0,0.0,0.0,0.0,2.6461,2.5337,0.0,0.0,0.0,0.0,0.0,0.0,0.0,0.0,0.0,0.0,0.0,0.0,0.0,0.0,0.0,0.0,0.0,0.0,0.0,0.0,0.0,1.4706,1.5127,1.5348,1.5423,1.5305,1.5446,1.5349,1.4813,1.4825,1.4936,1.5075,1.4384,1.3993,1.396,1.3123,1.3036,1.3763,1.3202,1.2708,1.2304,1.4178,1.5415,1.6148,0.0,0.0,0.0,0.0,0.0,0.0,0.0,0.0,0.0,0.0,0.0,0.0,0.0,0.0,0.0,0.0,0.0,0.0,0.0,0.0,0.0,0.0,0.0,0.0,0.0,0.0,0.0,0.0,0.0,0.0,0.0,0.0,0.0,0.0,0.0,0.0,0.0,0.0,0.0,0.0,0.0,0.0,0.0,0.0,0.0,0.0,0.0,0.0,0.0,0.0,0.0,0.0,0.0,0.0,0.0,0.0,0.0,0.0,0.0,0.0,0.0,0.0,0.0,0.0,3.012,3.0574,3.097,3.1076,3.1052,3.0855,2.8865,2.8114,2.8184,2.6605,0.0,0.0,0.0,0.0,0.0,0.0,0.0,0.0,0.0,0.0,0.0,0.0,0.0,0.0,0.0,0.0,0.0,0.0,0.0,1.4325,1.4282,1.4446,1.4538,1.4452,1.4544,1.462,1.4714,1.4713,1.4817,1.4992,1.4901,1.4794,1.4676,1.3877,1.3764,1.4381,1.4854,1.4356,1.3028,1.5865,1.6915,1.6453,1.6826,0.0,0.0,0.0,0.0,0.0,0.0,0.0,0.0,0.0,0.0,0.0,0.0,0.0,0.0,0.0,0.0,0.0,0.0,0.0,0.0,0.0,0.0,0.0,0.0,0.0,0.0,0.0,0.0,0.0,0.0,0.0,0.0,0.0,0.0,0.0,0.0,0.0,0.0,0.0,0.0,0.0,0.0,0.0,2.0963,2.1895,0.0,0.0,0.0,0.0,0.0,0.0,0.0,0.0,0.0,0.0,0.0,0.0,0.0,2.8943,2.9709,3.1262,3.2166,3.2403,3.4637,3.4973,3.3718,3.4456,3.4353,3.3576,3.3308,0.0,2.9823,2.8906,0.0,0.0,0.0,0.0,0.0,0.0,0.0,0.0,0.0,0.0,0.0,0.0,0.0,0.0,0.0,0.0,0.0,0.0,0.0,0.0,0.0,1.5295,1.5365,1.5368,1.5886,1.5717,1.4608,1.4954,1.5083,1.4845,1.4752,1.4681,1.4622,1.4696,1.4844,1.5062,1.5239,1.498,1.4329,1.5987,1.6808,1.6941,1.7888,1.8412,1.8522,1.7872,0.0,0.0,0.0,0.0,0.0,0.0,0.0,0.0,0.0,0.0,0.0,0.0,0.0,0.0,0.0,0.0,0.0,0.0,0.0,0.0,0.0,0.0,0.0,0.0,0.0,0.0,0.0,0.0,0.0,0.0,0.0,0.0,0.0,0.0,0.0,0.0,0.0,0.0,0.0,2.1751,2.3296,2.2385,2.3532,2.3893,0.0,0.0,0.0,0.0,0.0,0.0,0.0,0.0,0.0,3.0317,3.123,3.1913,3.2335,3.3517,3.4373,3.4937,3.604,3.6205,3.5506,3.5887,3.5599,3.4743,3.428,3.3677,3.2916,3.1604,3.0041,2.8278,0.0,0.0,0.0,0.0,2.4472,2.4537,0.0,0.0,0.0,0.0,0.0,0.0,0.0,0.0,0.0,0.0,0.0,0.0,1.5558,1.5984,1.6176,1.6218,1.6698,1.633,1.4806,1.5062,1.5074,1.4642,1.4513,1.4522,1.4684,1.5374,1.5546,1.5091,1.5495,1.5467,1.5076,1.6098,1.6767,1.7163,1.8941,1.9632,1.9452,1.9291,1.866,0.0,0.0,0.0,0.0,0.0,0.0,0.0,0.0,0.0,0.0,0.0,0.0,0.0,0.0,0.0,0.0,0.0,0.0,0.0,0.0,0.0,0.0,0.0,0.0,0.0,0.0,0.0,0.0,0.0,0.0,0.0,0.0,0.0,0.0,0.0,0.0,0.0,0.0,2.3538,2.494,2.3486,2.5622,2.6376,0.0,0.0,0.0,0.0,0.0,0.0,2.9494,3.104,3.2042,3.2319,3.3555,3.4263,3.4308,3.4904,3.5736,3.6806,3.6616,3.664,3.6824,3.6627,3.6088,3.5255,3.4592,3.4517,3.4751,3.3268,3.1938,3.0634,2.9112,2.8331,2.8002,2.738,2.6892,2.6767,0.0,0.0,0.0,0.0,0.0,0.0,0.0,0.0,0.0,0.0,0.0,1.465,1.4762,1.5685,1.6292,1.63,1.5703,1.5382,1.553,1.4792,1.438,1.4414,1.435,1.4578,1.5146,1.5825,1.5452,1.3973,1.6011,1.6188,1.4676,1.6874,1.7516,1.6911,1.9304,2.0489,2.067,1.9829,1.9974,2.0579,0.0,0.0,0.0,0.0,0.0,0.0,0.0,0.0,0.0,0.0,0.0,0.0,0.0,0.0,0.0,0.0,0.0,0.0,0.0,0.0,0.0,0.0,0.0,0.0,0.0,0.0,0.0,0.0,0.0,0.0,0.0,0.0,0.0,0.0,0.0,0.0,0.0,0.0,0.0,2.646,2.7492,0.0,0.0,0.0,0.0,2.8175,2.9852,3.1205,3.1967,3.2996,3.395,3.4802,3.5024,3.5143,3.5151,3.5185,3.6031,3.7636,3.6922,3.7004,3.7704,3.6941,3.6117,3.5293,3.5187,3.4688,3.3884,3.2977,3.2512,3.2289,3.137,3.0467,2.9691,2.9706,3.0126,3.0715,0.0,0.0,0.0,0.0,0.0,1.4452,1.4404,1.3598,1.3222,1.3821,1.3797,1.4168,1.5284,1.6206,1.6806,1.6932,1.6737,1.6292,1.5513,1.4974,1.4748,1.4854,1.4589,1.4817,1.5626,1.4821,1.465,1.5116,1.5337,1.5585,1.5896,1.6669,1.7126,1.7384,1.88,1.974,2.0321,2.0773,2.0962,2.0809,1.9358,1.7917,0.0,0.0,0.0,0.0,0.0,0.0,0.0,0.0,0.0,0.0,0.0,0.0,0.0,0.0,0.0,0.0,0.0,0.0,0.0,0.0,0.0,0.0,0.0,0.0,0.0,0.0,0.0,0.0,0.0,0.0,0.0,0.0,0.0,0.0,0.0,0.0,0.0,2.8278,2.9954,0.0,2.8779,3.0732,3.189,3.1416,3.3032,3.3963,3.3821,3.4234,3.4851,3.5684,3.579,3.6121,3.6728,3.6747,3.7327,3.845,3.7683,3.747,3.771,3.69,3.6074,3.5266,3.4671,3.4555,3.4666,3.3745,3.3363,3.3294,3.2955,3.2579,3.2184,3.1646,3.16,3.1827,0.0,0.0,0.0,0.0,0.0,1.4253,1.3908,1.3294,1.3075,1.3659,1.3871,1.4525,1.5953,1.6681,1.712,1.7246,1.6932,1.633,1.5397,1.5097,1.4964,1.4931,1.4864,1.5137,1.5772,1.4724,1.4662,1.5666,1.5341,1.5614,1.6469,1.6714,1.7087,1.7576,1.8471,1.9154,1.9702,2.1001,2.1344,2.0964,1.9878,1.8714,1.7613,0.0,0.0,0.0,0.0,0.0,0.0,0.0,0.0,0.0,0.0,0.0,0.0,0.0,0.0,0.0,0.0,0.0,0.0,0.0,0.0,0.0,0.0,0.0,0.0,0.0,0.0,0.0,0.0,0.0,0.0,0.0,0.0,0.0,0.0,0.0,2.9885,2.9771,3.1734,3.2575,3.1207,3.3266,3.4581,3.4367,3.5236,3.5563,3.5104,3.5172,3.549,3.6039,3.6432,3.6919,3.7557,3.7595,3.8042,3.8852,3.805,3.7811,3.8031,3.6931,3.6154,3.5627,3.4746,3.4666,3.5072,3.4438,3.4148,3.4131,3.4112,3.4235,3.43,3.3459,3.2968,3.2646,0.0,0.0,0.0,0.0,0.0,1.3936,1.2938,1.3228,1.3507,1.3412,1.4639,1.5792,1.6563,1.6971,1.719,1.7173,1.6086,1.5335,1.5239,1.514,1.496,1.4665,1.5172,1.5495,1.5585,1.563,1.5554,1.5355,1.6096,1.6348,1.6224,1.705,1.7434,1.7441,1.8337,1.8798,1.8981,2.0346,2.1102,2.125,1.9766,1.9624,2.0058,0.0,0.0,0.0,0.0,0.0,0.0,0.0,0.0,0.0,0.0,0.0,0.0,0.0,0.0,0.0,0.0,0.0,0.0,0.0,0.0,0.0,0.0,0.0,0.0,0.0,0.0,0.0,0.0,0.0,0.0,0.0,0.0,0.0,2.9345,2.9692,3.0071,3.1007,3.281,3.3647,3.2797,3.4519,3.5988,3.6733,3.6288,3.5938,3.5843,3.5889,3.5988,3.6071,3.6959,3.7476,3.7565,3.7614,3.8033,3.8832,3.7976,3.7976,3.8699,3.7024,3.631,3.6354,3.5491,3.5104,3.5068,3.5003,3.4945,3.4874,3.4888,3.5322,3.5872,3.509,3.4249,3.3378,0.0,0.0,0.0,1.3787,1.35,1.3226,1.2785,1.2515,1.2679,1.3506,1.4631,1.5367,1.5399,1.6424,1.6951,1.6501,1.5669,1.5367,1.5823,1.5106,1.4979,1.5722,1.4981,1.4811,1.5368,1.488,1.4538,1.438,1.5037,1.5637,1.6207,1.6399,1.68,1.7329,1.77,1.8135,1.8647,1.9123,1.9986,2.0989,2.0634,2.0437,2.0228,0.0,0.0,0.0,0.0,0.0,0.0,0.0,0.0,0.0,0.0,0.0,0.0,0.0,0.0,0.0,0.0,0.0,0.0,0.0,0.0,0.0,0.0,0.0,0.0,0.0,0.0,0.0,0.0,0.0,0.0,0.0,2.7402,2.8862,3.0202,3.1495,3.2669,3.3696,3.4857,3.5487,3.5308,3.644,3.7055,3.6749,3.7168,3.7175,3.6633,3.6703,3.7047,3.7652,3.8022,3.8518,3.922,3.8683,3.8828,3.9656,3.7624,3.7091,3.7794,3.6178,3.5768,3.6301,3.6074,3.6264,3.6727,3.6658,3.6594,3.6432,3.5281,3.492,3.5028,3.4741,3.4367,3.388,0.0,0.0,0.0,1.379,1.3227,1.29,1.2939,1.2468,1.2545,1.3786,1.4563,1.5092,1.5297,1.5827,1.6054,1.5736,1.5321,1.5103,1.5094,1.5211,1.572,1.669,1.5967,1.5729,1.6127,1.517,1.4734,1.4869,1.5183,1.5616,1.6154,1.6361,1.6714,1.7216,1.7349,1.7625,1.7975,1.8389,1.9096,1.9997,2.0553,2.0894,2.0935,1.9685,1.9521,1.9896,1.9543,1.9837,2.0319,2.0055,0.0,0.0,0.0,0.0,0.0,0.0,0.0,0.0,0.0,0.0,0.0,0.0,0.0,0.0,0.0,0.0,0.0,0.0,0.0,0.0,0.0,0.0,0.0,0.0,2.945,3.0467,3.1476,3.2586,3.3795,3.5117,3.5791,3.6311,3.6684,3.7363,3.7775,3.7708,3.7938,3.7885,3.7436,3.7498,3.7795,3.8269,3.8733,3.9245,3.9848,3.9426,3.9298,3.9483,3.8012,3.7556,3.8002,3.6663,3.6521,3.7319,3.6948,3.7023,3.7399,3.7368,3.7087,3.6632,0.0,0.0,0.0,0.0,3.4498,3.3755,0.0,0.0,0.0,1.41,1.3249,1.276,1.3277,1.2851,1.292,1.4173,1.4556,1.4948,1.5571,1.521,1.4893,1.4889,1.5007,1.4819,1.4191,1.5567,1.6774,1.7574,1.7297,1.7143,1.7133,1.5901,1.5435,1.5822,1.5708,1.5769,1.5975,1.6435,1.6815,1.7085,1.7211,1.7236,1.724,1.7954,1.8372,1.865,1.989,2.0959,2.1733,2.0491,2.0488,2.1161,2.1103,2.0784,2.0403,2.0347,0.0,0.0,0.0,0.0,0.0,0.0,0.0,0.0,0.0,0.0,0.0,0.0,0.0,0.0,0.0,0.0,0.0,0.0,0.0,0.0,0.0,0.0,0.0,0.0,3.1453,3.2103,3.3061,3.3476,3.4222,3.5607,3.6131,3.6644,3.7372,3.7712,3.8243,3.9031,3.8592,3.8259,3.8214,3.829,0.0,0.0,0.0,3.9647,3.977,3.9761,3.9467,3.8902,3.8567,3.8529,3.8741,3.7733,3.7809,3.8722,3.7973,3.7639,3.7654,3.7664,3.711,3.6306,3.6825,3.6948,3.6756,3.5987,3.4808,3.3652,0.0,0.0,1.3474,1.3351,1.2532,1.2277,1.3451,1.3284,1.3404,1.4406,1.505,1.509,1.4223,1.4591,1.4692,1.4169,1.4613,1.5505,1.6834,1.6657,1.7013,1.817,1.6568,1.5774,1.608,1.5368,1.4659,1.4003,1.4084,1.4476,1.5128,1.5185,1.5846,1.703,1.7055,1.7084,1.7133,1.7288,1.7713,1.8366,1.9247,2.0174,2.1052,2.1253,2.1437,2.1529,2.108,2.1247,2.1608,2.128,2.1084,2.0861,2.0158,0.0,0.0,0.0,0.0,0.0,0.0,0.0,0.0,0.0,0.0,0.0,0.0,0.0,0.0,0.0,0.0,0.0,0.0,0.0,0.0,3.1151,3.255,3.3765,3.4785,3.5612,3.6031,3.5758,3.7051,3.8045,3.8253,3.8474,3.8711,3.9007,3.8915,3.8864,3.8901,3.8968,3.9008,3.904,3.9352,3.9539,3.9563,3.9094,3.9074,3.9513,3.7535,0.0,3.8504,3.7034,3.7188,3.8626,3.8509,3.8769,3.9263,3.9301,3.8743,3.7727,3.6482,3.5967,3.5977,3.6348,3.6259,3.5948,0.0,1.4357,1.3803,1.3157,1.2662,1.2742,1.3916,1.3667,1.3777,1.4951,1.5132,1.4795,1.3852,1.4138,1.4264,1.3931,1.4082,1.5304,1.7928,1.677,1.6575,1.784,1.6934,1.6099,1.5463,1.5223,1.4821,1.424,1.4288,1.4653,1.5356,1.5591,1.6072,1.6699,1.6763,1.6844,1.6911,1.7041,1.7353,1.7833,1.8914,1.9665,2.0249,2.1268,2.1649,2.1615,2.1354,2.1582,2.191,2.1336,2.1253,2.1148,2.0008,1.9906,1.9858,0.0,0.0,0.0,0.0,0.0,0.0,0.0,0.0,0.0,0.0,0.0,0.0,0.0,0.0,2.6113,2.7961,0.0,3.1359,3.2774,3.3811,3.4656,3.5271,3.6123,3.6762,3.6931,3.7814,3.8415,3.8446,3.8667,3.8833,3.8935,3.9007,3.9059,3.9101,3.917,3.9197,3.9197,3.9324,3.9439,3.9514,3.879,3.8648,3.9032,3.7385,3.7254,3.8422,3.7615,3.795,3.9143,3.9195,3.9381,3.9663,3.9313,3.8844,3.8263,3.6918,3.6325,3.6285,3.6589,3.6413,3.6096,0.0,0.0,1.4414,1.3458,1.3142,1.338,1.446,1.4135,1.4161,1.5284,1.5009,1.4468,1.3825,1.3811,1.3966,1.4207,1.416,1.5353,0.0,1.7003,1.6508,1.7358,1.7491,1.6835,1.5277,1.5375,1.5359,1.5145,1.4972,1.5206,1.5791,1.6212,1.6418,1.6398,1.6503,1.6594,1.667,1.6924,1.712,1.7363,1.873,1.9358,1.9602,2.1017,2.1491,2.136,2.1197,2.1279,2.138,2.0838,2.0763,2.0677,1.9345,1.9581,1.9967,1.8021,1.8663,0.0,0.0,0.0,0.0,0.0,0.0,0.0,0.0,0.0,2.2716,2.4496,2.6152,2.7928,3.0013,3.1386,3.2681,3.4067,3.4852,3.5279,3.5292,3.6199,3.7073,3.7652,3.8089,3.8334,3.8334,3.8572,3.8773,3.8851,3.8979,3.9045,3.9059,3.9115,3.9142,3.9142,3.9205,3.9311,3.9427,3.8651,3.8281,3.8312,3.7312,3.735,3.8312,3.8174,3.8672,3.9665,3.9665,3.9677,3.9663,3.8973,3.8603,3.8377,3.761,3.7212,3.7031,3.698,3.6459,3.5888,0.0,0.0,0.0,1.4388,1.3646,1.3533,1.4826,1.4872,1.4751,1.4805,1.4788,1.4494,1.3707,1.3682,1.4173,1.5303,1.5937,1.6925,1.8502,1.8422,1.8059,1.7441,1.7408,1.6886,1.5751,1.591,1.5892,1.5619,1.5135,1.5172,1.5706,1.5773,1.5987,1.6315,1.6382,1.6463,1.6525,1.667,1.686,1.7165,1.8692,1.9272,1.939,2.0865,2.1103,2.051,1.9758,1.953,1.9626,1.9787,1.9844,1.9755,1.9164,1.9979,2.0841,1.9256,0.0,2.0567,2.04,2.0775,2.1633,2.3509,2.2488,2.1891,0.0,0.0,2.5246,2.7165,2.8744,2.9993,3.0628,3.2018,3.3189,3.3546,3.5102,3.6007,3.5381,3.6717,3.7322,3.6121,3.7252,3.8135,3.8135,3.8382,3.859,3.8704,3.8792,3.8848,3.8921,3.8921,3.8921,3.8921,3.9059,3.9129,3.9137,3.852,3.8166,3.8027,3.6558,3.6633,3.8008,3.7362,3.7972,3.9526,3.9526,3.9587,3.9689,3.9481,3.8975,3.8317,3.8139,3.7997,3.7869,3.7921,3.7443,3.6852,0.0,0.0,0.0,1.5197,1.4867,1.4694,1.5149,1.5465,1.5643,1.5583,1.52,1.4791,1.4452,1.3922,1.4135,1.5484,1.5358,0.0,1.8444,1.7471,1.7176,1.8062,1.7318,1.643,1.5472,1.5948,1.6103,1.5879,1.5613,1.5923,1.6741,1.6399,1.6414,1.6746,1.6473,1.6328,1.6328,1.6541,1.6688,1.6865,1.8017,1.8757,1.9188,1.9237,1.9441,1.9686,1.9637,1.9456,0.0,0.0,1.9443,1.9485,1.8984,1.9866,2.0763,1.9173,2.0264,0.0,2.28,2.3112,0.0,0.0,2.4992,2.5153,2.6731,2.6782,2.6866,2.8193,2.9386,3.0283,3.0519,3.2416,3.4015,0.0,3.5757,3.6756,3.6147,3.6612,3.6646,3.5653,3.6149,3.6662,3.6853,3.6981,3.732,3.8015,3.8051,3.828,3.88,3.8881,3.8848,3.8725,3.8444,3.8289,3.8285,3.757,3.7442,3.7875,3.7219,3.7257,3.7894,3.813,3.8682,3.9407,3.8915,3.8715,3.8752,3.8702,3.8533,3.8293,3.824,3.8209,3.8159,3.7529,3.7372,3.7396,0.0,0.0,0.0,1.5694,1.5705,1.5572,1.5371,1.5906,1.6239,1.5953,1.5594,1.5272,1.503,1.4477,1.4425,1.5201,1.5191,0.0,0.0,1.6931,1.6792,1.7973,1.7214,1.6359,1.549,1.6198,1.6483,1.6269,1.6197,1.6518,1.7225,1.6941,1.6792,1.6755,1.6565,1.632,1.6097,1.6445,1.6633,1.6751,1.758,1.8292,1.8776,1.8111,1.8183,1.8674,1.8949,1.894,0.0,0.0,1.8887,1.9304,1.8678,1.9574,2.0661,1.9658,2.1141,2.3325,2.4246,0.0,0.0,2.615,2.7034,2.7727,2.7875,2.8079,2.8437,2.9179,2.9932,3.0554,3.0773,3.266,3.4246,3.4337,3.5934,3.6827,3.6022,3.6202,3.5988,3.4875,3.496,3.5143,3.5254,3.5894,3.6623,3.7378,3.7634,3.8016,3.8664,3.8728,3.8713,3.8538,3.8128,3.7923,3.7981,3.7159,3.7091,3.7729,3.729,3.7308,3.778,3.8734,3.9077,3.8952,3.8529,3.8387,3.8452,3.8387,3.842,3.8527,3.8228,3.8297,3.844,3.7383,3.7288,3.7521,0.0,0.0,0.0,0.0,1.5747,1.5655,1.5506,1.616,1.6333,1.5356,1.5833,1.5943,1.509,1.5382,1.5316,1.4502,1.6305,1.7226,1.6598,1.7786,1.7914,1.6614,1.7153,1.706,1.6191,1.6898,1.7183,1.6965,1.6841,1.6683,1.6548,1.7038,1.6794,1.5959,1.6593,1.6443,1.5755,1.6338,1.6713,1.6955,1.7638,1.7912,1.7959,1.8192,1.7926,1.7402,1.7032,0.0,0.0,1.7093,1.7918,1.9062,1.8202,1.9252,0.0,2.1365,2.2538,2.3748,0.0,0.0,2.6178,2.7503,2.8249,2.8701,2.8904,2.9517,3.0138,3.0555,3.0992,3.1395,3.1787,3.2717,3.3457,3.3529,3.5173,3.5899,3.4401,3.5453,3.5577,3.3337,3.3718,3.3928,0.0,3.5631,3.7055,3.7011,3.7863,3.838,3.8415,3.8415,3.8415,3.8399,3.8396,3.846,3.867,3.7811,3.7452,3.7591,3.6012,3.6104,3.7628,3.8584,3.8581,3.7886,3.8655,3.9115,3.9335,3.9087,3.9055,3.9085,3.825,3.8336,3.8877,3.8081,3.7445,3.713,0.0,0.0,0.0,0.0,0.0,1.6423,1.579,1.6242,1.6323,1.5458,1.6323,0.0,0.0,0.0,0.0,0.0,1.5843,1.6506,1.7176,1.7671,1.8094,1.8467,1.8754,1.8689,1.8277,1.8466,1.8219,1.7527,1.7361,1.7387,1.7619,1.7359,1.7425,1.7717,1.7058,1.6724,1.6617,1.646,1.6403,1.648,1.6827,1.7073,1.7182,1.6743,1.6742,1.6908,0.0,0.0,0.0,1.728,1.7828,1.8398,1.8817,1.9661,2.0742,2.2134,2.3365,2.451,0.0,0.0,2.7516,2.8662,2.9493,3.0078,3.0275,3.0203,3.0281,3.0889,3.0302,3.0065,3.1447,3.2119,3.2684,3.3334,3.4606,3.5154,3.4071,3.4338,3.4178,3.2833,3.3004,0.0,0.0,0.0,0.0,3.6207,3.7021,3.7725,3.8302,3.8385,3.8368,3.8256,3.7314,3.7085,3.7617,3.686,3.679,3.7396,3.6409,3.6493,3.7518,3.7253,3.7653,3.851,3.8194,3.8173,3.8289,3.7627,3.7743,3.8255,3.7371,3.7904,3.9022,3.8182,3.8088,3.8359,0.0,0.0,0.0,0.0,0.0,0.0,0.0,0.0,0.0,0.0,0.0,0.0,0.0,0.0,0.0,0.0,0.0,1.6189,1.6808,0.0,1.7864,1.8435,1.8675,1.8716,1.8545,1.841,1.8022,1.737,1.7192,1.7214,1.7409,1.7181,1.7242,1.748,1.6794,1.6443,1.633,1.6076,1.5972,1.5984,1.6311,1.6561,1.6664,1.6066,1.6168,0.0,0.0,0.0,0.0,1.6759,1.7418,1.8105,1.887,2.0116,2.152,2.2499,2.3794,2.5167,2.6328,2.721,2.8062,2.9147,2.9899,3.0326,3.0292,3.0004,2.9895,3.0445,2.9599,2.9257,3.0907,3.1333,3.1842,3.3101,3.4197,3.4624,3.3828,3.39,3.3635,3.2562,3.2736,3.2895,0.0,0.0,0.0,3.557,3.6665,3.7547,3.8052,3.8186,3.8059,3.7674,3.6741,3.6354,3.6592,3.6129,3.6045,3.634,3.6185,3.6087,3.6002,3.6065,3.6736,3.786,3.7629,3.779,3.8155,3.7538,3.7446,3.7627,3.7161,3.7595,3.8456,3.7956,3.8331,3.9004,0.0,0.0,0.0,0.0,0.0,0.0,0.0,0.0,0.0,0.0,0.0,0.0,0.0,0.0,0.0,0.0,0.0,0.0,0.0,0.0,0.0,1.6673,1.7095,1.7338,1.724,1.7039,1.6833,1.6644,1.6512,1.6308,1.6058,1.6622,1.6383,1.552,1.5949,1.5779,1.5167,1.5363,1.5496,1.5585,1.6099,1.6306,1.631,1.6159,0.0,0.0,0.0,0.0,0.0,1.5653,1.6909,1.8331,1.8563,2.0763,2.3138,2.2619,2.3929,2.5737,2.6681,2.7295,2.7927,2.9018,2.9493,2.9551,2.9088,2.8981,2.9055,2.9299,2.8878,2.8864,0.0,0.0,3.0862,3.2671,3.3762,3.4175,3.36,3.4036,3.391,0.0,0.0,0.0,0.0,0.0,0.0,3.5137,3.6827,3.7828,3.7703,3.788,3.7607,3.673,3.6659,3.6332,3.569,3.569,3.5322,3.4603,3.5364,3.4904,3.3457,3.5087,3.5933,3.6152,3.6976,3.7896,3.8807,3.8588,3.8022,3.7314,3.7412,3.7419,3.7387,3.7537,3.818,3.8993,0.0,0.0,0.0,0.0,0.0,0.0,0.0,0.0,0.0,0.0,0.0,0.0,0.0,0.0,0.0,0.0,0.0,0.0,0.0,0.0,0.0,0.0,0.0,0.0,0.0,0.0,0.0,0.0,0.0,1.6933,1.6668,1.6683,1.6735,1.6808,1.6783,1.6892,1.7046,1.6522,1.6219,1.6119,0.0,1.604,1.5325,0.0,0.0,0.0,0.0,0.0,0.0,0.0,0.0,0.0,0.0,2.2766,2.3679,2.3504,2.4777,2.6401,2.7094,2.7943,2.8751,2.919,2.9389,2.9337,2.8883,2.8024,2.7553,2.8416,2.6783,2.5963,0.0,0.0,0.0,3.0902,3.216,0.0,3.2582,3.3031,0.0,3.2941,0.0,3.394,3.3961,3.4925,0.0,3.5246,3.6657,3.7577,3.7685,3.7828,3.7539,3.673,3.607,3.5674,3.5555,3.5555,3.5127,3.4321,3.4564,3.4749,3.4867,3.481,3.5854,3.7649,3.6651,3.6775,3.7594,3.6273,3.6383,3.7244,3.6007,3.661,3.8125,3.7586,3.7973,3.878,0.0,0.0,0.0,0.0,0.0,0.0,0.0,0.0,0.0,0.0,0.0,0.0,0.0,0.0,0.0,0.0,0.0,0.0,0.0,0.0,0.0,0.0,0.0,0.0,0.0,0.0,0.0,0.0,0.0,0.0,0.0,1.6158,1.6136,1.6247,1.6018,1.605,1.6239,1.5754,0.0,0.0,0.0,0.0,0.0,0.0,0.0,0.0,0.0,0.0,0.0,0.0,0.0,2.1753,2.2493,2.3463,2.437,2.4606,0.0,2.6599,2.765,2.8072,2.8262,2.8527,2.8523,2.8191,2.7311,2.6604,2.6202,2.6445,2.5059,0.0,2.6679,2.7246,0.0,0.0,0.0,0.0,3.2597,3.2812,3.294,0.0,3.3649,0.0,3.4484,3.5313,3.5827,3.5728,3.6689,3.728,3.7299,3.7595,3.7363,3.6452,3.565,3.4884,3.4187,3.4202,3.4166,3.4028,3.4093,3.4342,3.4739,3.4797,3.566,3.7036,3.6544,3.6855,3.7669,3.6711,3.6674,3.7163,3.6614,3.6963,3.7785,3.7747,3.8034,3.8396,0.0,0.0,0.0,0.0,0.0,0.0,0.0,0.0,0.0,0.0,1.9225,0.0,0.0,0.0,0.0,0.0,0.0,0.0,0.0,0.0,0.0,0.0,0.0,0.0,0.0,0.0,0.0,0.0,0.0,0.0,0.0,0.0,0.0,0.0,0.0,0.0,0.0,0.0,0.0,0.0,0.0,0.0,0.0,0.0,0.0,0.0,0.0,0.0,0.0,0.0,2.1345,2.1581,2.2237,2.3561,2.4981,2.5538,2.5876,2.6418,2.7891,2.771,2.7173,2.7365,2.728,2.6757,2.5292,2.4996,2.4846,2.4231,0.0,2.3588,2.4996,2.5866,2.7198,2.9744,0.0,3.1942,3.2747,3.2819,3.2857,3.3003,3.3593,3.4285,3.5014,3.5796,3.628,3.628,3.6774,3.6972,3.6831,3.7298,3.711,3.6127,3.5243,3.4111,3.2632,3.2542,3.2911,3.374,3.3792,3.395,3.4214,3.5006,3.5517,3.5831,3.6501,3.7214,3.7914,3.7867,3.7348,3.6709,3.7507,3.7439,3.6946,3.7754,3.8029,3.7908,0.0,0.0,0.0,0.0,0.0,0.0,0.0,0.0,0.0,0.0,1.9064,1.9274,0.0,0.0,0.0,0.0,0.0,0.0,0.0,0.0,0.0,0.0,0.0,0.0,0.0,0.0,0.0,0.0,0.0,0.0,0.0,0.0,0.0,0.0,0.0,0.0,0.0,0.0,0.0,0.0,0.0,0.0,0.0,0.0,0.0,0.0,0.0,0.0,0.0,0.0,2.076,2.2082,2.3663,2.4478,2.4858,2.5068,2.5337,2.5709,2.6499,2.6647,2.6523,2.606,2.6425,2.64,2.4595,2.3621,0.0,0.0,2.2118,2.163,2.4116,2.5178,2.6268,2.8117,2.9868,3.101,3.1112,3.2053,3.2973,0.0,3.422,3.4951,3.5958,3.6143,0.0,0.0,3.6544,3.6826,3.6968,3.722,3.6943,3.6052,3.4551,3.3582,3.3247,3.2422,3.251,3.3475,3.3368,3.4125,3.5611,3.5315,3.5918,3.7184,3.6143,3.5763,3.5852,3.5204,3.4844,3.4702,3.486,3.5599,3.6589,3.6767,3.7147,3.7578,0.0,0.0,0.0,0.0,0.0,0.0,0.0,1.8868,1.9485,1.9893,2.0564,2.059,1.9438,1.8672,1.7766,0.0,0.0,0.0,0.0,0.0,0.0,0.0,0.0,0.0,0.0,0.0,0.0,0.0,0.0,0.0,0.0,0.0,0.0,0.0,0.0,0.0,0.0,0.0,0.0,0.0,0.0,0.0,0.0,0.0,0.0,0.0,0.0,0.0,0.0,0.0,2.0655,2.1705,2.3268,2.3935,2.4291,2.5161,2.5041,2.4962,2.6499,2.6411,2.5828,2.564,2.5605,2.5159,2.3454,0.0,0.0,0.0,2.1279,2.107,2.2521,2.3506,0.0,2.6503,2.7653,2.8728,2.9955,3.0714,0.0,3.2863,3.3867,3.4785,0.0,3.6052,3.6251,3.6187,3.6499,3.6705,3.6748,3.658,3.6059,3.5192,3.3943,3.3066,3.2557,3.2121,3.2348,3.3257,3.3639,3.4309,3.5249,3.5821,3.6303,3.6624,3.6096,3.5811,3.5652,3.4955,3.4651,3.4618,3.4618,3.5243,3.6149,3.6221,3.6552,3.6923,0.0,0.0,0.0,0.0,0.0,0.0,0.0,1.8931,1.9893,2.0958,2.1762,2.1623,1.9922,1.9618,1.8747,0.0,0.0,0.0,0.0,0.0,0.0,0.0,0.0,0.0,0.0,0.0,0.0,1.6409,0.0,0.0,0.0,0.0,0.0,0.0,0.0,0.0,0.0,0.0,0.0,0.0,0.0,0.0,0.0,0.0,0.0,0.0,0.0,0.0,0.0,0.0,2.0242,2.0585,2.1789,2.2713,2.3616,2.4882,2.4673,2.4493,2.6591,2.6285,2.5359,2.5349,2.4903,2.4076,2.2518,2.2066,0.0,0.0,2.075,2.0863,2.1423,0.0,2.3319,0.0,2.5817,2.6878,2.9021,2.9694,3.0612,0.0,3.3509,0.0,3.5349,3.5931,0.0,3.6229,3.6385,3.6493,3.6547,3.5973,3.5316,3.4646,3.3557,3.2647,3.1985,3.1833,3.2145,3.2976,3.3679,3.4206,3.4631,3.5889,3.6155,3.5679,3.5842,3.5631,3.5131,3.4959,3.4641,3.4287,3.4622,3.509,3.5603,3.5754,3.6048,3.6333,0.0,0.0,0.0,0.0,0.0,0.0,0.0,1.6888,1.8508,2.0176,2.1038,2.1341,2.0897,2.0151,1.8842,0.0,0.0,0.0,0.0,0.0,0.0,0.0,0.0,0.0,0.0,0.0,0.0,1.6488,1.634,0.0,0.0,0.0,0.0,0.0,0.0,1.5492,0.0,0.0,0.0,0.0,0.0,0.0,0.0,0.0,0.0,0.0,0.0,0.0,0.0,0.0,0.0,1.8493,1.9226,2.108,2.3043,2.3424,0.0,0.0,2.5756,2.581,2.5416,2.4758,2.4511,2.4001,2.2465,0.0,2.0857,2.0877,2.04,2.0447,2.194,2.2378,0.0,0.0,0.0,2.7062,2.8252,2.973,3.1495,3.3669,0.0,0.0,3.6059,3.6097,3.6105,3.628,3.5911,3.6003,3.6736,3.5913,3.5399,3.531,3.3584,3.2601,3.2532,3.1689,3.1701,3.2568,3.2701,3.3497,3.4857,3.4708,3.4853,3.5232,3.485,3.3787,3.2454,3.3685,3.3294,3.2054,3.3392,3.4308,3.4911,3.5053,3.5513,3.6041,0.0,0.0,0.0,0.0,0.0,0.0,1.6454,1.7324,1.8569,2.0787,2.1336,2.1411,2.1143,2.0745,1.9674,1.7683,0.0,0.0,0.0,0.0,0.0,0.0,0.0,0.0,0.0,0.0,1.7089,1.6747,1.6448,0.0,0.0,0.0,0.0,0.0,0.0,1.5566,1.5418,0.0,0.0,0.0,0.0,0.0,0.0,0.0,0.0,0.0,0.0,0.0,0.0,0.0,0.0,0.0,1.7318,1.8791,0.0,0.0,2.2684,2.3339,2.488,2.4861,2.446,2.4731,2.3886,2.2853,2.2241,0.0,2.0579,2.0595,2.0425,2.0476,2.1194,2.1421,2.2004,0.0,0.0,0.0,2.6995,2.8031,2.942,3.1878,3.3292,0.0,0.0,0.0,3.644,3.6523,3.629,3.6316,3.6728,3.554,3.499,3.5278,3.3536,3.2534,3.2434,3.1605,3.1343,3.161,3.2073,3.2659,3.3356,3.3736,3.3979,3.4096,3.3567,3.3112,3.2733,3.2815,3.2482,3.1961,3.2554,3.327,3.3973,3.4116,3.4819,3.5723,0.0,0.0,0.0,0.0,0.0,1.4296,1.6708,1.7723,1.8935,2.0956,2.1227,2.1227,2.1224,2.089,2.0101,1.87,1.776,0.0,0.0,0.0,0.0,0.0,0.0,0.0,0.0,0.0,1.7479,1.736,1.6843,1.6597,0.0,0.0,1.6012,1.59,0.0,0.0,0.0,0.0,0.0,0.0,0.0,0.0,0.0,0.0,0.0,0.0,0.0,0.0,0.0,0.0,0.0,0.0,0.0,0.0,0.0,0.0,2.1691,2.255,2.4424,2.4475,2.421,2.5087,2.3721,2.223,0.0,0.0,2.0308,2.0407,2.0441,2.0477,2.0676,2.0677,2.1224,0.0,0.0,2.3434,2.6607,2.7352,2.8511,0.0,0.0,3.3749,3.4832,3.5555,3.6137,3.6506,3.5919,3.5815,3.6523,3.494,3.4293,3.4872,3.3131,3.2128,3.1989,3.1464,3.1112,3.0932,3.1476,3.1887,3.2105,3.2557,3.281,3.2833,3.23,3.2202,3.2361,3.198,3.1863,3.1989,3.236,3.2909,3.3568,3.3852,3.4583,3.5383,0.0,0.0,0.0,0.0,0.0,0.0,1.5334,1.7512,1.9459,2.0209,2.0303,2.0573,2.1225,2.048,1.9857,1.9707,1.8647,0.0,0.0,0.0,0.0,0.0,0.0,0.0,0.0,0.0,1.8223,1.8476,1.7683,1.7396,1.7578,1.6844,1.6287,1.5914,0.0,0.0,0.0,0.0,0.0,0.0,0.0,0.0,0.0,0.0,0.0,0.0,0.0,0.0,0.0,0.0,0.0,0.0,0.0,0.0,0.0,0.0,2.1197,2.2851,2.4543,2.4991,2.5158,2.5812,2.4184,2.2535,0.0,0.0,1.9929,2.0393,2.0392,2.0373,2.066,2.0475,2.0761,2.2181,0.0,0.0,2.7485,2.8468,2.9739,0.0,0.0,3.1865,3.3461,3.398,3.4777,3.6105,3.4352,3.4096,3.6105,3.4103,3.3266,3.4096,3.2224,3.1207,3.1207,3.119,3.1032,3.0692,3.0851,3.1154,3.1603,3.107,3.1116,3.1586,3.1037,3.0716,3.0572,3.116,3.1478,3.1725,3.2919,3.3548,3.3895,3.4625,3.4977,3.5088,0.0,0.0,0.0,0.0,0.0,0.0,0.0,1.6415,1.7513,2.0045,1.9361,1.9156,2.0472,2.0236,1.9933,1.9845,1.9419,0.0,0.0,0.0,0.0,0.0,0.0,0.0,0.0,1.8239,1.8385,1.8829,1.8364,1.8124,1.8143,1.7666,1.7007,1.6244,1.6193,1.6083,0.0,0.0,0.0,0.0,0.0,0.0,0.0,0.0,0.0,0.0,0.0,0.0,0.0,0.0,0.0,0.0,0.0,0.0,0.0,1.7501,1.9185,2.1005,2.2264,2.2338,2.2376,2.3635,2.2411,2.1103,2.1859,0.0,2.0045,1.923,1.94,1.9538,1.909,1.9401,2.0505,2.278,2.3437,0.0,0.0,0.0,0.0,3.1648,3.2876,3.374,0.0,3.4332,3.454,3.5009,3.4735,3.4641,3.4809,3.4295,3.4192,3.4631,3.2876,3.1834,3.1604,3.1024,3.0609,3.0359,3.0316,3.0346,3.0528,3.0806,3.0986,3.1114,3.0958,3.1116,3.1482,3.104,3.0972,3.1163,3.1557,3.223,3.3003,3.3286,3.4044,3.497,0.0,0.0,0.0,0.0,0.0,0.0,0.0,1.6263,1.7089,1.918,1.8802,1.8722,1.9747,1.9987,2.0069,2.002,1.9835,0.0,0.0,0.0,0.0,0.0,0.0,0.0,1.9135,1.8649,1.8934,2.0055,1.9267,1.8891,1.8891,1.8392,1.7613,1.6617,1.6436,1.6328,0.0,0.0,0.0,0.0,0.0,0.0,1.7265,0.0,0.0,0.0,0.0,0.0,0.0,0.0,0.0,0.0,0.0,0.0,0.0,0.0,1.7972,1.9392,0.0,2.1119,2.1433,2.2337,2.1204,2.0158,0.0,0.0,1.9556,1.8903,1.9025,1.9021,1.8299,1.8825,2.0124,2.2378,2.3251,0.0,0.0,0.0,0.0,3.1002,0.0,0.0,0.0,3.361,3.3818,3.4451,3.4152,3.3997,3.4081,3.3574,3.3431,3.3782,3.2739,3.1929,3.1391,3.0842,3.0422,3.0124,3.0038,3.012,3.0336,3.0453,3.0613,3.0803,3.0545,3.0852,0.0,3.0548,3.0433,3.0819,3.081,3.1486,3.2469,3.2784,3.3716,3.4828,0.0,0.0,0.0,0.0,0.0,0.0,0.0,1.6757,1.781,1.8054,1.8634,1.9067,1.9173,1.9791,2.0199,2.0188,1.9963,0.0,0.0,0.0,0.0,0.0,0.0,0.0,2.0192,1.929,1.98,2.185,2.0387,1.9751,1.9852,1.9085,1.8166,1.7133,1.6818,1.6812,1.7044,1.7187,1.715,1.7093,1.7455,1.7509,0.0,0.0,0.0,0.0,0.0,0.0,0.0,0.0,0.0,0.0,0.0,0.0,0.0,0.0,0.0,0.0,0.0,2.0871,2.1812,2.1611,2.0441,1.961,2.0798,0.0,0.0,1.9191,1.911,1.8812,1.8251,1.8715,1.9708,2.1352,2.2781,0.0,0.0,2.8783,0.0,0.0,3.1179,0.0,3.1983,3.2108,3.279,3.4224,3.2871,3.2475,3.3659,3.2216,3.153,3.1913,3.196,3.1541,3.0671,3.0651,3.0422,2.9951,2.9951,3.022,3.0739,3.0035,3.0048,3.0594,2.999,3.0057,3.0503,2.9777,2.9932,3.0608,3.0656,3.1302,3.2241,3.2941,3.3826,3.4643,0.0,0.0,0.0,0.0,0.0,0.0,0.0,0.0,0.0,0.0,1.888,1.8654,1.9877,2.0127,2.0175,0.0,0.0,0.0,0.0,0.0,0.0,0.0,0.0,0.0,2.0333,2.0029,2.0639,2.2264,2.1693,2.1441,2.1439,2.0494,1.9503,1.8497,1.7768,1.7429,1.7387,1.7534,1.7557,1.7549,1.7692,1.7406,0.0,0.0,0.0,0.0,1.6342,1.6482,0.0,0.0,0.0,0.0,0.0,0.0,0.0,0.0,1.7291,1.8051,1.745,0.0,1.9414,1.943,1.8868,1.8573,0.0,0.0,0.0,0.0,0.0,1.8718,1.8786,1.8858,1.9767,2.2443,0.0,2.6034,2.759,0.0,0.0,3.0051,3.1424,3.2266,3.1948,3.209,3.2354,3.2703,3.2602,3.241,3.2147,3.2459,3.219,3.1176,3.1461,3.1203,3.0333,3.021,2.9995,2.9621,2.9409,2.933,2.9382,2.9643,2.9863,3.0013,3.0062,3.0156,3.0228,2.9491,2.9354,2.9699,3.0257,3.1061,3.1989,3.2757,3.3632,3.4399,0.0,0.0,0.0,0.0,0.0,0.0,0.0,0.0,0.0,0.0,0.0,1.8379,1.9662,2.0089,0.0,0.0,0.0,0.0,0.0,0.0,0.0,0.0,0.0,1.9948,2.1115,2.0608,2.128,2.318,2.2579,2.2075,2.1665,2.1089,2.0132,1.8888,1.8425,1.8042,1.7797,1.7986,1.8076,1.8066,1.8072,0.0,0.0,0.0,0.0,0.0,1.6143,1.6426,0.0,1.7042,1.7013,1.6727,0.0,0.0,0.0,0.0,1.7058,1.7439,1.6846,1.7821,1.8874,1.8274,1.8022,1.8095,1.877,0.0,0.0,0.0,0.0,0.0,1.8127,1.8999,0.0,0.0,2.4089,0.0,0.0,0.0,3.0332,3.0477,3.128,3.1914,3.2162,3.2249,3.2267,3.2197,3.2256,3.2084,3.1615,3.2035,3.1836,3.0848,3.0966,3.0771,3.0205,3.006,2.9798,2.9418,2.9266,2.9279,2.9407,2.9366,2.9593,2.998,2.9698,2.9643,2.9659,2.9256,2.9334,2.976,3.029,3.115,3.2199,3.2716,3.3461,3.4201,0.0,0.0,0.0,0.0,0.0,0.0,0.0,0.0,0.0,0.0,0.0,0.0,0.0,0.0,0.0,0.0,0.0,0.0,0.0,0.0,0.0,0.0,1.9825,2.045,2.1984,2.1268,2.1951,2.4133,2.323,2.2425,2.1705,2.1401,2.0417,1.8884,1.8903,1.8645,1.8235,1.8373,1.8403,1.8357,1.8153,0.0,0.0,0.0,0.0,0.0,0.0,0.0,0.0,1.7356,1.7557,1.7382,1.7335,0.0,0.0,0.0,0.0,0.0,1.7023,1.8202,1.904,1.7692,1.7622,1.804,1.8539,0.0,0.0,0.0,0.0,0.0,0.0,1.9594,0.0,0.0,0.0,0.0,2.7793,2.8834,2.9742,3.0753,3.0862,3.1179,3.2033,3.2193,3.2178,3.2039,3.1896,3.1746,3.1598,3.1411,3.112,3.0753,3.0589,3.0401,3.0167,3.0033,2.9732,2.9282,2.9259,2.9437,2.9791,2.9107,2.921,2.9943,2.9234,2.899,2.9091,2.9201,2.9556,3.0077,3.0624,3.1478,3.2426,3.2818,3.3458,3.4075,0.0,0.0,0.0,0.0,0.0,0.0,0.0,0.0,0.0,0.0,0.0,0.0,0.0,0.0,0.0,0.0,0.0,0.0,0.0,0.0,0.0,2.1155,2.0847,2.1126,2.2066,2.2438,2.3152,2.4257,2.3888,2.367,2.3557,2.2237,2.0765,1.9225,1.9342,1.917,1.8744,1.8292,1.7948,1.7674,1.692,0.0,0.0,0.0,0.0,0.0,0.0,0.0,0.0,1.7036,1.752,1.7393,1.7389,0.0,0.0,0.0,0.0,0.0,1.7432,1.8143,1.8476,1.7345,1.7733,1.8462,1.878,0.0,0.0,0.0,0.0,0.0,0.0,0.0,2.1908,0.0,0.0,2.6179,0.0,0.0,2.9266,2.9329,3.0112,3.0556,3.0315,3.1063,3.1452,3.12,3.1619,3.1802,3.1617,3.1411,3.1179,3.0955,3.0671,3.0359,3.0038,2.9836,2.9547,2.9121,2.9013,2.8975,2.8974,2.881,2.881,2.9022,2.9045,2.9013,2.8975,2.9603,2.9643,2.9446,3.1232,3.1881,3.1902,3.3237,3.3878,3.4075,0.0,0.0,0.0,0.0,0.0,0.0,0.0,0.0,0.0,0.0,0.0,0.0,0.0,0.0,0.0,0.0,0.0,0.0,0.0,0.0,2.1237,2.0766,2.1746,2.248,2.2854,2.3084,2.3613,2.4419,2.4248,2.4044,2.3742,2.2163,2.079,1.9631,1.965,1.9559,1.9353,1.8973,1.8775,1.8684,0.0,0.0,0.0,0.0,0.0,0.0,0.0,0.0,0.0,0.0,1.7393,1.7506,1.78,0.0,0.0,0.0,0.0,0.0,1.6849,1.7624,1.814,1.7959,1.8762,1.9589,1.9636,0.0,0.0,0.0,0.0,0.0,0.0,0.0,2.3358,2.522,0.0,2.6502,2.7659,2.7902,2.8227,2.8968,2.9354,2.9758,3.0227,3.0634,3.0961,3.119,3.1272,3.1444,3.1749,3.154,3.1291,3.0995,3.0753,3.024,2.9468,2.9183,2.8898,2.8568,2.8485,2.8409,2.8326,2.8171,2.8381,2.8826,2.8497,2.8551,2.8936,2.9328,2.9793,3.033,3.1376,3.211,3.2739,3.3581,3.3949,3.4,0.0,0.0,0.0,0.0,0.0,0.0,0.0,0.0,0.0,0.0,0.0,0.0,0.0,0.0,0.0,0.0,0.0,0.0,0.0,2.124,2.1492,2.0826,2.2563,2.3467,2.3248,2.3517,2.4068,2.4866,2.4593,2.4181,2.3594,2.1957,2.0844,2.0196,1.9957,1.9822,1.9761,1.9451,1.9357,1.9344,0.0,0.0,0.0,0.0,0.0,0.0,0.0,0.0,0.0,0.0,0.0,0.0,0.0,0.0,0.0,1.7127,1.6087,1.5435,1.6815,1.7387,1.7863,1.9031,0.0,2.0631,2.0664,0.0,0.0,0.0,0.0,0.0,0.0,2.2505,0.0,2.5949,2.632,2.6619,2.7162,2.721,2.7635,2.8805,2.8771,2.903,3.0005,3.0183,3.0406,3.0851,3.0724,3.0837,3.1322,3.1119,3.0819,3.0494,3.0276,2.9806,2.9041,2.8424,2.8025,2.7886,2.7857,2.787,2.7953,2.7757,2.8139,2.8912,2.8263,2.8364,2.8943,2.9194,2.9935,3.0986,3.1242,3.2167,3.3358,3.3783,3.3899,3.3899,0.0,0.0,0.0,0.0,0.0,0.0,0.0,0.0,0.0,0.0,0.0,0.0,0.0,0.0,0.0,0.0,0.0,0.0,0.0,2.1818,2.2648,2.2537,2.3324,2.3371,2.2495,2.3761,2.4928,2.5978,2.5103,2.4332,2.3657,2.199,2.1176,2.1072,2.0313,1.9877,1.9663,1.9085,1.8685,1.8342,1.7753,0.0,0.0,0.0,0.0,0.0,0.0,0.0,0.0,0.0,0.0,0.0,0.0,0.0,1.8815,1.7976,1.6818,1.6287,1.8353,1.7963,1.7652,2.0502,2.1083,0.0,2.1655,2.1981,0.0,0.0,0.0,0.0,0.0,2.3624,2.4477,2.5412,2.593,2.6551,2.7522,2.7922,2.82,2.843,2.8491,2.8549,2.8629,2.9265,2.9561,2.9367,2.9796,2.9978,2.978,2.9557,2.9309,2.8982,2.8698,2.8741,2.9091,2.7646,2.7042,2.7248,2.7066,2.7369,2.8072,2.7929,2.8322,2.9075,2.888,2.8919,2.9115,2.9562,2.9963,3.0346,3.097,3.184,3.2864,3.3758,3.3924,3.3736,0.0,0.0,0.0,0.0,0.0,0.0,0.0,0.0,0.0,0.0,0.0,2.1504,2.2066,0.0,0.0,0.0,0.0,0.0,0.0,2.1384,2.174,2.1163,2.2321,2.2568,2.1665,2.3193,2.4464,2.5422,2.5196,2.4694,2.3918,2.2748,2.2173,2.2072,2.0732,2.037,2.0695,1.9891,1.947,1.9322,1.8962,1.8588,0.0,0.0,0.0,0.0,0.0,0.0,0.0,0.0,1.7654,1.7095,1.8423,1.8595,1.819,1.7704,1.6735,1.6159,1.7589,1.8072,1.8603,2.0477,0.0,0.0,0.0,0.0,0.0,0.0,0.0,0.0,0.0,0.0,2.4403,2.6081,2.6373,2.6696,2.7581,2.7882,2.8071,2.8259,2.8259,2.83,2.8432,2.8694,2.9044,2.947,2.9503,2.9603,2.9837,2.9541,2.9244,2.8977,2.8774,2.8467,2.8113,2.7399,2.7074,2.7077,2.729,2.737,2.7369,2.7822,2.8108,2.8223,2.8276,2.8535,2.9053,2.9832,3.018,3.0267,3.1036,3.1883,3.2736,3.3199,3.362,3.3975,0.0,0.0,0.0,0.0,0.0,0.0,0.0,0.0,2.0138,0.0,0.0,0.0,0.0,2.2343,0.0,0.0,0.0,0.0,2.0393,2.1111,2.1263,2.0662,2.19,2.2454,2.2158,2.3233,2.4219,2.5062,2.5253,2.5076,2.4493,2.3353,2.2947,2.3063,2.14,2.0943,2.1378,2.0489,2.0074,1.9997,1.9635,1.9437,0.0,0.0,0.0,0.0,0.0,0.0,0.0,0.0,1.7917,1.7488,1.8711,1.8691,1.8175,1.7932,1.7337,1.6935,1.7835,1.8551,1.9349,0.0,0.0,0.0,0.0,0.0,0.0,0.0,0.0,0.0,0.0,0.0,0.0,0.0,2.6033,2.6377,2.7442,2.7751,2.7914,2.8063,2.8067,2.814,2.8291,2.8318,2.8546,2.9125,2.8863,2.8843,2.9152,2.8816,2.8544,2.8405,2.8158,2.7897,2.7558,2.7161,2.7094,2.7419,2.7738,2.7736,2.7448,2.7983,2.8272,2.8343,2.8327,2.864,2.9137,2.9697,2.9927,2.9998,3.1014,3.1788,3.2399,3.2763,3.3369,3.405,0.0,0.0,0.0,0.0,0.0,0.0,0.0,0.0,2.0807,2.1684,2.1805,0.0,0.0,0.0,0.0,0.0,0.0,0.0,2.0441,2.1156,2.1605,2.1605,2.2363,2.3227,2.4149,2.4061,2.4398,2.5192,2.5408,2.548,2.536,2.3686,2.3342,2.4033,2.2361,2.1563,2.1446,2.0658,2.0231,2.005,1.9315,1.8807,1.8431,0.0,0.0,0.0,0.0,0.0,0.0,0.0,1.8812,1.8228,1.9047,1.9193,1.9082,1.8948,1.8861,1.894,1.9623,1.9563,1.9675,0.0,0.0,0.0,0.0,0.0,0.0,0.0,0.0,2.2206,2.1888,2.1871,0.0,2.4056,2.4662,2.5491,2.7165,2.7585,2.773,2.7789,2.7908,2.8028,2.8085,2.8099,2.8071,2.7996,2.7751,2.7542,2.7404,2.7088,2.6909,2.6893,2.6572,2.6821,2.7701,2.6838,2.7046,2.8301,2.8301,2.8407,2.8576,2.8522,2.894,2.9643,2.9418,2.9357,2.947,2.9082,2.9059,2.9448,3.0847,3.1485,3.1718,3.2586,3.3319,3.3924,0.0,0.0,0.0,0.0,0.0,0.0,0.0,0.0,2.0754,2.1671,2.1806,0.0,0.0,0.0,0.0,0.0,0.0,0.0,2.2259,2.1908,2.1904,2.2418,2.2126,2.2038,2.2229,2.2883,2.3894,2.5264,2.5421,2.5499,2.5444,2.4324,2.3918,2.4043,2.2991,2.2138,2.1496,2.1304,2.0816,2.0154,1.9931,1.9756,1.9451,0.0,0.0,0.0,0.0,0.0,0.0,0.0,0.0,0.0,1.8232,1.8893,1.9272,1.9043,1.9182,1.9471,1.9618,1.99,0.0,0.0,0.0,0.0,0.0,0.0,0.0,0.0,2.3394,2.3279,2.352,2.3727,0.0,2.5007,2.5475,2.6079,2.7045,2.7276,2.7384,2.7509,2.7602,2.7674,2.7821,2.7792,2.7774,2.7847,2.773,2.7567,2.7336,2.7371,2.7279,2.7038,2.694,2.7026,2.7281,2.7437,2.767,2.7947,2.8319,2.8039,2.7239,2.8705,2.8816,2.7998,2.8808,2.9236,2.9335,2.922,2.9993,3.1193,3.0925,3.159,3.2692,3.2967,3.3468,3.4025,0.0,0.0,0.0,0.0,0.0,0.0,2.0404,2.0421,2.0764,2.1688,2.1802,2.214,0.0,0.0,0.0,2.2596,2.1784,0.0,2.2036,2.1502,2.1554,2.2362,2.2211,2.2402,2.3028,2.3346,2.4103,2.5345,2.5135,2.535,2.5948,2.4768,2.4358,2.461,2.3443,2.2413,2.1513,2.124,2.0765,2.0176,1.9884,1.9903,1.9869,0.0,0.0,0.0,0.0,0.0,0.0,0.0,0.0,0.0,1.7636,0.0,1.8828,1.897,1.9613,2.0347,2.0562,2.1062,0.0,0.0,0.0,0.0,0.0,0.0,0.0,0.0,0.0,2.3201,2.3362,2.3491,2.389,2.4792,2.5248,2.5824,2.6786,2.7069,2.7181,2.7261,2.7388,2.7494,2.7615,2.7627,2.7669,2.776,2.773,2.758,2.7352,2.7448,2.7388,2.7071,2.7071,2.7055,2.7023,2.7334,2.7453,2.7367,2.7912,2.7605,2.666,2.86,2.9097,2.8426,2.9102,2.9418,2.9464,2.9464,3.0325,3.1586,3.0965,3.1738,3.321,3.3129,3.3567,3.4151,0.0,0.0,2.0208,2.0294,0.0,0.0,2.041,2.0465,2.0776,2.157,2.1689,2.1997,0.0,0.0,0.0,2.1816,2.1079,2.0657,2.0731,2.0603,2.0983,2.1971,2.2674,2.3767,2.5362,2.4664,2.4618,2.5283,2.4549,2.501,2.6543,2.4871,2.4503,2.5217,2.3689,2.2433,2.1459,2.0795,2.0395,2.0146,1.9484,1.9587,1.9868,1.7447,0.0,0.0,0.0,0.0,0.0,0.0,0.0,0.0,1.7309,1.755,1.8164,1.8833,2.0047,2.132,2.1939,0.0,0.0,0.0,0.0,0.0,2.4292,2.3821,2.3333,2.4004,0.0,2.2548,2.2329,2.2249,2.266,2.393,2.447,2.5184,2.6522,2.6923,2.7119,2.7135,2.7346,2.7504,2.7511,2.7682,2.7771,2.7701,2.7716,2.7612,2.7419,2.7434,2.731,2.704,2.7007,2.6992,2.6942,2.686,2.6792,2.6742,2.7295,2.7259,2.6757,2.8456,2.9547,3.0146,2.9919,2.9782,2.972,2.9829,3.0405,3.1224,3.1177,3.2131,3.3538,3.3355,3.3714,3.43,0.0,0.0,1.9499,2.0244,0.0,0.0,2.0382,2.0459,2.056,2.0752,2.0787,2.0862,2.1117,2.1557,0.0,2.1875,2.1656,2.1802,2.2494,2.1894,2.2187,2.3705,2.3915,2.4207,2.4639,2.3813,2.3726,2.4458,2.3664,2.4127,2.5711,2.4047,2.3359,2.3525,2.3227,2.218,2.0697,2.1257,2.1022,2.0261,2.016,2.0183,2.0119,1.8827,1.8833,0.0,0.0,0.0,0.0,0.0,0.0,0.0,1.7919,1.8555,1.9091,1.9141,2.0102,2.1151,0.0,2.1839,0.0,0.0,0.0,2.3815,2.5186,2.4426,2.3903,2.5651,2.4677,2.3694,2.425,2.4643,2.4765,2.4388,2.5539,2.6551,2.674,2.6956,2.7166,2.7326,2.7875,2.8091,2.7697,2.8152,2.8272,2.7736,2.776,2.7686,2.7496,2.763,2.7585,2.7329,2.7168,2.712,2.7202,2.7555,2.747,2.7022,2.7674,2.7844,2.7656,2.873,2.9422,2.9814,3.0017,2.9979,2.9836,3.0746,3.16,3.2408,3.297,3.3816,3.4738,3.4691,3.4576,3.4448,0.0,0.0,0.0,0.0,0.0,0.0,0.0,0.0,2.0506,2.0508,2.0528,2.0564,2.0596,2.0974,0.0,0.0,2.1224,2.137,2.1834,2.1425,2.1755,2.3059,2.3508,2.374,2.3733,2.2919,2.3035,2.4196,2.301,2.3487,2.5475,2.4603,2.4427,2.4796,2.4022,2.2893,2.1581,2.1294,2.0869,2.035,2.0424,2.0413,2.0247,1.9304,1.9147,1.9345,1.8837,0.0,0.0,0.0,0.0,0.0,0.0,0.0,1.8987,1.9254,2.0294,2.1421,0.0,0.0,0.0,0.0,0.0,0.0,2.6261,2.5362,2.4842,2.7054,2.5614,2.4178,2.4916,2.5222,2.533,2.5236,2.6026,2.6739,2.6953,2.7149,2.7308,2.7388,2.7826,2.8019,2.778,2.8188,2.8447,2.8426,2.8467,2.8411,2.8146,2.825,2.8014,2.7327,2.7246,2.7231,2.72,2.7449,2.74,2.7055,2.7384,2.7606,2.7823,2.8581,2.8959,2.9065,2.9517,2.9648,2.9592,3.0494,3.1605,3.2752,3.3116,3.3798,3.4605,3.4837,3.4549,3.4094,0.0,0.0,0.0,0.0,0.0,0.0,0.0,0.0,0.0,2.0503,2.0563,2.0595,2.0599,2.0605,2.0605,0.0,0.0,0.0,2.0521,2.0651,2.1058,2.1772,2.2623,2.3063,2.3025,2.2216,2.244,2.3776,2.2452,2.2998,2.529,2.5279,2.5758,2.653,2.499,2.3694,2.2613,2.1262,2.0584,2.0403,2.0463,2.0473,2.0329,1.9544,1.923,1.917,1.9,1.8778,1.8566,1.8771,0.0,0.0,0.0,0.0,1.869,1.9168,2.0297,2.1549,0.0,0.0,0.0,0.0,2.4846,0.0,2.6772,2.5939,2.5491,2.7801,2.6111,2.4441,2.5255,2.5302,2.5423,2.6044,2.6363,2.6708,2.7205,2.7552,2.7696,2.7529,2.7872,2.8059,2.7882,2.8191,2.8592,2.9034,2.9233,2.915,2.8717,2.8855,2.8434,2.7308,2.7371,2.7341,2.7151,2.7119,2.707,2.7024,2.6958,2.7165,2.7602,2.8119,2.8402,2.8552,2.9088,2.9362,2.9465,3.0201,3.1401,3.2785,3.2785,3.3301,3.4101,3.4336,3.4086,3.3686,0.0,0.0,0.0,0.0,0.0,0.0,0.0,0.0,0.0,0.0,2.0551,2.0596,2.0601,2.0605,2.0605,2.0605,2.0583,2.0598,2.0592,0.0,0.0,2.1799,2.2621,2.3095,2.3083,2.2237,2.1885,2.2037,2.187,2.2678,2.4374,2.4426,2.493,2.5721,2.4735,2.3397,2.1859,2.1629,2.1097,2.0417,2.0465,2.0493,2.0478,2.0346,2.0166,1.9965,2.0,1.9432,1.8788,1.955,1.9335,0.0,0.0,0.0,1.9316,1.8725,1.9497,2.0595,0.0,0.0,0.0,0.0,2.4251,2.4461,0.0,0.0,2.4761,0.0,2.5886,2.4974,2.6411,2.637,2.6173,2.633,2.6958,2.748,2.7609,2.831,2.8579,2.7999,2.9064,2.9407,2.8251,2.8806,2.9036,2.8537,2.912,2.9108,2.8322,2.8794,2.8629,2.7659,2.7539,2.7452,2.736,2.72,2.7103,2.7086,2.7086,2.709,2.7095,2.7229,2.8079,2.9436,2.9694,2.9999,3.0406,3.1358,3.2269,3.3064,3.3064,3.3582,3.4253,3.3567,3.3523,3.3783,0.0,0.0,0.0,0.0,0.0,0.0,0.0,0.0,0.0,0.0,0.0,2.0585,2.0547,2.0585,2.0604,2.0604,2.0599,2.057,2.0558,2.0886,2.1062,2.1078,2.1436,2.1641,2.1633,2.1272,2.1281,2.1692,2.1776,2.3368,2.6371,2.5926,2.6424,2.7676,2.6317,2.5013,2.3798,2.2354,2.1249,2.0462,2.0489,2.1064,2.1803,2.0869,2.0997,2.1544,2.0634,2.0003,1.966,2.003,1.9907,1.959,1.9544,0.0,0.0,0.0,1.9625,0.0,2.1713,0.0,0.0,0.0,2.5347,2.5328,2.6542,0.0,2.5444,2.7225,2.6227,2.5441,2.6762,2.6863,2.6764,2.6828,2.7106,2.7472,2.7911,2.8294,2.8415,2.805,2.8645,2.8845,2.8253,2.8599,2.8859,2.8899,2.9651,2.9701,2.8745,2.9351,2.915,2.7917,2.7704,2.7569,2.7513,2.7388,2.7231,2.7039,2.7039,2.6974,2.6842,2.7022,2.7674,2.8728,2.9151,2.9607,3.0159,3.1387,3.2076,3.241,3.2832,3.2971,3.2993,3.3367,3.3356,3.3292,0.0,0.0,0.0,0.0,0.0,0.0,0.0,0.0,0.0,0.0,0.0,2.084,2.0563,0.0,0.0,0.0,2.0594,2.0563,2.0501,2.0499,2.0504,2.0497,2.0506,2.0501,2.0504,2.0497,2.0787,2.1407,0.0,0.0,2.7783,2.7355,2.8307,0.0,2.8333,2.6784,2.5485,2.3337,2.1944,2.1164,2.1167,2.1774,2.2617,2.1796,2.2085,2.273,2.1283,2.0711,2.0613,2.0404,2.029,2.02,1.9976,1.9611,0.0,0.0,0.0,0.0,0.0,0.0,2.355,2.5544,2.5723,2.5725,0.0,0.0,2.5736,0.0,2.6272,2.5682,2.6489,2.6788,2.6914,2.7,2.7076,2.7346,2.7928,2.8317,2.8441,2.8088,2.8318,2.8441,2.8241,2.8291,2.8533,2.9064,3.0044,3.013,2.8987,2.9819,2.9612,2.8064,2.7864,2.7733,2.7615,2.7526,2.7326,2.704,2.7105,2.7023,2.6841,2.7117,2.7666,2.8391,2.8812,2.9409,3.0183,3.1182,3.1746,3.1951,3.2217,3.2129,3.1962,3.289,3.3033,3.2923,0.0,0.0,0.0,0.0,0.0,0.0,0.0,0.0,0.0,0.0,0.0,2.1523,2.0683,2.0605,2.0605,2.0602,2.06,2.0572,2.0501,2.0501,2.0498,2.0503,2.0494,0.0,2.05,2.0501,2.0514,2.0564,0.0,0.0,2.6973,2.777,2.991,3.2986,3.0403,2.794,2.5629,0.0,2.3706,2.2958,2.2968,2.2514,2.2027,2.3607,2.3703,2.2882,2.2032,2.168,2.1496,2.0663,2.0389,2.0234,1.9333,1.9507,1.9875,0.0,0.0,0.0,0.0,2.1637,0.0,2.3431,0.0,0.0,0.0,0.0,2.476,2.538,2.5558,2.554,2.5407,2.591,2.6354,2.6432,2.6921,2.7326,2.7429,2.8643,2.9187,2.8303,2.8873,2.9058,2.8358,2.8196,2.8237,2.8508,2.9889,3.003,2.8528,2.9854,2.9876,2.8152,2.8011,2.7879,2.7701,2.7494,2.731,2.7103,2.734,2.7355,2.7181,2.7522,2.831,2.9403,2.9247,2.9958,3.1206,3.1092,3.1527,3.2181,3.1202,3.1308,3.1972,3.1784,3.2199,3.3012,0.0,0.0,0.0,0.0,0.0,0.0,0.0,0.0,0.0,0.0,0.0,0.0,0.0,2.1715,2.1366,2.1374,2.0857,2.0752,2.1294,2.0819,2.0503,2.0507,2.0545,2.0556,2.0561,2.0513,2.0507,0.0,0.0,2.2744,2.6145,2.6459,2.8129,3.0815,2.9871,2.8686,2.7241,2.5212,0.0,2.3106,2.31,2.3556,2.4189,2.3743,2.4014,2.4488,2.3086,2.2538,2.2336,2.1459,2.1169,2.101,2.0115,1.9623,1.9294,1.884,0.0,0.0,0.0,0.0,0.0,2.3222,2.4231,2.4974,2.545,2.5585,2.5764,2.642,2.5739,2.5135,2.5486,2.5676,2.5778,2.5758,2.6337,2.6943,2.7399,2.8283,2.8756,2.8362,2.8582,2.8649,2.8389,2.8393,2.8419,2.8432,2.9912,3.0086,2.8367,2.9647,2.9713,2.8152,2.7986,2.7853,2.7701,2.7539,2.7404,2.7277,2.7388,2.734,2.7213,2.7463,2.8068,2.8913,2.888,2.9851,3.1457,3.1856,3.1845,3.1596,3.1699,3.1584,3.1456,3.2259,3.2782,3.3259,0.0,0.0,0.0,2.3941,0.0,2.2213,2.2229,2.151,2.1137,2.1716,0.0,0.0,0.0,0.0,2.2246,2.2236,2.1444,2.1183,2.1752,2.0978,2.0504,2.0494,2.0825,2.0872,2.056,2.0811,2.079,0.0,0.0,0.0,0.0,2.5869,2.7355,2.9506,2.892,2.8505,0.0,0.0,0.0,2.3945,2.3946,2.4438,2.5138,2.4892,2.5141,2.5459,2.4283,2.3658,2.3231,2.2346,2.2032,2.1879,2.1012,2.0108,1.9347,0.0,0.0,0.0,2.0556,0.0,0.0,0.0,0.0,2.4777,2.5544,2.5987,2.6253,2.6336,2.5726,2.5196,2.5312,2.528,2.5208,2.5116,2.5969,2.6745,2.708,2.8009,2.8612,2.8445,2.8471,2.8484,2.8458,2.8523,2.8631,2.8824,3.0129,3.0362,2.9136,3.0211,3.0258,2.8913,2.8765,2.8523,2.8105,2.7999,2.7801,2.7494,2.7572,2.7509,2.7384,2.76,2.8052,2.8676,2.8985,2.9936,3.1326,3.1824,3.1724,3.1339,3.1794,3.1749,3.1577,3.2698,3.3362,3.3818,2.524,2.547,2.5526,2.5508,2.4133,2.3057,2.3121,2.2395,2.185,2.1879,0.0,0.0,0.0,0.0,0.0,2.3144,2.2361,2.1887,2.1878,2.104,2.0542,2.0584,2.1362,2.143,2.0594,2.1414,2.1401,2.0547,0.0,0.0,0.0,0.0,2.7848,2.9457,2.7778,2.7456,2.8096,0.0,2.6336,2.5595,2.5566,2.5063,2.4623,2.7186,2.7111,2.5643,2.5668,2.5129,2.4264,2.3306,2.2989,2.2865,0.0,0.0,0.0,0.0,0.0,0.0,0.0,0.0,0.0,0.0,0.0,0.0,2.4777,2.5639,2.597,2.496,2.5431,2.574,2.4778,2.4685,2.4685,2.4528,2.5847,2.679,2.6464,2.7915,2.8881,2.8543,2.8619,2.8669,2.8612,2.8549,2.883,2.9606,3.0441,3.0864,3.0779,3.1531,3.1479,3.0404,3.031,2.9836,2.8928,2.8893,2.8489,2.7716,2.7911,2.7879,2.7716,2.7982,2.837,2.8842,2.9559,3.0261,3.0907,3.0907,3.1163,3.1498,3.1351,3.1715,3.2361,3.2959,3.3727,3.4617,2.5537,2.5987,2.6264,2.568,2.4663,2.3969,2.4031,2.3302,2.2962,0.0,0.0,0.0,0.0,0.0,2.4662,2.4097,2.3824,2.3672,2.3686,2.2277,2.1725,2.2357,2.2001,2.1987,2.2377,2.2611,2.2319,2.1442,0.0,0.0,0.0,0.0,2.605,2.7733,2.787,2.7711,2.7193,2.5052,0.0,2.563,2.4981,2.4976,2.5457,2.6762,2.696,2.6614,2.724,2.7294,2.6812,2.5284,2.5174,2.5386,2.3812,0.0,0.0,0.0,0.0,0.0,2.0142,0.0,0.0,0.0,0.0,0.0,2.4074,2.47,2.5331,2.5764,2.5014,2.4398,2.4747,2.5303,2.5483,2.484,2.5945,2.6839,2.6712,2.8069,2.8998,2.8803,2.8815,2.8822,2.8749,2.8773,2.8864,2.9033,3.029,3.0736,3.0035,3.0675,3.0675,2.978,2.9772,2.9655,2.9326,2.8717,2.8241,2.7925,2.7968,2.7879,2.7716,2.794,2.8367,2.8961,2.9198,2.9948,3.101,3.1374,3.1556,3.1578,3.1542,3.1623,3.1876,3.2525,3.3315,3.4148,2.5522,2.5913,2.6126,2.5679,2.5179,2.4749,2.444,2.3951,2.3782,0.0,0.0,0.0,0.0,0.0,2.6356,2.5523,2.5115,2.4754,2.4413,2.3105,2.2575,2.3078,2.2967,2.2948,2.3103,2.3457,2.3047,2.1797,0.0,0.0,0.0,0.0,0.0,2.4882,2.5371,2.5703,2.5759,2.315,2.3479,2.5712,2.5939,2.6111,2.6364,2.7578,2.7776,2.7567,2.8435,2.8485,2.7997,2.6977,2.6678,2.6431,2.4605,0.0,0.0,0.0,0.0,0.0,0.0,0.0,0.0,0.0,0.0,0.0,2.3761,2.4107,2.4406,2.4669,2.4447,2.4275,2.4404,2.5098,2.5582,2.5451,2.6389,2.707,2.6878,2.8229,2.9211,2.901,2.8987,2.8952,2.8846,2.8881,2.9004,2.9197,3.0415,3.1043,3.0808,3.1455,3.129,3.011,3.0398,3.0212,2.9468,2.8933,2.8475,2.8085,2.8085,2.7996,2.7836,2.8376,2.8752,2.9052,2.9779,3.0319,3.0741,3.1603,3.1856,3.169,3.1783,3.1954,3.2187,3.2576,3.3416,3.4394,0.0,2.5594,2.5638,2.5618,2.5679,2.5495,2.4782,2.4637,2.4642,0.0,2.4806,0.0,0.0,0.0,0.0,0.0,2.6235,2.5431,2.4727,2.3787,2.3281,2.3379,2.4043,2.4082,2.3397,2.4154,2.3735,2.2095,0.0,0.0,0.0,0.0,0.0,2.2029,2.1972,2.2812,2.414,2.2142,2.3003,2.5839,2.7279,2.7589,2.7316,2.8953,2.9079,2.8455,2.9338,2.9141,2.8495,2.849,2.7861,2.6815,2.5196,2.5033,2.5129,0.0,2.364,0.0,0.0,0.0,0.0,0.0,2.325,0.0,2.3587,2.3643,2.3341,2.2646,2.3651,2.4486,2.3908,2.448,2.5266,2.6041,2.6924,2.7415,2.7129,2.8502,2.9433,2.9189,2.9134,2.9089,2.8957,2.8922,2.9138,2.9678,3.0563,3.1372,3.2006,3.2776,3.2444,3.0871,3.1397,3.0991,2.9492,2.9329,2.888,2.8223,2.8223,2.8154,2.8046,2.8951,2.9251,2.91,3.071,3.0995,3.0427,3.1739,3.2038,3.1752,3.2002,3.2452,3.2924,3.2819,3.3761,3.5039,2.5677,2.6142,2.6407,2.572,2.6176,2.6584,2.6432,2.6398,2.664,2.7287,2.7373,0.0,0.0,0.0,0.0,0.0,2.7073,2.6525,2.6413,2.4986,2.4469,2.5156,2.4687,2.4647,2.5174,2.5362,2.4947,2.3895,0.0,0.0,0.0,0.0,0.0,0.0,2.2851,2.3047,2.3457,2.5076,2.5722,2.5664,2.5307,2.632,2.8159,2.9142,2.9411,2.9354,3.0232,3.043,3.028,3.0233,2.9625,2.8826,2.8403,2.7387,2.6294,2.599,2.599,0.0,0.0,0.0,0.0,2.422,2.4263,0.0,2.2987,2.2672,2.2615,2.2451,2.2173,2.234,2.3648,2.4541,2.5151,2.5384,2.6638,2.774,2.8202,2.9123,2.9692,2.9511,2.9411,2.932,2.922,2.9127,2.9106,2.9237,2.9965,3.0405,3.0456,3.1287,3.1338,3.0363,3.0466,3.0343,2.9975,2.9188,2.8668,2.8371,2.8419,2.8313,2.8085,2.8448,2.879,2.9139,3.0228,3.0873,3.1246,3.2268,3.2086,3.122,3.1864,3.2543,3.3061,3.2345,3.3467,3.5172,2.5622,2.5922,2.6234,2.6196,2.6925,2.7508,2.7498,2.7877,2.8285,2.8695,2.9506,0.0,0.0,0.0,0.0,0.0,0.0,0.0,0.0,2.5091,2.4794,2.566,2.4877,2.4817,2.5677,2.5707,2.5274,2.4406,0.0,0.0,0.0,0.0,0.0,0.0,0.0,2.2792,2.4391,2.4408,2.5406,2.703,2.7478,2.8163,2.9043,2.9881,3.0191,3.0269,3.0696,3.0822,3.0799,3.0765,3.045,2.9925,2.8999,2.8656,2.8429,2.7548,2.7611,2.777,2.6876,2.7007,2.7047,2.5601,2.522,0.0,0.0,2.2848,2.2509,2.2536,2.2228,2.2246,2.3174,2.3656,2.4216,2.5139,2.594,2.6864,2.807,2.8479,2.8615,2.8519,2.8771,2.8914,2.8818,2.9062,2.9384,2.9717,3.0095,3.0269,3.0191,3.1415,3.1336,2.9706,3.0387,3.0363,2.9466,2.8986,2.8675,2.8497,2.8574,2.8484,2.8264,2.8912,2.9238,2.9362,3.0292,3.0835,3.1097,3.1882,3.1859,3.1415,3.2476,3.3054,3.3242,3.2715,3.3771,3.5252,2.5522,2.5557,2.5806,2.6463,2.7427,2.8103,2.8099,2.8697,2.9151,2.913,0.0,0.0,0.0,0.0,0.0,0.0,0.0,0.0,0.0,2.5434,2.5138,2.5684,2.5023,2.4986,2.5671,2.5701,2.5273,2.4407,0.0,0.0,0.0,0.0,0.0,0.0,0.0,0.0,0.0,0.0,0.0,2.8198,2.9941,3.0332,2.9939,3.0623,3.0897,3.0918,3.1074,3.1207,3.1274,3.112,3.1159,3.0981,2.9199,2.9531,3.0339,2.8877,2.8982,2.9396,2.8644,2.8415,2.814,2.7127,2.6169,2.5216,0.0,0.0,0.0,2.271,2.271,2.2772,2.2985,2.2862,2.3313,2.5114,2.5215,2.5616,2.7195,2.7238,2.7191,2.7438,2.7956,2.8299,2.836,2.8736,2.9311,3.0128,2.9935,2.9898,3.0202,3.1459,3.1263,2.9233,3.0376,3.0325,2.8912,2.887,2.8785,2.8662,2.8706,2.8632,2.8476,2.9366,2.9598,2.9331,3.0278,3.0682,3.0757,3.1403,3.1751,3.1971,3.3051,3.3477,3.3422,3.3157,3.397,3.5104,2.5599,2.5593,2.5622,2.5717,2.7054,2.8104,2.8097,2.818,0.0,0.0,0.0,0.0,0.0,0.0,0.0,0.0,0.0,2.9196,2.9074,2.7579,0.0,2.5731,2.5608,2.559,2.5693,2.5706,2.5264,2.4409,0.0,0.0,0.0,0.0,0.0,0.0,2.2555,0.0,0.0,0.0,2.6693,2.7304,2.9043,3.0156,3.0761,3.0798,3.0857,3.0995,3.1719,3.2461,3.2987,3.2213,3.2473,3.2794,3.1042,3.0581,3.0658,3.0511,3.0505,3.0516,3.0409,2.9861,2.9093,2.8096,2.7185,2.6071,2.4317,0.0,2.3602,2.2771,0.0,2.3018,2.3734,0.0,0.0,2.5119,2.4752,2.4576,2.5558,2.5667,2.6135,2.7504,2.7587,2.7809,2.857,2.7863,2.7942,2.933,2.8221,2.8063,2.9438,2.9798,2.981,2.9471,2.9578,2.9495,2.9259,2.913,2.8998,2.887,2.8863,2.8791,2.8675,2.8852,2.8795,2.8559,2.9445,3.016,3.0768,3.1598,3.2274,3.2761,3.2743,3.3105,3.3565,3.2774,3.3387,3.4533,2.5601,2.5593,2.576,2.6273,2.6899,2.7662,2.8644,3.0051,0.0,0.0,0.0,0.0,0.0,0.0,0.0,0.0,0.0,3.051,2.9557,2.7922,0.0,2.7142,2.5726,2.5418,2.6433,2.5458,2.4763,2.4394,2.3027,0.0,0.0,0.0,0.0,0.0,2.3924,0.0,2.6831,0.0,2.6831,2.7868,2.9062,3.0057,3.0839,3.0854,3.0874,3.1013,3.1815,3.2343,3.2676,3.2809,3.2763,3.2617,3.2375,3.1592,3.0952,3.2007,3.1568,3.0853,3.1321,3.0499,2.927,2.83,2.7424,2.6469,2.5123,2.4851,2.4759,2.4362,0.0,0.0,0.0,0.0,0.0,0.0,2.3609,2.365,2.4583,2.5143,2.5685,2.6294,2.669,2.7415,2.8648,2.8285,2.8428,2.9504,2.8545,2.8424,2.9579,3.0096,3.0095,2.9521,2.9847,2.9779,2.924,2.9152,2.91,2.9075,2.9071,2.9026,2.8998,2.8975,2.887,2.8718,2.8994,2.9791,3.0904,3.1186,3.1975,3.3008,3.293,3.3251,3.3705,3.3266,3.3723,3.4472,2.5601,0.0,2.5804,2.6437,2.6693,2.7291,2.8756,3.0737,3.1937,0.0,0.0,0.0,3.3892,3.4057,0.0,0.0,3.3126,3.2216,3.0302,2.8812,2.8069,2.8191,2.6437,2.5919,2.6955,2.5727,2.4859,2.4394,2.3124,0.0,0.0,0.0,0.0,0.0,0.0,2.6523,2.8808,0.0,2.7831,2.9062,2.9881,3.0737,3.1497,3.1298,3.1238,3.132,3.189,3.2108,3.2226,3.3105,3.2984,3.2568,3.3197,3.2365,3.1398,3.2678,3.1984,3.0938,3.1517,3.0789,2.9581,2.8429,2.7693,2.6957,2.5793,2.5702,2.5822,2.5572,2.5381,0.0,0.0,0.0,0.0,0.0,0.0,2.3392,2.4103,2.4741,2.5205,2.5376,2.6111,2.7009,2.8071,2.7868,2.8199,2.9434,2.8539,2.8496,2.9784,3.039,3.0357,2.9626,3.007,3.0004,2.9328,2.9254,2.9235,2.9312,2.9267,2.9254,2.9232,2.9167,2.9067,2.8929,2.9041,2.9821,3.1039,3.1187,3.2029,3.3208,3.3223,3.3429,3.3727,3.3737,3.4023,3.4375,2.56,2.5593,0.0,0.0,2.6272,2.7092,2.8005,2.8865,2.9721,3.0522,3.2149,3.3853,3.5456,3.6367,3.6857,3.6842,3.6061,3.4546,3.2084,3.109,2.9871,2.8263,2.8128,2.772,2.692,2.6858,2.6035,2.4409,2.4335,0.0,0.0,0.0,0.0,0.0,2.6189,2.6972,2.7245,2.9629,3.0662,3.0809,3.167,3.2544,3.3222,3.238,3.2065,3.2064,3.2082,3.2108,3.2226,3.3105,3.3376,3.3354,3.339,3.2779,3.207,3.2129,3.1493,3.0813,3.0823,3.08,3.0343,2.8635,2.8185,2.7704,2.5995,2.6257,2.6618,2.5774,2.6868,2.7723,2.6867,2.6624,0.0,0.0,0.0,0.0,0.0,2.4226,2.4529,2.5318,2.6111,2.6593,2.6587,2.5863,2.6353,2.8657,2.7368,2.7501,2.9874,3.0084,3.0052,2.9895,2.9854,2.9784,2.9673,2.955,2.9531,2.9588,2.9471,2.9353,2.9293,2.9286,2.9186,2.9046,2.9746,3.0458,3.117,3.1997,3.2802,3.3491,3.3563,3.3553,3.3564,3.3942,3.4014,3.4108,2.5579,2.5929,0.0,0.0,2.5826,2.6456,2.783,3.0677,3.2759,3.3019,3.4063,3.5447,3.7166,3.7108,3.7174,3.7807,3.7055,3.598,3.4605,3.2625,3.1231,3.068,2.9024,2.8272,2.854,2.748,2.6353,2.526,2.468,0.0,0.0,0.0,0.0,0.0,0.0,2.8802,0.0,0.0,0.0,3.1743,3.2618,3.3797,3.4893,3.3493,3.2955,3.2966,3.2956,3.3333,3.3863,3.4159,3.3886,3.3493,3.4077,3.2877,3.146,3.2616,3.1924,3.0936,3.1503,3.0848,2.9854,2.9217,2.8221,2.7246,2.6607,2.668,2.6646,2.5788,2.6965,2.7902,2.704,0.0,0.0,0.0,0.0,0.0,0.0,2.4596,2.5046,2.537,2.6148,2.6636,2.6567,2.6313,2.6951,2.8854,2.7962,2.8179,3.0106,3.0185,3.0098,2.9967,2.9859,2.9782,2.97,2.9617,2.9617,2.9728,2.9636,2.9579,2.956,2.952,2.9737,3.0123,3.029,3.1071,3.2236,3.246,3.2993,3.3698,3.3726,3.3986,3.4357,3.4308,3.4239,3.4285,2.6354,2.6761,2.686,2.5757,2.5815,2.6598,2.8233,3.1353,3.3708,3.4251,3.5336,3.6727,3.8446,3.8125,3.8028,3.864,3.8172,3.7268,3.5868,3.4153,3.2956,3.2359,3.0784,2.9907,2.9861,2.8793,2.7554,2.6122,2.5554,2.4833,0.0,0.0,0.0,0.0,0.0,2.9352,3.1201,3.157,3.2037,3.262,3.3819,3.4944,3.578,3.4694,3.4103,3.3823,3.3517,3.3755,3.4245,3.4234,3.3866,3.3496,3.4061,3.2865,3.1489,3.2603,3.1935,3.0953,3.1498,3.1075,3.0337,2.9676,2.8915,2.8172,2.7546,2.764,2.7525,2.633,2.7718,2.8671,2.7212,2.7417,0.0,0.0,0.0,0.0,0.0,2.4823,2.535,2.5397,2.5891,2.6221,2.6212,2.6164,2.6843,2.8541,2.8103,2.8515,3.0208,3.0267,3.0206,3.0121,2.9988,2.9916,2.9836,2.9789,2.9825,2.9907,2.9834,2.9818,2.979,2.9692,2.9889,3.0373,3.0807,3.1544,3.2476,3.2964,3.3454,3.3908,3.3908,3.4357,3.5003,3.4985,3.5252,3.5612,2.7816,2.795,2.7598,2.6022,2.6443,2.7543,2.9217,3.0964,3.2662,3.4249,3.5952,3.7649,3.9288,3.9455,3.9456,3.9458,3.9412,3.8402,3.6046,3.5751,3.4944,3.3355,3.3266,3.2501,3.0921,3.0753,2.9513,2.709,2.696,0.0,0.0,0.0,0.0,0.0,2.7889,0.0,2.9799,3.2322,3.3402,3.3562,3.5233,3.5903,3.5906,3.5906,3.5406,3.4597,3.3805,3.3495,3.3477,3.3508,3.3432,3.3355,3.3437,3.2812,3.2049,3.2087,3.154,3.0874,3.0825,3.1411,3.1648,2.9985,3.0158,3.0313,2.8728,2.9003,2.9123,2.7418,2.9029,3.0,2.7576,2.8431,2.8666,0.0,0.0,0.0,0.0,2.4981,2.5459,2.5421,2.5397,2.5425,2.5484,2.538,2.6034,2.7773,2.7777,0.0,3.0214,3.031,3.0292,3.0292,3.0245,3.0171,3.0109,3.0098,3.0098,3.0101,3.0046,2.9996,2.998,2.9805,2.9736,2.9859,3.1283,3.1907,3.2009,3.3552,3.4173,3.4099,3.4099,3.4667,3.5504,3.5926,3.6912,3.7892,2.7906,2.7913,2.8317,2.9207,2.9551,2.9842,3.0307,3.2852,3.4845,3.5172,3.7237,3.908,4.0103,4.0253,4.0289,4.0293,3.9746,3.9135,3.8485,3.7225,3.6324,3.5941,3.4698,3.3834,3.3462,3.158,3.0323,2.9723,2.7783,0.0,2.6562,0.0,0.0,0.0,0.0,3.002,3.1515,3.2793,3.4063,3.5268,3.5713,3.5902,3.5914,3.5962,3.5442,3.4766,3.5181,3.4928,3.4474,3.511,3.4038,3.2652,3.3962,3.2889,3.1269,3.1913,3.1484,3.082,3.08,3.0996,3.1094,3.0659,3.0212,2.9803,2.935,2.9445,2.9286,2.8191,2.9009,2.9685,2.8984,2.9216,2.9071,0.0,0.0,0.0,0.0,2.6269,2.6123,2.5477,2.5364,2.5351,2.5421,2.5445,2.6122,2.7774,2.7908,2.866,3.0356,3.0402,3.0349,3.0292,3.0273,3.0233,3.0171,3.0164,3.015,3.0101,3.0087,3.0042,3.0007,2.9948,3.0223,3.0788,3.1722,3.2429,3.2988,3.3906,3.4233,3.4173,3.4173,3.5019,3.6288,3.6886,3.7593,3.8097,2.9455,2.9788,3.0593,3.2016,3.2259,3.2283,3.2311,3.3921,3.5226,3.5463,3.7397,3.889,3.9354,4.0069,4.0508,4.0557,4.0133,3.975,3.9412,3.8472,3.7777,3.7436,3.6155,3.5281,3.4982,3.2817,3.137,3.0703,2.8452,0.0,2.743,0.0,0.0,0.0,0.0,3.0048,3.1074,3.2638,3.4083,3.5352,3.5752,3.5899,0.0,3.5966,3.5697,3.5328,3.5825,3.5435,3.4761,3.5279,3.4444,3.3333,3.3939,3.3121,3.2028,3.2516,3.2322,3.1933,3.1933,3.1952,3.199,3.1992,3.1348,3.0683,3.0683,3.0427,2.9917,2.9056,2.9542,2.989,2.9122,2.9252,2.9201,0.0,0.0,0.0,2.6857,2.6734,2.6372,2.5494,2.5363,2.5369,2.5395,2.5412,2.5931,2.7184,2.768,2.8485,2.9814,3.0604,3.0818,3.0398,3.0738,3.0701,3.0299,3.0292,3.0267,3.0227,3.0227,3.02,3.0126,3.0072,3.0269,3.0709,3.1806,3.2486,3.29,3.3986,3.4363,3.4318,3.4709,3.5559,3.6629,3.7292,3.7879,3.8211,3.1589,3.2391,3.3312,3.4154,3.4384,3.4588,3.4966,3.4928,3.5093,3.5727,3.7266,3.8296,3.8304,3.9539,4.0422,4.0489,4.0496,4.0238,3.959,3.9552,3.9231,3.8492,3.7674,3.6841,3.6054,3.4226,3.2535,3.1025,2.9059,0.0,0.0,0.0,0.0,0.0,0.0,0.0,0.0,3.2374,3.3882,3.4839,3.5605,3.5906,3.5912,3.5968,3.5912,3.5832,3.5956,3.5448,3.4716,3.4836,3.4726,3.4441,3.3916,3.3586,3.3411,3.3549,3.349,3.3391,3.3393,3.3393,3.3392,3.3392,3.2749,3.2107,3.2109,3.1484,3.0682,2.9919,3.0228,3.0226,2.8882,2.9106,2.9284,2.8643,2.8448,2.8089,2.7278,2.7108,2.6699,2.5704,2.5584,0.0,2.5569,2.5523,2.5831,2.6625,2.7508,2.8365,2.9214,3.0775,3.1276,3.0523,3.1182,3.1179,3.0427,3.0411,3.0463,3.0558,3.0552,3.0515,3.0452,3.0433,3.0365,3.0335,3.1883,3.2486,3.2494,3.3995,3.4528,3.4509,3.56,3.6248,3.6716,3.7498,3.8055,3.8323,3.2568,3.3319,3.398,3.4242,3.4852,3.5978,3.8031,3.775,3.7327,3.7456,3.8837,3.9856,3.9983,4.017,4.0377,4.0489,4.0496,4.0469,4.0395,4.0386,4.0369,4.0327,3.9457,3.8588,3.7773,3.54,3.3708,3.277,2.9633,0.0,0.0,0.0,0.0,0.0,0.0,0.0,3.2675,3.318,3.427,3.569,3.5833,3.5897,3.5909,3.5902,3.5517,3.5019,3.5745,3.5441,3.48,3.5536,3.4817,3.3845,3.5141,3.4558,3.355,3.4264,3.3955,3.3394,3.3392,3.3396,3.3401,3.3406,3.2742,3.2096,3.21,3.1481,3.0839,3.0625,3.0174,2.9915,3.0298,2.99,2.9695,3.0251,2.9733,2.9212,2.9041,2.8969,2.8356,2.6817,2.6582,2.6524,2.6486,2.6509,2.6844,2.7605,2.8502,2.9366,3.0136,3.0521,3.0658,3.0504,3.063,3.0645,3.0472,3.0472,3.0791,3.1385,3.1392,3.1353,3.1322,3.1893,3.177,3.1175,3.272,3.3346,3.3344,3.4283,3.4594,3.4697,3.6783,3.7221,3.6838,3.8234,3.8708,3.8593,3.5736,3.5605,0.0,3.5963,3.6723,3.7499,3.8207,3.9087,3.9543,3.9237,3.9063,3.9313,4.029,4.0316,4.0478,4.1064,4.0745,4.0508,4.0549,4.0554,4.0588,4.0646,3.9815,3.9166,3.8775,3.6266,3.4801,3.4497,3.1078,0.0,0.0,0.0,0.0,0.0,0.0,3.15,0.0,3.3643,3.4759,3.5946,3.6342,3.6818,3.7252,3.7258,3.6735,3.6068,3.6518,3.612,3.5441,3.5869,3.5446,3.4904,3.5731,3.5415,3.483,3.5254,3.5077,3.4747,3.475,3.4754,3.4758,3.4746,3.4086,3.3325,3.2878,3.212,3.1382,3.0936,3.0527,3.0351,3.0778,3.0479,3.0316,3.0735,3.045,3.0028,2.9552,2.9474,2.8812,2.7092,2.6871,2.665,2.6181,2.6537,2.692,2.7195,2.7691,2.8285,2.906,3.0018,3.055,3.0545,3.0984,3.1003,3.0558,3.0516,3.0683,3.1033,3.0979,3.1162,3.1515,3.19,3.2039,3.2034,3.3206,3.3676,3.3686,3.4842,3.5254,3.5334,3.6888,3.7193,3.6931,3.7993,3.8545,3.8701,3.8426,3.7975,3.7471,3.7813,3.8699,3.9137,3.8403,3.9981,4.1108,4.0644,3.923,3.8875,4.0464,4.0376,4.0519,4.134,4.0831,4.0556,4.0754,4.0773,4.0866,4.1089,4.0303,3.9798,3.9622,3.7449,3.6118,3.5702,3.2827,3.1184,3.0681,0.0,0.0,0.0,3.0731,3.1939,3.3028,3.4335,3.5507,3.6518,3.7141,3.7728,3.8224,3.8213,3.7807,3.7218,3.7279,3.6856,3.6251,3.6261,3.6152,3.6,3.5989,3.5983,3.5999,3.5976,3.599,3.6005,3.5972,3.5995,3.5997,3.5983,3.5329,3.4516,3.3834,3.2857,3.1962,3.1519,3.1245,3.103,3.0898,3.0859,3.0875,3.1044,3.1089,3.0843,3.0141,3.0047,2.9409,2.7686,2.7303,2.6975,2.649,2.6504,2.6643,2.6899,2.7121,2.7517,2.8145,2.9703,3.0494,3.0336,3.1161,3.1291,3.0604,3.0554,3.0602,3.0739,3.0692,3.0975,3.1518,3.1921,3.2297,3.2648,3.3636,3.4118,3.433,3.5656,3.6174,3.6201,3.7164,3.7392,3.7262,3.7875,3.8413,3.8822,3.8446,3.9542,4.0114,3.8677,3.9843,4.0962,4.0867,4.1057,4.1212,4.1225,4.0389,4.0193,4.1275,4.0673,4.0282,4.0503,4.0454,4.0781,4.1613,4.1678,4.2097,4.2988,4.2207,4.1415,4.0681,3.9586,3.7949,3.5689,3.466,3.2963,3.0714,0.0,3.2232,3.2914,3.3081,3.4078,3.5646,3.5791,3.6799,3.8259,3.8334,3.7954,3.733,3.7317,3.7261,3.7218,3.7281,3.7205,3.71,3.715,3.6651,3.5989,3.5925,3.5947,3.5995,3.5938,3.5958,3.5984,3.5936,3.596,3.5984,3.5916,3.5307,3.4679,3.4608,3.3282,3.2291,3.3024,3.2537,3.1737,3.0957,3.0859,3.1133,3.1855,3.1984,3.1957,3.1868,3.185,3.1227,2.9557,2.8601,2.8364,2.907,2.7065,2.6346,2.7852,2.8632,2.9065,2.9076,2.9989,3.0182,2.9433,3.0268,3.0683,3.0602,3.0597,3.094,3.158,3.158,3.1552,3.1548,3.3084,3.3341,3.2686,3.423,3.5306,3.6026,3.6835,3.7179,3.7302,3.8712,3.8789,3.8159,3.8827,3.9031,3.895,3.8881,3.9496,4.0021,3.9936,4.0939,4.1748,4.173,4.2255,4.2631,4.2626,4.1089,4.0603,4.2173,4.1055,4.0481,4.1185,4.0759,4.0841,4.1736,4.1844,4.2248,4.3142,4.2384,4.1807,4.1532,4.0127,3.8696,3.7254,3.5939,3.4245,3.2263,3.2686,3.3356,3.4234,3.5264,3.6123,3.6809,3.7301,3.8187,3.9275,3.9247,3.9361,3.9538,3.9504,3.9185,3.8761,3.8783,3.8456,3.7907,3.7445,3.6724,3.6002,3.5964,3.5984,3.5988,3.5914,3.5926,3.5926,3.5909,3.5912,3.594,3.5955,3.5726,3.5341,3.4826,3.4156,3.3604,3.3443,3.2704,3.1848,3.1013,3.0859,3.1113,3.1953,3.2107,3.228,3.2812,3.2435,3.1665,3.0454,2.9523,2.8916,2.8736,2.7291,2.7087,2.8761,2.7713,2.7245,2.7731,2.8083,2.8584,2.9287,2.9642,3.0077,3.0586,3.0564,3.0689,3.0981,3.0948,3.1423,3.2357,3.3023,3.3616,3.4137,3.4779,3.5477,3.6193,3.6974,3.73,3.7456,3.892,3.8977,3.829,3.8952,3.912,3.8979,3.9802,4.0197,4.0667,4.1372,4.2213,4.2722,4.2485,4.3095,4.3485,4.3233,4.176,4.1354,4.2996,4.1829,4.1255,4.2029,4.1544,4.1588,4.2505,4.2614,4.3011,4.3863,4.3103,4.2688,4.2721,4.1055,3.9785,3.9046,3.7613,3.606,3.4425,3.4508,3.4995,3.5878,3.7092,3.7792,3.8079,3.8646,3.9377,4.0145,4.01,4.0333,4.0692,4.0653,4.0298,3.9794,3.9798,3.939,3.8762,3.7927,3.7242,3.6653,3.6138,3.596,3.5958,3.5907,3.5897,3.5892,3.5902,3.5907,3.5916,3.5956,3.5981,3.5848,3.5217,3.4874,3.4449,3.3584,3.2907,3.2308,3.1731,3.1384,3.1464,3.2343,3.2695,3.2909,3.3008,3.2714,3.2067,3.095,3.0041,2.9359,2.9002,2.7931,2.786,2.9288,2.7443,2.6527,2.7152,2.74,2.7966,2.8927,2.9438,2.998,3.0597,3.053,3.0626,3.0872,3.081,3.153,3.291,3.3094,3.3895,3.5098,3.5056,3.5581,3.6493,3.7066,3.758,3.8101,3.9157,3.9171,3.8652,3.9104,3.9342,3.942,4.1289,4.2273,4.2945,4.2891,4.3774,4.4209,4.3399,4.3402,4.3265,4.2614,4.2484,4.281,4.3694,4.313,4.2687,4.2776,4.2851,4.3305,4.4298,4.4372,4.4797,4.5723,4.4938,4.4467,4.4479,4.284,4.1577,4.0775,3.9951,3.8704,3.707,3.7182,3.7681,3.8458,3.8473,3.8953,3.9767,3.9786,4.0256,4.099,4.0984,4.0474,3.9728,3.98,3.9811,3.9794,3.98,3.9794,3.9658,3.8773,3.8473,3.8168,3.6436,3.5909,3.5907,3.5894,3.5908,3.5908,3.5908,3.5899,3.5909,3.589,3.5947,3.6002,3.5991,3.5318,3.4447,3.3589,3.3388,3.3379,3.3365,3.2669,3.2378,3.3232,3.4119,3.4062,3.2362,3.2851,3.2771,3.111,3.0064,2.983,3.0687,2.9194,2.851,2.9333,2.8566,2.8067,2.8082,2.8848,2.8919,2.8132,2.9715,3.0592,3.06,3.0525,3.093,3.1777,3.1728,3.2118,3.2923,3.3586,3.4325,3.5092,3.4955,3.5797,3.7297,3.7297,3.8233,3.9674,3.9693,3.9657,3.9577,3.9438,3.9856,4.0449,4.0441,4.0881,4.1456,4.2679,4.2729,4.274,4.317,4.3361,4.3158,4.2401,4.341,4.4121,4.3885,4.3209,4.2804,4.2936,4.2963,4.3353,4.4275,4.4418,4.4855,4.5684,4.4939,4.4513,4.458,4.2873,4.1609,4.0804,4.0034,3.9112,3.8062,3.8719,3.9138,3.9404,4.0014,4.0426,4.0677,4.0638,4.0785,4.1058,4.1029,4.085,4.0653,4.0637,4.0649,4.0691,4.0695,4.0305,3.9667,3.8794,3.8507,3.8308,3.7147,3.6788,3.6667,3.607,3.5897,3.5902,3.5902,3.5931,3.5964,3.5978,3.598,3.6004,3.5999,3.5798,3.5341,3.4477,3.4288,3.4102,3.3502,3.3173,3.3272,3.4148,3.4527,3.4705,3.476,3.3965,3.3416,3.3474,3.1649,3.0737,3.1604,3.0115,2.9187,2.9443,2.8656,2.7887,2.7253,2.7985,2.8554,2.8833,2.9945,3.1071,3.2229,3.225,3.2405,3.2687,3.2662,3.3041,3.3801,3.4531,3.498,3.5198,3.569,3.6188,3.669,3.7797,3.8488,3.901,4.013,4.0497,4.0427,4.0971,4.1266,4.1367,4.0914,4.1167,4.1679,4.317,4.3057,4.296,4.3629,4.3799,4.3685,4.3246,4.4239,4.4813,4.4365,4.3982,4.379,4.3894,4.393,4.4186,4.479,4.4905,4.5171,4.5687,4.5241,4.5,4.502,4.3343,4.2241,4.1747,4.0689,3.9922,3.9455,4.0003,4.0243,4.0282,4.085,4.1089,4.1031,4.0662,4.0714,4.1026,4.0668,4.073,4.1062,4.1046,4.1061,4.1098,4.11,4.0725,4.0123,3.9268,3.919,3.9237,3.8036,3.7877,3.7976,3.7111,3.6885,3.6877,3.6884,3.6679,3.6456,3.6472,3.624,3.6007,3.5999,3.5994,3.5851,3.5303,3.4934,3.4627,3.4421,3.411,3.3955,3.4187,3.4761,3.4939,3.4192,3.3964,3.375,3.3319,3.2103,3.1371,3.1592,3.0927,3.0336,3.0019,3.0064,2.9431,2.7852,2.8249,2.8899,2.9699,3.0574,3.168,3.301,3.3076,3.3249,3.3545,3.3867,3.423,3.4673,3.5438,3.5744,3.5725,3.6533,3.7014,3.7261,3.7933,3.868,3.9489,4.0229,4.0804,4.1291,4.185,4.2187,4.2388,4.2419,4.2715,4.3103,4.4106,4.4279,4.4318,4.4457,4.4484,4.4519,4.4619,4.485,4.4972,4.4915,4.5132,4.5319,4.5381,4.5438,4.5549,4.5665,4.5673,4.5673,4.5692,4.575,4.5762,4.5701,4.417,4.3311,4.3214,4.1786,4.1085,4.107,4.1146,4.1136,4.1084,4.1156,4.1117,4.0948,4.013,4.0252,4.0937,4.0123,4.0285,4.1013,4.1061,4.1092,4.1095,4.1108,4.1017,4.0796,4.0058,4.0289,4.0626,3.8992,3.9084,3.9627,3.8751,3.8507,3.8505,3.8502,3.7869,3.7234,3.7343,3.6728,3.6088,3.6088,3.6043,3.6001,3.6009,3.5342,3.5031,3.5845,3.5343,3.4505,3.3621,3.4859,3.4783,3.1539,3.3103,3.375,3.1444,3.1775,3.1906,3.1146,3.1693,3.1768,3.0945,3.2322,3.2149,2.969,2.9624,2.9978,3.0653,3.1578,3.2455,3.3251,3.3269,3.3647,3.4403,3.5136,3.5451,3.543,3.6243,3.6569,3.6564,3.7418,3.8156,3.8658,3.7905,3.8915,4.0854,4.016,4.0846,4.2196,4.2278,4.2787,4.3476,4.2316,4.2031,4.2084,4.3659,4.2974,4.2448,4.3196,4.3432,4.3359,4.2882,4.4038,4.4704,4.4155,4.4711,4.5192,4.5309,4.537,4.5438,4.5475,4.5512,4.5512,4.5475,4.5575,4.5629,4.5631,4.4654,4.3561,4.2379,4.2071,4.1927,4.192,4.2594,4.2587,4.1996,4.196,4.1595,4.0984,4.0774,4.0813,4.0976,4.0785,4.082,4.1009,4.1016,4.1065,4.1097,4.1095,4.0658,4.0058,3.9859,3.988,3.9948,3.9519,3.999,4.0406,3.8926,3.8497,3.8497,3.85,3.7866,3.7368,3.8053,3.7568,3.6926,3.6926,3.6438,3.5992,3.6001,3.5845,3.577,3.5955,3.5825,3.5418,3.4533,3.474,3.449,3.3023,3.3338,3.373,3.3786,3.3376,3.3275,3.3721,3.276,3.1985,3.1748,3.208,3.2013,3.1343,3.1946,3.2068,3.1536,3.2966,3.4127,3.4923,3.4985,3.51,3.5283,3.5425,3.5457,3.542,3.6296,3.6631,3.6653,3.8131,3.8818,3.8956,3.9366,4.0178,4.1169,4.1654,4.238,4.3246,4.392,4.4227,4.4323,4.2398,4.2442,4.273,4.3717,4.3287,4.2977,4.3552,4.3727,4.3697,4.3416,4.4266,4.4756,4.4355,4.4791,4.5125,4.5159,4.5286,4.537,4.5438,4.5485,4.5495,4.5495,4.5568,4.5594,4.5594,4.4804,4.383,4.2644,4.2676,4.2715,4.2753,4.3238,4.3238,4.2827,4.2438,4.1995,4.154,4.0743,4.063,4.0972,4.0609,4.0912,4.1581,4.1594,4.162,4.1653,4.1656,4.1081,4.0347,4.0347,4.0312,4.0283,4.0291,4.0609,4.0815,3.9919,3.9663,3.968,3.9689,3.9051,3.8412,3.8475,3.8146,3.7797,3.7784,3.7451,3.7043,3.6668,3.659,3.6471,3.6069,3.6001,3.5577,3.4305,3.4763,3.4707,3.3046,3.3828,3.4472,3.4136,3.4039,3.4018,3.41,3.3604,3.3119,3.2679,3.3357,3.3424,3.2582,3.3709,3.3966,3.3055,3.3911,3.4765,3.5538,3.5583,3.5608,3.5601,3.5553,3.5534,3.5528,3.6733,3.7259,3.7295,3.901,3.9883,4.0157,4.0225,4.1089,4.2401,4.2506,4.3198,4.4203,4.4707,4.4815,4.4699,4.2533,4.3195,4.386,4.3791,4.4023,4.43,4.4426,4.4468,4.4551,4.4757,4.4833,4.487,4.4895,4.4979,4.5038,4.5033,4.5181,4.5339,4.5457,4.5485,4.5504,4.5568,4.5586,4.5594,4.5594,4.4831,4.4126,4.3492,4.3505,4.3536,4.3594,4.3729,4.3737,4.3656,4.2842,4.2404,4.219,4.0715,4.0508,4.1128,4.0588,4.1214,4.2477,4.2482,4.2411,4.2309,4.2291,4.1754,4.1007,4.1002,4.1007,4.0999,4.0992,4.1007,4.1002,4.1006,4.1133,4.1247,4.1126,4.0563,3.9783,3.8919,3.8707,3.869,3.8703,3.8582,3.8309,3.7625,3.7487,3.7212,3.6363,3.6199,3.5639,3.3881,3.4843,3.4979,3.2636,3.4315,3.5291,3.3959,3.4564,3.4797,3.4068,3.4537,3.4577,3.3821,3.4968,3.5113,3.3757,3.5034,3.5514,3.4917,3.4768,3.4972,3.5604,3.562,3.5672,3.58,3.5801,3.5861,3.6033,3.7533,3.8176,3.8216,3.9925,4.101,4.1485,4.0921,4.1931,4.3753,4.3066,4.3658,4.495,4.4979,4.4926,4.4796,4.2551,4.3148,4.358,4.286,4.3399,4.4039,4.421,4.435,4.451,4.4776,4.4745,4.477,4.4883,4.4858,4.4907,4.508,4.517,4.5246,4.5338,4.539,4.5419,4.5429,4.555,4.5594,4.5594,4.4913,4.4504,4.4402,4.4396,4.444,4.4515,4.5194,4.5159,4.4469,4.3666,4.2908,4.2194,4.193,4.1887,4.2063,4.2734,4.3136,4.3314,4.338,4.2934,4.231,4.2307,4.1788,4.1081,4.1013,4.1006,4.0995,4.1,4.0996,4.1003,4.1002,4.1535,4.1971,4.1283,4.0997,4.0685,3.9831,3.9597,3.9597,3.96,3.9034,3.8455,3.8348,3.8311,3.8065,3.7248,3.71,3.6537,3.478,3.4726,3.4492,3.3359,3.418,3.5077,3.5537,3.6378,3.6845,3.671,3.6091,3.5667,3.5519,3.5065,3.5003,3.547,3.5698,3.6075,3.6678,3.5939,3.5568,3.5674,3.564,3.596,3.6709,3.6639,3.7006,3.7745,3.8669,3.9095,3.9173,4.0817,4.1573,4.1711,4.2202,4.2992,4.3882,4.3749,4.4249,4.5049,4.5033,4.4926,4.4796,4.1215,4.1857,4.2411,4.1939,4.269,4.3431,4.3619,4.4097,4.4524,4.4706,4.4764,4.4789,4.4833,4.4846,4.4883,4.4979,4.5125,4.5203,4.5235,4.4899,4.4921,4.5428,4.5063,4.5108,4.5648,4.5383,4.5257,4.5251,4.5251,4.5286,4.5357,4.5725,4.5705,4.5309,4.4538,4.3703,4.2851,4.2884,4.2636,4.2277,4.3227,4.3847,4.4189,4.4223,4.3739,4.3062,4.3486,4.2833,4.1801,4.2248,4.24,4.2393,4.2404,4.2073,4.1797,4.2263,4.2052,4.1666,4.1731,4.1438,4.0994,4.0596,4.0499,4.0502,4.0507,4.0557,4.033,3.9399,3.9566,3.9501,3.8184,3.7587,3.7046,3.6229,3.5703,3.5429,3.5485,3.5857,3.6422,3.7293,3.7762,3.7994,3.7941,3.7556,3.7305,3.7303,3.6484,3.6365,3.7209,3.6805,3.6938,3.7778,3.7376,3.6929,3.6469,3.685,3.7011,3.6964,3.7357,3.7765,3.8202,3.9448,3.9949,3.998,4.1673,4.261,4.2977,4.3359,4.3969,4.4643,4.4643,4.4838,4.5103,4.5068,4.4919,4.4751,4.0107,4.0809,4.1489,4.1388,4.2222,4.3032,4.3428,4.406,4.4556,4.4685,4.4732,4.477,4.4815,4.4858,4.4907,4.4919,4.5103,4.5192,4.5192,4.4504,4.449,4.5456,4.489,4.4897,4.5671,4.577,4.5807,4.5807,4.5795,4.5838,4.59,4.5906,4.5912,4.5885,4.514,4.4397,4.3713,4.3773,4.3413,4.2864,4.3806,4.4543,4.5083,4.5084,4.4578,4.3961,4.4573,4.3854,4.2708,4.3358,4.3588,4.3579,4.3588,4.3117,4.2704,4.3381,4.2688,4.1779,4.2195,4.1848,4.1383,4.1376,4.1245,4.1156,4.1362,4.192,4.1968,4.0415,4.0957,4.1106,3.9156,3.8462,3.8061,3.7675,3.7031,3.6835,3.7513,3.7436,3.7611,3.8503,3.8424,3.8363,3.8512,3.8339,3.828,3.8472,3.7698,3.7563,3.838,3.764,3.7578,3.8365,3.8408,3.7989,3.7113,3.7894,3.805,3.758,3.8398,3.8768,3.8814,4.0433,4.0893,4.0521,4.2443,4.356,4.4066,4.4296,4.4745,4.5307,4.5307,4.5224,4.5125,4.5114,4.4943,4.4732,4.0333,4.0941,4.159,4.1575,4.23,4.3218,4.4162,4.4435,4.4556,4.4685,4.4693,4.4738,4.4783,4.4858,4.4938,4.4998,4.5125,4.5192,4.5192,4.4444,4.445,4.5456,4.5565,4.5613,4.57,4.5765,4.5807,4.5807,4.5805,4.5821,4.59,4.5893,4.5923,4.5953,4.517,4.4738,4.4614,4.4671,4.4628,4.46,4.5536,4.5911,4.591,4.5905,4.542,4.472,4.4778,4.4243,4.3497,4.3519,4.3514,4.351,4.3506,4.3457,4.3423,4.349,4.345,4.3261,4.25,4.2257,4.2214,4.2204,4.1659,4.1309,4.2128,4.2356,4.2132,4.1191,4.2334,4.2737,4.0169,4.0313,4.0302,3.8767,3.8455,3.8437,3.8495,3.7812,3.7616,3.8504,3.7897,3.7719,3.8513,3.7812,3.7622,3.8441,3.7688,3.757,3.8458,3.7676,3.7562,3.8362,3.8399,3.7974,3.7115,3.7899,3.8637,3.9329,4.0134,4.0474,4.0479,4.2152,4.2036,4.0635,4.3068,4.4135,4.425,4.4928,4.525,4.5307,4.5307,4.5265,4.5181,4.5125,4.5003,4.487,3.9622,4.0257,4.0751,4.0198,4.1316,4.2417,4.2791,4.3783,4.4528,4.4565,4.4605,4.4659,4.4738,4.4815,4.4858,4.4931,4.5014,4.5103,4.5136,4.4887,4.4715,4.4653,4.5281,4.5612,4.5584,4.5684,4.575,4.575,4.5771,4.5821,4.59,4.5937,4.5955,4.5929,4.5667,4.5204,4.4672,4.5243,4.5171,4.4785,4.5684,4.6016,4.6002,4.6002,4.5492,4.487,4.5381,4.5036,4.4413,4.4934,4.5104,4.5108,4.5113,4.4734,4.4317,4.4305,4.4736,4.5029,4.4148,4.3525,4.31,4.3117,4.2509,4.1995,4.2315,4.2373,4.2256,4.1971,4.2427,4.2767,4.2297,4.1196,4.0481,4.0896,3.9628,3.8965,3.9999,3.9432,3.9217,4.0051,3.9425,3.9031,3.9313,3.9013,3.8945,3.9282,3.8997,3.9182,4.0067,3.9802,4.0,4.0793,4.0809,4.0142,3.8732,3.95,4.0031,4.0319,4.1711,4.2311,4.2254,4.3389,4.3519,4.2947,4.4372,4.4978,4.4968,4.5254,4.5359,4.5348,4.5317,4.5265,4.5192,4.517,4.5057,4.4895,3.987,4.0178,4.0449,4.037,4.1409,4.2333,4.2641,4.3708,4.4501,4.4501,4.4578,4.4646,4.468,4.4815,4.487,4.4895,4.4955,4.5014,4.5068,4.5398,4.5277,4.4537,4.5197,4.5559,4.5522,4.5913,4.6113,4.6113,4.6204,4.626,4.6306,4.6072,4.5955,4.5923,4.5986,4.5644,4.5072,4.5677,4.5605,4.5167,4.5764,4.5994,4.6005,4.5997,4.5662,4.5245,4.5793,4.5643,4.5269,4.5872,4.6066,4.6071,4.6071,4.5653,4.5177,4.52,4.5641,4.6024,4.5461,4.4857,4.4312,4.4072,4.3386,4.2774,4.2785,4.2958,4.2897,4.2142,4.2639,4.3153,4.2912,4.1894,4.1378,4.2261,4.0935,4.0195,4.1347,4.0585,4.0096,4.066,3.9996,3.9583,3.9808,3.957,3.9642,4.0173,3.9945,4.0189,4.1056,4.1334,4.1724,4.2275,4.2292,4.1855,4.0897,4.1417,4.1651,4.1637,4.3079,4.3562,4.3238,4.433,4.4479,4.3985,4.5043,4.5448,4.5409,4.5389,4.5398,4.5359,4.5297,4.5235,4.5192,4.5181,4.5091,4.4955,4.1427,4.0973,4.0932,4.26,4.2953,4.3319,4.4252,4.444,4.4501,4.4501,4.4619,4.4712,4.4712,4.487,4.4967,4.4914,4.4955,4.4991,4.4991,4.5935,4.6162,4.5438,4.5476,4.5541,4.5614,4.6508,4.7,4.7,4.7134,4.719,4.7171,4.6319,4.5949,4.5997,4.6016,4.6014,4.6016,4.6016,4.6,4.6016,4.6025,4.6019,4.6016,4.6011,4.6021,4.6021,4.6002,4.6002,4.6002,4.6002,4.6002,4.6002,4.6002,4.6002,4.6007,4.6071,4.6042,4.6037,4.6149,4.6154,4.5907,4.511,4.4247,4.3607,4.3607,4.4262,4.4172,4.1644,4.3185,4.4192,4.1603,4.254,4.3414,4.2543,4.2392,4.2397,4.24,4.0976,3.9922,3.9901,3.9139,3.8943,3.9818,3.9111,3.9301,4.0953,4.0297,4.0203,4.1059,4.1877,4.2309,4.2314,4.2311,4.2715,4.351,4.343,4.3393,4.3414,4.4227,4.4114,4.3277,4.4936,4.4754,4.322,4.4811,4.5457,4.54,4.5409,4.5359,4.5297,4.5224,4.5192,4.5192,4.5125,4.5103,4.5091,4.1626,4.1501,4.1554,4.209,4.2731,4.3231,4.3521,4.4083,4.4501,4.4501,4.4584,4.4672,4.4745,4.4821,4.4858,4.4895,4.4907,4.4967,4.5049,4.5957,4.6449,4.6311,4.6388,4.6426,4.6435,4.6768,4.6945,4.7012,4.7036,4.6786,4.6306,4.6649,4.6493,4.5962,4.6577,4.6842,4.6829,4.6784,4.6804,4.6894,4.7463,4.7372,4.6903,4.6915,4.6912,4.6832,4.621,4.6002,4.6002,4.6002,4.6005,4.6008,4.6008,4.6005,4.6007,4.6071,4.6085,4.6084,4.6177,4.6193,4.6103,4.5877,4.5163,4.4511,4.4511,4.4231,4.3942,4.3799,4.3899,4.398,4.3858,4.3253,4.2891,4.3259,4.2803,4.2399,4.2397,4.197,4.1425,4.08,4.0019,3.9609,3.9877,3.9663,3.9698,4.0153,4.1072,4.1713,4.1935,4.2753,4.3482,4.4106,4.4085,4.4443,4.5254,4.4023,4.3707,4.4317,4.5073,4.5262,4.4974,4.5464,4.5395,4.4874,4.5365,4.5522,4.5476,4.5467,4.5429,4.537,4.5359,4.5307,4.5275,4.5254,4.5181,4.5179,4.2486,4.212,4.1969,4.2717,4.3263,4.36,4.3671,4.4126,4.4473,4.4501,4.4578,4.4685,4.4802,4.4821,4.4865,4.4895,4.4943,4.5143,4.5563,4.6495,4.7091,4.7162,4.7558,4.7646,4.7328,4.7721,4.7784,4.7513,4.7515,4.7298,4.6879,4.7074,4.7055,4.6913,4.7429,4.7681,4.7714,4.7674,4.7668,4.7694,4.7895,4.7676,4.7235,4.6917,4.6785,4.6715,4.618,4.5991,4.6002,4.6002,4.6011,4.5994,4.6025,4.6041,4.6042,4.6085,4.6104,4.6102,4.6181,4.6197,4.6208,4.6196,4.5809,4.5322,4.4972,4.4766,4.4575,4.4421,4.4248,4.4075,4.3981,4.3663,4.3378,4.3202,4.3035,4.2904,4.2903,4.2613,4.2322,4.2146,4.1698,4.1269,4.0916,4.0896,4.0873,4.0836,4.1796,4.2668,4.3293,4.3837,4.4507,4.5355,4.5341,4.5546,4.6037,4.4965,4.4688,4.5189,4.5602,4.5764,4.5708,4.5738,4.5698,4.564,4.5637,4.5593,4.555,4.555,4.5485,4.54,4.536,4.5348,4.5328,4.5286,4.5423,4.5722,4.3708,4.2775,4.2262,4.3975,4.4244,4.4259,4.4368,4.4397,4.4426,4.4501,4.4619,4.4738,4.4796,4.4846,4.4883,4.4895,4.5079,4.5506,4.6257,4.7373,4.8001,4.802,4.8929,4.9057,4.8346,4.9085,4.9139,4.84,4.8422,4.8404,4.8384,4.7649,4.7703,4.8396,4.8474,4.8533,4.8599,4.8606,4.8528,4.8352,4.7753,4.7436,4.723,4.6426,4.6164,4.6205,4.6067,4.5994,4.5997,4.5997,4.5997,4.6002,4.6066,4.6095,4.6105,4.6108,4.6098,4.6122,4.6181,4.6189,4.6197,4.6196,4.6199,4.5985,4.5205,4.5634,4.5754,4.4156,4.446,4.4529,4.2924,4.3853,4.4367,4.2774,4.3187,4.3697,4.3702,4.3082,4.2908,4.3612,4.3691,4.3398,4.2598,4.2518,4.2513,4.2513,4.2579,4.3295,4.4828,4.4966,4.5336,4.6074,4.609,4.6095,4.609,4.6025,4.5968,4.5906,4.5827,4.5771,4.5715,4.5843,4.5839,4.5709,4.578,4.5737,4.5614,4.5682,4.5628,4.5506,4.5454,4.5463,4.5484,4.536,4.5808,4.6508,4.3816,4.3252,4.2962,4.4028,4.4259,4.4285,4.4314,4.4416,4.4496,4.4565,4.4646,4.4751,4.4877,4.4833,4.4833,4.4914,4.5545,4.608,4.6354,4.7869,4.8815,4.8907,4.9813,5.0238,5.0056,4.9635,4.9355,4.9236,4.9245,4.8921,4.8327,4.877,4.8739,4.8361,4.9038,4.9347,4.9355,4.9424,4.9045,4.8445,4.8963,4.8792,4.8122,4.7275,4.739,4.7853,4.6491,4.6,4.6008,4.6008,4.6,4.5997,4.6019,4.6065,4.61,4.6105,4.6132,4.6181,4.6205,4.6192,4.6193,4.62,4.62,4.6157,4.5969,4.6063,4.6086,4.5715,4.5796,4.5604,4.4557,4.4148,4.3866,4.3487,4.3573,4.3702,4.3699,4.4135,4.4256,4.3769,4.3691,4.3632,4.3434,4.343,4.3421,4.3422,4.4002,4.4517,4.4872,4.5495,4.592,4.609,4.6042,4.6016,4.6014,4.6003,4.5991,4.5974,4.5867,4.5793,4.5798,4.6461,4.6364,4.575,4.6362,4.626,4.5714,4.629,4.6494,4.6416,4.6406,4.6366,4.6336,4.6305,4.6369,4.6574,4.3838,4.3385,4.3152,4.4035,4.418,4.4192,4.4285,4.4358,4.4444,4.4537,4.4605,4.4699,4.4783,4.4757,4.494,4.5433,4.5975,4.6655,4.749,4.8498,4.9251,4.9704,5.0219,5.0521,5.0603,5.0191,4.9798,4.9442,4.9065,4.8887,4.8877,4.891,4.9131,4.9503,4.9967,5.0188,5.0223,5.0267,5.0012,4.9571,4.9241,4.9128,4.8975,4.7689,4.7778,4.848,4.7493,4.7163,4.7136,4.6746,4.6627,4.654,4.6171,4.6075,4.6105,4.6147,4.6169,4.6189,4.6201,4.6199,4.6193,4.6193,4.62,4.6203,4.6203,4.619,4.6206,4.6192,4.6209,4.5933,4.5061,4.4926,4.4664,4.3843,4.4057,4.4479,4.4872,4.5326,4.5603,4.5566,4.5566,4.5234,4.4391,4.431,4.4322,4.4315,4.4709,4.5111,4.5508,4.5884,4.609,4.61,4.6037,4.5991,4.6,4.6402,4.6616,4.6616,4.6093,4.5841,4.5826,4.6706,4.6831,4.6387,4.6815,4.6733,4.6342,4.6709,4.6838,4.6791,4.6724,4.6684,4.6635,4.6614,4.708,4.7783,4.3859,4.3451,4.3255,4.4023,4.4085,4.4101,4.427,4.4314,4.4373,4.4501,4.4584,4.4619,4.4699,4.4825,4.526,4.6031,4.6543,4.7369,4.8739,4.9108,4.9595,5.0294,5.0379,5.0457,5.0582,5.0593,5.0277,4.9615,4.895,4.8996,4.9704,4.9029,4.9461,5.0801,5.0801,5.0838,5.0872,5.0899,5.0827,5.0577,4.925,4.9142,4.9601,4.8012,4.7985,4.8765,4.8509,4.8367,4.8229,4.7695,4.7414,4.7181,4.6508,4.6309,4.6299,4.6208,4.6185,4.6193,4.6192,4.6199,4.6203,4.6206,4.62,4.6192,4.6211,4.6209,4.6193,4.6201,4.6312,4.6209,4.5479,4.5984,4.6037,4.4579,4.4976,4.5706,4.6418,4.6655,4.6969,4.7538,4.7461,4.6874,4.5563,4.5446,4.5497,4.5638,4.5516,4.5708,4.6368,4.6359,4.6255,4.61,4.6323,4.6371,4.621,4.7084,4.7531,4.7506,4.6736,4.6332,4.6285,4.7215,4.7516,4.7322,4.7469,4.7407,4.7224,4.73,4.7325,4.727,4.7012,4.6925,4.6925,4.6855,4.7716,4.89,4.391,4.3884,4.3875,4.4002,4.4119,4.4214,4.4285,4.4358,4.4426,4.4565,4.4592,4.4619,4.4699,4.5425,4.5942,4.6021,4.751,4.8599,4.8877,4.963,5.0152,5.039,5.0401,5.0435,5.0511,5.0572,5.0576,5.051,5.0423,5.0461,5.0619,5.044,5.0526,5.0801,5.0801,5.0801,5.081,5.0883,5.0499,4.9842,4.9637,4.9609,4.9606,4.8611,4.8773,4.9471,4.8729,4.8054,4.7559,4.8211,4.792,4.7279,4.7162,4.7183,4.7072,4.6327,4.6154,4.6193,4.6192,4.6209,4.6206,4.6198,4.6203,4.6211,4.6273,4.6231,4.6206,4.6203,4.68,4.7301,4.7179,4.7242,4.7256,4.7024,4.7137,4.7281,4.7415,4.8064,4.8301,4.7676,4.6932,4.6672,4.7193,4.7251,4.7533,4.8237,4.7579,4.7187,4.7221,4.7232,4.6878,4.612,4.7508,4.7881,4.7123,4.7997,4.8425,4.8425,4.8307,4.8192,4.8154,4.8989,4.8952,4.8268,4.8964,4.8836,4.8169,4.8806,4.9019,4.8894,4.8135,4.7828,4.7828,4.7818,4.7942,4.8121,4.3942,4.3974,4.402,4.4104,4.4104,4.415,4.4285,4.4285,4.4344,4.4468,4.4482,4.4524,4.4632,4.5091,4.5741,4.67,4.7606,4.8566,4.9548,5.0021,5.0267,5.029,5.0325,5.039,5.0446,5.0511,5.0603,5.0712,5.025,5.0268,5.0738,5.0256,5.0312,5.0801,5.0801,5.081,5.0855,5.0891,5.0692,5.0326,4.9884,4.9984,5.0327,4.9456,4.9697,5.0435,5.0112,4.9761,4.9411,4.9351,4.9066,4.8663,4.8169,4.8049,4.7908,4.7075,4.6843,4.6777,4.6329,4.6553,4.693,4.694,4.6936,4.693,4.6962,4.6606,4.625,4.6255,4.654,4.6919,4.7413,4.7509,4.7662,4.8143,4.8288,4.8333,4.8338,4.8652,4.8769,4.8379,4.8417,4.8433,4.8348,4.8735,4.8939,4.8813,4.8446,4.8214,4.819,4.8148,4.7942,4.7558,4.8229,4.8422,4.8036,4.8891,4.9324,4.9318,4.9774,4.9466,4.8535,4.9333,4.949,4.9138,4.9423,4.9341,4.9051,4.9296,4.9115,4.8682,4.8731,4.8721,4.8721,4.8672,4.8671,4.8583]}]]